Pocket
Livres de Poche.fr © Catalogue bibliographique
Index des auteurs


Bibliographie Pocket (Editeur)

Voici la liste des livres répertoriés dans notre base et classés du plus récent au plus ancien pour Pocket

5372 livres trouvés

V Titre Auteurs Editeur Date Pages ISBN Prix
Souvenir de l'amour Jim FERGUS POCKET 05/06/2014 - 2266230255 6.8 €
Conviction Aaron Allston Pocket 27/02/2014 - 2266228153 8.65 €
La citadelle de Murnoc Clark Darlton Pocket 27/02/2014 - 2266246917 7.98 €
Le voleur de morts Tess Gerritsen Pocket 13/02/2014 - 226624101X 7.51 €
Le clan de Mallaig Diane Lacombe Pocket 06/02/2014 - 2266232924 7.7 €
Possède-moi Julie Kenner Pocket 06/02/2014 - 2266245503 7.3 €
Circuit mortel Kathy Reichs Pocket 09/01/2014 - 2266245953 7.22 €
Les secrets de l'immortel Nicolas Flamel, Tome 4 : Le nécromancien Michael Scott Pocket 02/01/2014 432 p. 226624793X 7.22 €
Mystic city n1 your heart like quicksilver Lawrence Pocket 02/01/2014 - 2266231928 17.58 €
Série Z J-M Erre Pocket 02/01/2014 - 2266244930 6.8 €
The Infernal Devices, Tome 2 : Le prince mécanique Cassandra Clare Pocket 02/01/2014 - 2266218034 17.24 €
Laire K-H Scheer Clark Darlton Pocket 05/12/2013 277 p. 2266240277 7.98 €
Le Cercle des amies Maeve Binchy Pocket 05/12/2013 760 p. 2266247077 7.7 €
Le clan des Mallaig, Tome 2 : La Châtelaine Diane Lacombe Pocket 05/12/2013 538 p. 2266232916 8.1 €
Les huîtres me font bâiller San-Antonio Pocket 05/12/2013 281 p. 2266237527 5.8 €
Les racines de l'Ordre Noir, Tome 3 : Aryens Patrick Weber Pocket 05/12/2013 403 p. 2266220225 7.22 €
Ma vie avec Mesrine Sylvia Jeanjacquot Pocket 05/12/2013 241 p. 2266230336 6.46 €
Meurs pas, on a du monde San-Antonio Pocket 05/12/2013 280 p. 2266237519 5.8 €
Quand j'étais superman Raphaël Poulain Thomas Saintourens Pocket 05/12/2013 248 p. 2266228587 6.37 €
Star Wars, le destin des Jedi, Tome 6 : Vortex Troy Denning Pocket 05/12/2013 527 p. 2266228145 8.65 €
Cycle des Xeelees, Tome 2 : Singularité Stephen Baxter Pocket 14/11/2013 292 p. 2266219952 7.7 €
Des fauves et des hommes Patrick Graham Pocket 14/11/2013 638 p. 2266239619 7.98 €
Le chant du diable Frédérick Rapilly Pocket 14/11/2013 281 p. 2266223763 5.8 €
Ouragan dans l'hyperespace K-H Scheer Clark Darlton Pocket 14/11/2013 277 p. 2266240269 7.98 €
Roverandom J-R-R Tolkien Pocket 14/11/2013 151 p. 2266240692 5.8 €
Tous nés sous une bonne étoile : L'astrologie, une voie nouvelle du développement personnel Nitya Varnès Pocket 14/11/2013 349 p. 2266222198 7.22 €
Damné, Tome 2 : Le Fardeau de Lucifer Hervé Gagnon Pocket 07/11/2013 507 p. 2266228544 7.7 €
Jésus l'homme qui était Dieu Max Gallo Pocket 07/11/2013 316 p. 2266215736 6.84 €
La vénus à la fourrure Léopold von Sacher-Masoch Pocket 07/11/2013 181 p. 2266240684 5.42 €
Le Maître des Peines, Tome 2 : La Mariage de la Licorne Marie Bourassa Pocket 07/11/2013 728 p. 2266202952 8.65 €
Les monstres et les critiques et autres essais J-R-R Tolkien Christopher Tolkien Pocket 07/11/2013 427 p. 2266169475 8.36 €
Au bal des rombières San-Antonio Pocket 24/10/2013 347 p. 2266239856 6.8 €
Délivre-moi Julie Kenner Pocket 24/10/2013 498 p. 2266237888 7.3 €
Les maîtres du Pan-Thau-Ra K-H Scheer Clark Darlton Pocket 24/10/2013 276 p. 2266240250 7.98 €
San-Antonio met le paquet San-Antonio Pocket 24/10/2013 249 p. 2266237497 6.2 €
Seuls les poissons Françoise Kerymer Pocket 24/10/2013 475 p. 2266241095 7.7 €
Star Wars, le destin des Jedi : Alliés Christie Golden Pocket 24/10/2013 475 p. 2266228137 8.65 €
3. Le Prince des Nuages : La colère du ciel et du vent Christophe Galfard POCKET 17/10/2013 399 p. 2266243039 18.53 €
A qui ferais-je de la peine si j'étais moi-même ? Jacques Salome Pocket 17/10/2013 307 p. 2266207997 7.22 €
L'anglais c'est facile avec Alice au pays des merveilles Lewis Carroll Pocket 17/10/2013 47 p. 2266239163 4.28 €
L'anglais c'est facile avec Robin des bois Brigitte Juanals Pocket 17/10/2013 47 p. 2266239171 4.28 €
Les Chroniques des Vampires, Tome 5 : Memnoch le démon Anne Rice Pocket 17/10/2013 632 p. 2266237284 7.51 €
Lettres du Père Noël J-R-R Tolkien Pocket 16/10/2013 160 p. 2266239406 7.98 €
Flashback Dan Simmons Pocket 10/10/2013 795 p. 2266238841 8.65 €
Je suis à l'est ! : Savant et autiste : un témoignage unique Josef Schovanec Caroline Glorion Pocket 10/10/2013 288 p. 2266241036 6.37 €
L'Agent des ombres, Tome 6 : Guerrier des lunes Michel Robert Pocket 10/10/2013 480 p. 2266220551 7.98 €
La Ronde des mensonges Elizabeth George Pocket 10/10/2013 828 p. 2266240609 9.1 €
Le Testament des Templiers : La Dixième Chambre Glenn Cooper Pocket 10/10/2013 464 p. 2266211064 7.22 €
Téméraire, Tome 7 : Le Trésor des Incas Naomi Novik Pocket 10/10/2013 475 p. 2266237195 7.7 €
22 Britannia Road Amanda Hodgkinson Pocket 03/10/2013 444 p. 2266236245 7.22 €
Combien ? Douglas Kennedy Pocket 03/10/2013 285 p. 2266236784 6.8 €
Dernier été à Mayfair Theresa Révay Pocket 03/10/2013 644 p. 2266229230 8.4 €
En héritage Danielle Steel Pocket 03/10/2013 340 p. 226623580X 6.37 €
Je reviens te chercher Guillaume Musso POCKET 03/10/2013 512 p. 2266245767 7.7 €
Le Dernier rêve de Cléopâtre Christian Jacq Pocket 03/10/2013 408 p. 2266242792 7.32 €
Le clan des Mallaig, Tome 1 : L'hermine Diane Lacombe Pocket 03/10/2013 533 p. 2266232908 8.1 €
Petit dictionnaire amoureux de l'Inde Jean-Claude Carriere Pocket 03/10/2013 442 p. 2266239961 7.22 €
Petit dictionnaire amoureux des chats Frédéric Vitoux Pocket 03/10/2013 619 p. 2266229079 7.7 €
Petit dictionnaire amoureux du catholicisme Denis Tillinac Pocket 03/10/2013 474 p. 226623997X 7.22 €
Sauve-moi Guillaume Musso POCKET 03/10/2013 528 p. 2266245775 7.7 €
Au coeur du Pan-Thau-Ra K-H Scheer Clark Darlton Pocket 26/09/2013 266 p. 2266240242 7.98 €
Rendez-vous chez un lâche Frédéric Dard Pocket 26/09/2013 188 p. 2266237470 5.8 €
Un jour après l'autre Anita Shreve Pocket 26/09/2013 352 p. 2266237209 6.37 €
L'intelligence érotique : Faire vivre le désir dans le couple Esther Perel Pocket 19/09/2013 341 p. 2266181742 7.22 €
Sacrée famille ! David Safier Pocket 19/09/2013 381 p. 226623790X 7.3 €
Vivre ensemble pour changer le monde : L'art de ne pas être égoïste Richard David Precht Pocket 19/09/2013 669 p. 2266232371 8.65 €
Star Wars N110 the Old Republic T2 Complots Kemp Paul Pocket 13/09/2013 - 2266247018 9.1 €
Burndive Karin Lowachee Pocket 12/09/2013 472 p. 2266229699 8.36 €
Le monastère oublié Steve Berry Pocket 12/09/2013 641 p. 2266227092 7.98 €
Les Haut-Conteurs, Tome 2 : Roi vampire Olivier Peru Patrick McSpare Pocket 12/09/2013 402 p. 2266231081 7.41 €
A découvert Harlan Coben POCKET 05/09/2013 320 p. 2266239449 7.3 €
Cocktail club Madeleine Wickham Pocket 05/09/2013 347 p. 2266235737 7.3 €
Le scandale des délocalisations Eric Laurent Pocket 05/09/2013 288 p. 2266220004 6.84 €
Nympheas noirs Michel Bussi Pocket 05/09/2013 - 2266222376 7.7 €
L'analyste John Katzenbach Pocket 22/08/2013 658 p. 226624616X 7.98 €
Le vaisseau du puissant K-H Scheer Clark Darlton Pocket 22/08/2013 264 p. 2266240234 7.98 €
San-Antonio chez les gones San-Antonio Pocket 22/08/2013 211 p. 2266236911 6.2 €
150 idées reçues sur la France Michel Musolino Pocket 14/08/2013 404 p. 2266232770 6.46 €
150 idées reçues sur les grands personnages de l'Histoire (et de leur époque) Pierre Baron Malek Chebel Joëlle Chevé Pocket 14/08/2013 448 p. 226623465X 6.37 €
L'ange des ténèbres Caleb Carr Pocket 14/08/2013 729 p. 2266246127 8.36 €
L'épreuve, Tome 2 : La terre brûlée James Dashner Pocket 14/08/2013 414 p. 2266200135 18.5 €
Le tapis du salon Annie Saumont Pocket 14/08/2013 155 p. 226623403X 5.42 €
Les secrets du poney-club, Tome 11 : Le grand saut Stacy Gregg Pocket 14/08/2013 221 p. 2266233300 5.42 €
Temps futurs Aldous Huxley Hélène Cohen Pocket 14/08/2013 191 p. 2266239651 6.94 €
Tu n'as rien compris à Hassan II Fouad Laroui Pocket 14/08/2013 124 p. 2266227254 4.94 €
Mémoires d'un quartier, Tome 1 : Laura & Antoine Louise Tremblay d'Essiambre Pocket 25/07/2013 701 p. 2266242954 7.98 €
Amours & autres enchantements Sarah Addison Allen Pocket 04/07/2013 308 p. 2266210556 5.8 €
Danse !, Tome 20 : Le miroir brisé Anne-Marie Pol Pocket 04/07/2013 120 p. 226623515X 4.66 €
De mémoire indienne Tahca Ushte Pocket 04/07/2013 420 p. 2266214977 7.7 €
Deuil express San-Antonio Pocket 04/07/2013 243 p. 2266237446 5.8 €
Deux zèbres sur la 30e rue Marc Michel-Amadry Pocket 04/07/2013 115 p. 2266234889 4.94 €
Hollywood crime stories : sexe, mensonges et violence dans le monde du cinéma Vincent Mirabel Pocket 04/07/2013 222 p. 2266221167 6.2 €
L'oeil des dieux K-H Scheer Clark Dalton Pocket 04/07/2013 309 p. 2266240226 7.98 €
La croix des outrages Hélène Legrais Pocket 04/07/2013 313 p. 2266202588 6.37 €
La femme du bout du monde Barbara Wood Pocket 04/07/2013 606 p. 2266227270 7.98 €
La romance de ténébreuse : Intégrale 3 Bradley Pocket 04/07/2013 1135 p. 2266240722 13.21 €
Le soupir de l'immortel Antoine Buéno Pocket 04/07/2013 682 p. 2266202820 9.98 €
Les Seigneurs de guerre, Tome 3 : Le marteau de Dieu Karen Miller Pocket 04/07/2013 858 p. 2266241494 9.31 €
Les Thébaines, Tome 6 : L'héritage des Thébaines Jocelyne Godard Pocket 04/07/2013 309 p. 2266216619 6.94 €
Mes hommages à la donzelle San-Antonio Pocket 04/07/2013 255 p. 226623983X 5.8 €
Prends soin de maman Shin Kyong-sook Pocket 04/07/2013 253 p. 2266202073 6.46 €
Un petit bout de bonheur : Petit manuel de clitologie Rosemonde Pujol Pocket 04/07/2013 148 p. 2266177990 6.2 €
Le peuple des ruines K-H Scheer Clark Darlton Pocket 27/06/2013 327 p. 2266240218 8.36 €
Les souris ont la peau tendre San-Antonio Pocket 27/06/2013 251 p. 2266239821 6.2 €
Star Wars, le destin des Jedi : Abysse Troy Denning Pocket 27/06/2013 413 p. 2266228110 8.65 €
Vivre la psychologie positive : Comment être heureux au quotidien Martin Seligman Pocket 27/06/2013 509 p. 226622610X 7.7 €
Danse !, Tome 19 : Des yeux si noirs... Anne-Marie Pol Pocket 20/06/2013 125 p. 2266235141 4.56 €
Dewey Vicky Myron Brett Witter Pocket 20/06/2013 314 p. 2266192019 7.3 €
L'altermanuel d'Histoire de France Dimitri Casali Pocket 20/06/2013 378 p. 2266230352 6.94 €
La vie tranchée Bénédicte de Mazery Pocket 20/06/2013 328 p. 2266240072 6.84 €
Les blessures invisibles Nicholas Evans Pocket 20/06/2013 446 p. 2266229494 7.7 €
Mémoires d'un quartier, Tome 6 : Bernadette & Adrien... La suite Louise Tremblay d'Essiambre Pocket 20/06/2013 642 p. 2266222287 8.36 €
L'encre et le sang Franck Thilliez Laurent Scalese Pocket 13/06/2013 118 p. 226620856X 2.9 €
La maison des miroirs John Connolly Pocket 13/06/2013 157 p. 2266234153 2.76 €
Le crime parfait Peter James Pocket 13/06/2013 115 p. 2266224131 2.76 €
Les Dieux d'Atlantis David Gibbins Pocket 13/06/2013 638 p. 2266234633 8.4 €
Les Seigneurs de guerre, Tome 1 : L'impératrice de Mijak Karen Miller Pocket 13/06/2013 793 p. 2266241478 9.98 €
Les Seigneurs de guerre, Tome 2 : La Reine et le Guerrier Karen Miller Pocket 13/06/2013 857 p. 2266241486 10.64 €
Lundi mélancolie : Le jour où les enfants disparaissent Nicci French Pocket 13/06/2013 473 p. 2266239430 7.22 €
Jamais deux sans toi : Tome 2 Janet Evanovich Pocket 06/06/2013 373 p. 2266236709 3.33 €
Les trois mousquetaires Alexandre Dumas Pocket 06/06/2013 904 p. 2266241435 4.7 €
Nos (pires) meilleures vacances à Las Vegas Agathe Colombier-Hochberg Pocket 06/06/2013 256 p. 2266238973 6.8 €
Petit dictionnaire amoureux de l'histoire de France Max Gallo Pocket 06/06/2013 480 p. 2266239945 7.22 €
Petit dictionnaire amoureux de la gastronomie Christian Millau Pocket 06/06/2013 640 p. 2266239937 7.7 €
Petit dictionnaire amoureux de la science Claude Allègre Pocket 06/06/2013 734 p. 2266239953 7.7 €
Petit dictionnaire amoureux du rock Antoine de Caunes Pocket 06/06/2013 606 p. 2266239929 7.7 €
Sur l'épaule de la nuit David Lelait-Helo Pocket 06/06/2013 162 p. 2266231057 5.8 €
Amos Daragon, Tome 10 : La Grande Croisade Bryan Perro Pocket 24/05/2013 204 p. 2266241389 5.8 €
1944-1945 : Le triomphe de la liberté Max Gallo Pocket 23/05/2013 475 p. 2266241443 7.22 €
Par quatre chemins : Francis Ponge, Henri Michaux, René Char, Saint-John Perse Jean-Michel Maulpoix Pocket 23/05/2013 244 p. 2266203746 8.8 €
Une gueule comme la mienne Frédéric Dard Pocket 23/05/2013 151 p. 2266237403 5.8 €
Bouddha mode d'emploi Jack Kornfield Pocket 16/05/2013 635 p. 2266222430 8.65 €
C'était pourtant l'été Maeve Binchy Pocket 16/05/2013 624 p. 2266243454 7.98 €
Les Bateliers du Rhône Françoise Bourdon Pocket 16/05/2013 253 p. 2266233912 5.89 €
Le soleil sous la soie Eric Marchal Pocket 11/05/2013 930 p. 2266230875 8.36 €
Avant d'aller dormir S.J. Watson Pocket 07/05/2013 470 p. 2266216724 7.7 €
Jusqu'à ce que mort s'ensuive Roger Martin Pocket 07/05/2013 478 p. 2266199692 7.22 €
L'interprétation des peurs Wulf Dorn Pocket 07/05/2013 436 p. 2266221280 7.32 €
La légende de Sigurd et Gudrun J-R-R Tolkien Pocket 07/05/2013 375 p. 2266214373 7.22 €
Le requiem des abysses Maxime Chattam Pocket 07/05/2013 - 2266207059 nc.
Les seigneurs des runes, Tome 7 : Le labyrinthe de Rugassa David Farland Pocket 07/05/2013 444 p. 2266239244 7.7 €
Légendes de Dune, Tome 1 : Paul le prophète Brian Herbert Kevin J. Anderson Pocket 07/05/2013 699 p. 226620999X 9.98 €
Colocataires Danielle Steel Pocket 02/05/2013 340 p. 2266235796 6.37 €
Folie d'une femme séduite Susan Fromberg Schaeffer Pocket 02/05/2013 1075 p. 2266223054 10.64 €
Marcher pour apprendre à aimer : Témoignage de 4000 km à pied sur le chemin des étoiles... Gérard Trèves Pocket 02/05/2013 624 p. 2266233718 8.1 €
Mon père, ce boulet ! Dora Heldt Pocket 02/05/2013 380 p. 2266226045 6.84 €
Une larme m'a sauvée Angèle Lieby Pocket 02/05/2013 189 p. 2266233661 5.8 €
Enfin la vérité sur les contes de fées Murielle Renault Pocket 25/04/2013 126 p. 2266217208 5.42 €
Les Thébaines, Tome 5 : La Cité d'Aton : A l'Est, le Port suivi de L'Impossible Soleil Jocelyne Godard Pocket 25/04/2013 793 p. 2266216600 7.98 €
Polynesia, Tome 3 : Le pouvoir des signes Jean-Pierre Bonnefoy Pocket 25/04/2013 918 p. 2266200186 10.64 €
Le Cerveau de Bouddha : Bonheur, amour et sagesse au temps des neurosciences Rick Hanson Richard Mendius Pocket 18/04/2013 349 p. 2266227378 7.22 €
Le départ du Basis K-H Scheer Clark Darlton Pocket 18/04/2013 244 p. 2266240196 7.98 €
Mémoires d'un quartier, Tome 5 : Antoine & Evangéline... la suite Louise Tremblay d'Essiambre Pocket 18/04/2013 622 p. 2266222279 8.4 €
Star Wars, le destin des Jedi : Présage Christie Golden Pocket 18/04/2013 314 p. 2266228102 7.98 €
Un amour dérobé Mackenzie Ford Pocket 18/04/2013 547 p. 2266232886 7.51 €
Nous sommes tous des playmobiles Nicolas Ancion Pocket 13/04/2013 151 p. 2266242962 5.42 €
Star Wars : The Old Republic : Alliance fatale Sean Williams Pocket 13/04/2013 538 p. 2266243586 9.1 €
L'illusion Scorpio Robert Ludlum Pocket 11/04/2013 634 p. 2266210173 7.98 €
La nuit des corbeaux John Connolly Pocket 11/04/2013 519 p. 2266232363 7.22 €
Les Haut-Conteurs, Tome 1 : La voix des rois Olivier Peru Patrick McSpare Pocket 11/04/2013 336 p. 2266231073 7.7 €
Les partenaires John Grisham Pocket 11/04/2013 540 p. 2266237950 8.1 €
Rifteurs Peter Watts Pocket 11/04/2013 472 p. 226622056X 8.65 €
Un refrain sur les murs Murielle Magellan Pocket 11/04/2013 222 p. 2266224026 6.37 €
Hannah Arendt, Une introduction Jean-Claude Poizat Pocket 05/04/2013 445 p. 2266243071 8.36 €
Alzheimer mon amour Cécile Huguenin Pocket 04/04/2013 130 p. 2266229184 5.51 €
L'escapade sans retour de Sophie Parent Mylène Gilbert-Dumas Pocket 04/04/2013 381 p. 2266233769 7.22 €
L'héritage Katherine Webb Pocket 04/04/2013 523 p. 2266230840 7.7 €
Latex, etc. Margaux Guyon Pocket 04/04/2013 260 p. 2266237268 6.46 €
Les larmes noires de Mary Luther Anna Jean Mayhew Pocket 04/04/2013 382 p. 2266234080 6.84 €
Un homme parmi les loups Shaun Ellis Penny Junor Pocket 04/04/2013 379 p. 2266222031 7.3 €
Le boiteux de Varsovie : L'Opale de Sissi ; Le Rubis de Jeanne la folle Juliette Benzoni Pocket 21/03/2013 796 p. 2266230328 7.98 €
Les doigts bleus de la pluie Jean Anglade Pocket 21/03/2013 280 p. 2266230123 6.37 €
Souvenir de l'empereur Napoléon Ier : Journal du Retour des Cendres Jean-Abram Noverraz Pocket 21/03/2013 221 p. 2266234943 7.22 €
Disparu à jamais Harlan Coben Pocket 19/03/2013 466 p. 2266240803 7.7 €
Le grand secret Rene Barjavel Pocket 15/03/2013 372 p. 2266240706 6.46 €
La déesse endormie Clark Darlton K-H Scheer Pocket 14/03/2013 305 p. 2266228056 7.98 €
La romance de ténébreuse : Intégrale 2 Marion Zimmer Bradley Pocket 14/03/2013 918 p. 2266239090 13.9 €
La route d'Omaha Robert Ludlum Pocket 14/03/2013 635 p. 2266210211 8.36 €
Réglez-lui son compte ! San-Antonio Pocket 14/03/2013 280 p. 2266239805 6.2 €
Sur la route de Gandolfo Robert Ludlum Pocket 14/03/2013 472 p. 2266210289 7.7 €
The City & the City China Miéville Pocket 14/03/2013 478 p. 2266239724 7.7 €
Clandestin Philip Caputo Pocket 07/03/2013 763 p. 2266216287 8.65 €
Et surtout, ne cherchez pas à me joindre Heleen Van Royen Pocket 07/03/2013 381 p. 2266223895 6.94 €
Femmes de dictateur : Tome 2 Diane Ducret Pocket 07/03/2013 501 p. 2266232320 7.41 €
Green River Tim Willocks Pocket 07/03/2013 477 p. 2266208578 7.7 €
Le lit d'Aliénor Mireille Calmel Pocket 07/03/2013 734 p. 2266239074 nc.
Les vies extraordinaires d'Eugène Isabelle Monnin Pocket 07/03/2013 212 p. 2266233866 5.8 €
Nebraska song Tom McNeal Pocket 07/03/2013 630 p. 2266234897 7.98 €
Nââândé !? : Les tribulations d'une japonaises à Paris Eriko Nakamura Pocket 07/03/2013 123 p. 2266233548 5.42 €
Sous haute tension Harlan Coben Pocket 07/03/2013 - 226623675X 7.7 €
La prononciation de l'anglais Jean Tardieu Pocket 02/03/2013 319 p. 2266241885 8.65 €
7 ans après... Guillaume Musso POCKET 28/02/2013 498 p. 2266239066 7.9 €
Le cauchemar de l'aube Frédéric Dard Pocket 28/02/2013 184 p. 2266237357 6.2 €
Le défi positif : Une autre manière de parler du bonheur et de la bonne santé Thierry Janssen Pocket 28/02/2013 410 p. 2266222333 7.7 €
Memoires d'un quartier, Tome 4 : Marcel & Laura la suite Louise Tremblay d'Essiambre Pocket 28/02/2013 666 p. 2266222260 9.1 €
Entres ses mains Marthe Blau Pocket 21/02/2013 263 p. 2266240994 6.37 €
Les tribus du roi Alain Dubos Pocket 21/02/2013 411 p. 2266230131 7.22 €
Une histoire de la Deuxième Guerre mondiale : Tome 4, 1943, le souffle de la victoire Max Gallo Pocket 21/02/2013 410 p. 2266226096 6.84 €
Cycle des Xeelees, Tome 1 : Gravité Stephen Baxter Pocket 14/02/2013 347 p. 2266195387 7.7 €
L'indice de la peur Robert Harris Pocket 14/02/2013 379 p. 226623482X 7.3 €
Le mystère de la chambre 51 Martha Grimes Pocket 14/02/2013 441 p. 2266233920 7.22 €
Le voyeur Brian Freeman Pocket 14/02/2013 538 p. 2266220209 7.7 €
Les annales du Disque-Monde : Timbré Terry Pratchett Pocket 14/02/2013 508 p. 2266236741 7.98 €
Les traces de l'araignée Kathy Reichs Pocket 14/02/2013 466 p. 2266234056 7.7 €
Storyteller James Siegel Pocket 14/02/2013 477 p. 2266183583 7.22 €
L'origine du silence Jed Rubenfeld Pocket 07/02/2013 604 p. 226622042X 7.98 €
Le grand voyage, Tome 1 : Mohawks et le Peuple d'en haut Nicolas Vanier Virginie Jouannet Pocket 07/02/2013 534 p. 2266229885 7.7 €
Le grand voyage, Tome 2 : La Quête de Mohawks Nicolas Vanier Virginie Jouannet Pocket 07/02/2013 537 p. 2266229893 8.1 €
Les hommes viennent de Mars les femmes viennent de Vénus John Gray Paul Dewandre Pocket 07/02/2013 66 p. 2266232037 6.2 €
Les lumières du ciel Olivier Maulin Pocket 07/02/2013 245 p. 2266234099 6.37 €
Si c'était à refaire Marc Levy Pocket 07/02/2013 - 226623854X 7.7 €
Tout ce que vous avez toujours voulu savoir sur les hommes et les femmes : Les explications scientifiques derrière les vérités toutes simples Barbara Pease Allan Pease Collectif Pocket 07/02/2013 356 p. 2266222368 6.8 €
Un roman américain Stephen Carter Pocket 07/02/2013 794 p. 2266230867 9.98 €
Ceux de Menglazeg Hervé Jaouen Pocket 24/01/2013 273 p. 226623014X 6.37 €
L'été de l'ours Bella Pollen Pocket 24/01/2013 473 p. 2266234323 7.98 €
Les Thébaines, Tome 4 : L'ombre d'Amon : Le Chant de la Terre, Suivi de La vallée des artisans Jocelyne Godard Pocket 24/01/2013 864 p. 2266216597 9.31 €
Perry Rhodan, n°295, La puissance de Callibso K-H Scheer Clark Darlton Pocket 24/01/2013 270 p. 226622803X 7.98 €
Une banane dans l'oreille San-Antonio Pocket 24/01/2013 253 p. 2266237349 5.8 €
Les vierges du paradis Barbara Wood Pocket 17/01/2013 636 p. 2266240358 7.98 €
Liens familiaux Danielle Steel Pocket 17/01/2013 384 p. 2266236482 6.37 €
Spiritualité : De quoi s'agit-il ? Arnaud Desjardins Emmanuel Desjardins Pocket 17/01/2013 219 p. 2266198548 6.46 €
Une autre vie Danielle Steel Pocket 17/01/2013 535 p. 2266237322 7.7 €
La face cachée des miroirs Catherine Fradier Pocket 10/01/2013 630 p. 2266202499 7.7 €
La sentinelle de l'ombre Robert Crais Pocket 10/01/2013 405 p. 2266235370 7.22 €
Raclée de verts Caryl Ferey Pocket 10/01/2013 96 p. 2266218670 3.71 €
Un mois avec Montalbano Andrea Camilleri Pocket 10/01/2013 380 p. 2266238302 7.3 €
Cet instant-là Douglas Kennedy POCKET 03/01/2013 250 p. 2266227386 8.4 €
Damné, Tome 1 : L'héritage des cathares Hervé Gagnon Pocket 03/01/2013 528 p. 2266228536 7.7 €
Immobiliez-vous ! : Face à la crise, tout sur l'immobilier Marc Fiorentino Pocket 03/01/2013 224 p. 2266232045 6.8 €
Le bonheur Denis Robert Pocket 03/01/2013 250 p. 2266240331 6.37 €
90 films cultes à l'usage des personnes pressées ; 90 livres cultes à l'usage des personnes pressées Henrik Lange Pocket 06/12/2012 370 p. 2266217232 7.7 €
Anna Karénine Léon Tolstoï Pocket 06/12/2012 981 p. 2266234307 4.9 €
Blues pour Elise : Séquences afropéennes, Saison 1 Leonora Miano Pocket 06/12/2012 157 p. 2266193309 nc.
Doggy bag : Saison 4-5-6 Philippe Djian Pocket 06/12/2012 670 p. 2266182285 10.64 €
Drood Dan Simmons Pocket 06/12/2012 1213 p. 2266229354 11.31 €
J'ai essayé, on peut ! San-Antonio Pocket 06/12/2012 279 p. 2266226630 6.2 €
L'accident Frederic Dard Pocket 06/12/2012 154 p. 2266226622 5.8 €
Le Chevalier noir et la Dame blanche, Tome 3 : Le tribunal de l'ombre Hugues de Queyssac Pocket 06/12/2012 381 p. 2266208020 7.7 €
Le Chevalier noir et la Dame blanche, Tome 4 : La lumière des parfaits Hugues de Queyssac Pocket 06/12/2012 573 p. 2266208039 8.1 €
Le jeu des 7 familles Christiane Collange Pocket 06/12/2012 - 2266221469 6.37 €
Perry Rhodan, n°294 : Bardioc Clark Darlton K-H Scheer Pocket 06/12/2012 314 p. 2266226401 7.98 €
Pleins feux sur le tutu San-Antonio Pocket 06/12/2012 245 p. 2266226649 6.2 €
Star Wars, AN 0 : Choix décisifs Timothy Zahn Pocket 06/12/2012 504 p. 2266228080 8.65 €
Concerto pour porte-jarretelles San-Antonio Pocket 29/11/2012 288 p. 2266226614 6.2 €
L'Odyssée du dernier Néandertal, Tome 2 : Le pouvoir d'Iktia Marc Klapczynski Pocket 29/11/2012 286 p. 2266216333 6.94 €
L'Odyssée du dernier Néandertal, Tome 3 : Tsinaka l'oeil de la toundra Marc Klapczynski Pocket 29/11/2012 222 p. 2266216341 6.37 €
Maman, la dame fait rien qu'à me faire des choses : Ou San-Antonio Pocket 29/11/2012 305 p. 2266226606 6.2 €
Memoires d'un quartier, Tome : Louise Tremblay d'Essiambre Pocket 29/11/2012 - 2266222252 nc.
Perry Rodhan, n°293 : Les mutants de Gaïa K-H Scheer Clark Darlton Pocket 29/11/2012 269 p. 2266226398 7.98 €
Chef Jaspreet Singh Pocket 22/11/2012 320 p. 2266221205 6.84 €
La formation de la Terre du Milieu J-R-R Tolkien Pocket 22/11/2012 640 p. 2266178768 9.31 €
Le cycle de Dune, Tome 1 : Dune Frank Herbert Pocket 22/11/2012 828 p. 2266233203 10.64 €
Le cycle de Dune, Tome 5 : Les hérétiques de dune Frank Herbert Pocket 22/11/2012 500 p. 2266235842 7.7 €
Le cycle de Dune, Tome 6 : La maison des mères Frank Herbert Pocket 22/11/2012 665 p. 2266235850 7.98 €
Le seigneur des anneaux -intégrale- J-R-R Tolkien POCKET 22/11/2012 1390 p. 2266232991 17.01 €
Un chapeau de ciel Terry Pratchett Pocket 22/11/2012 352 p. 2266233017 7.22 €
Agence 13, Tome 3 : Le chat aux yeux jaunes Serge Brussolo Pocket 15/11/2012 320 p. 2266220446 6.37 €
Le chant des âmes Frédérick Rapilly Pocket 15/11/2012 406 p. 2266223755 6.84 €
Le codex Maya Adrian d' Hagé Pocket 15/11/2012 512 p. 2266215221 7.7 €
Le complot Romanov Steve Berry Pocket 15/11/2012 537 p. 2266167731 7.7 €
Le premier jour : Suivi de La première nuit Marc Levy Pocket 15/11/2012 864 p. 2266235028 12.8 €
Le tombeau du phénix François-Xavier Cerniac Pocket 15/11/2012 384 p. 2266223011 6.37 €
Les enfants de la peur Frank Delaney Pocket 15/11/2012 536 p. 2266210459 7.7 €
Crise Kathy Reichs Pocket 08/11/2012 535 p. 2266215264 7.98 €
L'appel de l'ange Guillaume Musso Pocket 08/11/2012 462 p. 2266234994 7.22 €
La petite fille qui aimait la lumière Cyril Massarotto Pocket 08/11/2012 282 p. 2266229877 6.8 €
Le Chevalier noir et la Dame blanche, Tome 2 : La marque du temple Hugues de Queyssac Pocket 08/11/2012 571 p. 2266208012 7.7 €
Le Monde, Les grands procès : 1944-2012, les arénes Pascale Robert-Diard Didier Rioux Pocket 08/11/2012 928 p. 2266231022 14.5 €
Le bonheur selon Confucius : Petit manuel de Sagesse Universelle Dan Yu Pocket 08/11/2012 179 p. 2266211471 6.37 €
Le chat philosophe Kwong Kuen Shan Pocket 08/11/2012 96 p. 2266222090 6.37 €
Le prince de la brume Carlos Ruiz Zafon Pocket 08/11/2012 192 p. 2266212567 6.8 €
Oksa Pollock, Tome 1 : L'inespérée Anne Plichota Cendrine Wolf POCKET 08/11/2012 236 p. 2266233106 7.98 €
Theodore Boone : L'Enlèvement John Grisham Pocket 08/11/2012 224 p. 2266211463 6.37 €
Fautes de français plus jamais Julien Lepers Pocket 25/10/2012 - 226623319X 6.84 €
La pensée Powerpoint : Enquête sur ce logiciel qui rend stupide Franck Frommer Pocket 25/10/2012 312 p. 2266216805 6.84 €
La saga des sorcières, Tome 1 : Le lien maléfique Anne Rice Pocket 25/10/2012 985 p. 2266233157 9.98 €
La saga des sorcières, Tome 2 : L'heure des sorcières Anne Rice Pocket 25/10/2012 798 p. 2266233165 9.31 €
La saga des sorcières, Tome 3 : Taltos Anne Rice Pocket 25/10/2012 630 p. 2266233173 8.65 €
Dans les bras de la lumière Betty J. Eadie Pocket 23/10/2012 160 p. 2266236679 5.42 €
Délivrez-nous du mal Frédéric Dard Pocket 18/10/2012 192 p. 2266226592 5.8 €
Joyaux - Loving Danielle Steel Pocket 18/10/2012 954 p. 2266233181 6.94 €
Manuel de survie dans le monde ou comment faire face aux situations de stress Jacques Salomé Pocket 18/10/2012 149 p. 2266213172 6.94 €
Star Wars, AN -67 : Dark Plagueis James Luceno Pocket 18/10/2012 573 p. 2266228072 9.1 €
Les violeurs d'âme Dominique Maisons Pocket 11/10/2012 600 p. 2266223003 7.7 €
Vertige Franck Thilliez Pocket 11/10/2012 - 226623322X 7.7 €
Warchild Karin Lowachee Pocket 11/10/2012 632 p. 2266203347 9.31 €
1942 Max Gallo Pocket 04/10/2012 - 226622218X 6.84 €
L'élixir du diable Raymond Khoury Pocket 04/10/2012 474 p. 2266229214 7.7 €
Les Borgia Juliette Benzoni Pocket 04/10/2012 160 p. 2266233742 1.47 €
Mots d'excuse : Les parents écrivent aux enseignants Patrice Romain Pocket 04/10/2012 160 p. 2266232274 5.8 €
Mots d'excuse illustré : Les parents écrivent aux enseignants Patrice Romain POCKET 04/10/2012 160 p. 226623305X 6.84 €
Sirènes de Saint Malo Françoise Bourdin Pocket 04/10/2012 - 2266212621 6.46 €
Il était une fois dans la vallée Claude Michelet Pocket 27/09/2012 157 p. 2266215574 5.8 €
La nuit, le jour et toutes les autres nuits Michel Audiard Pocket 27/09/2012 224 p. 2266214934 6.8 €
Les battements du coeur Barbara Wood Pocket 20/09/2012 531 p. 2266214411 7.98 €
Memoires d'un quartier, Tome 2 : Evangéline & Bernadette Louise Tremblay d'Essiambre Pocket 20/09/2012 438 p. 2266222244 10.5 €
Papa was not a Rolling Stone Sylvie Ohayon Pocket 20/09/2012 282 p. 2266223186 6.94 €
Perry Rhodan, n° 291 : Le monde de verre Clark Darlton K-H Scheer Pocket 20/09/2012 302 p. 2266226371 7.98 €
Uglies, Tome 3 : Specials Scott Westerfeld Pocket 20/09/2012 381 p. 2266217003 7.22 €
Uglies, Tome 4 : Extras Scott Westerfeld Pocket 20/09/2012 431 p. 2266228498 7.22 €
Une grande fille Danielle Steel Pocket 20/09/2012 402 p. 2266229206 7.3 €
En compagnie du diable Tess Gerritsen Pocket 13/09/2012 444 p. 2266208640 7.22 €
La fille des Clans, Tome 1 : Balafrée Michel Robert Pocket 13/09/2012 576 p. 2266232983 8.65 €
Starfish Peter Watts Pocket 13/09/2012 477 p. 2266220578 8.65 €
Chroniques de la main courante : Histoires vécues Serge Reynaud Pocket 06/09/2012 341 p. 2266216317 6.37 €
L'Equation Africaine Khadra Yasmina Pocket 06/09/2012 - 2266229346 6.94 €
L'industrie des lettres : Etude sur l'édition littéraire contemporaine Olivier Bessard-Banquy Pocket 06/09/2012 541 p. 2266220276 nc.
La confession d'un enfant du siècle Alfred de Musset Pocket 06/09/2012 336 p. 2266231596 nc.
La vieille dame du riad Fouad Laroui Pocket 06/09/2012 224 p. 2266227262 5.8 €
Le journal de Rutka : Suivi de Ma soeur Rutka et de Les juifs et la Pologne Rutka Pocket 06/09/2012 93 p. 2266198270 5.42 €
Les Petits Vétérinaires, Tome 11 : Mascarade Laurie Halse Anderson Pocket 06/09/2012 110 p. 2266221833 5.04 €
Remède mortel Harlan Coben Pocket 06/09/2012 510 p. 2266226185 7.7 €
Le maitre des illusions Donna Tartt Pocket 04/09/2012 706 p. 2266188739 8.4 €
150 idées reçues sur la science Claudine Gaston Christian Camara Pocket 30/08/2012 435 p. 2266221175 6.37 €
Ces gens qui n'aiment pas ranger Rita Emmett Pocket 30/08/2012 155 p. 2266195441 5.8 €
La fin des haricots San-Antonio Pocket 30/08/2012 213 p. 2266226576 6.2 €
Les chroniques des elfes : Intégrale Jean-Louis Fetjaine Pocket 30/08/2012 635 p. 2266233025 13.21 €
Les mariolles Frédéric Dard Pocket 30/08/2012 256 p. 2266226568 5.8 €
Tous comptes faits... ou presque Stephane Hessel Pocket 30/08/2012 215 p. 2266228528 5.8 €
Les enquêtes de Richard Jury et Melrose Plant : Les mots qui tuent Martha Grimes Pocket 28/08/2012 401 p. 2266235214 6.84 €
En mémoire de la forêt Charles T Powers Pocket 16/08/2012 533 p. 2266222414 7.98 €
La controverse de Valladolid Jean-Claude Carrière Pocket 16/08/2012 252 p. 2266225154 5.8 €
La quatrième incarnation Clark Darlton K-H Scheer Pocket 16/08/2012 277 p. 2266226363 7.98 €
Les chemins de Katmandou Rene Barjavel Pocket 16/08/2012 374 p. 2266236040 6.36 €
Les dames à la licorne René Barjavel Olenka de Veer Pocket 16/08/2012 412 p. 2266236059 6.84 €
Star Wars Les Nuits de Coruscant, Tome 3 : Modèles de force Michael Reaves Pocket 16/08/2012 350 p. 2266226436 8.65 €
A la vie ! Joseph Bialot Pocket 12/07/2012 924 p. 2266219758 10.64 €
Dans le lit des rois et des reines : Intégrale Juliette Benzoni Pocket 12/07/2012 632 p. 2266229001 8.4 €
L'empire barbare, Tome 1 : Thorn le prédateur Gary Jennings Pocket 12/07/2012 857 p. 2266216198 9.31 €
L'empire barbare, Tome 2 : Théodore Le Grand Gary Jennings Pocket 12/07/2012 861 p. 2266216201 9.31 €
La noyée Therese Bohman Pocket 12/07/2012 218 p. 2266216821 6.37 €
La vision de plénitude Clark Darlton K-H Scheer Pocket 12/07/2012 298 p. 2266226355 7.98 €
Polynesia, Tome : L'invasion des formes Jean-Pierre Bonnefoy Pocket 12/07/2012 795 p. 2266200178 9.98 €
Poussière d'homme David Lelait Pocket 12/07/2012 125 p. 226623028X 5.8 €
Koman sa secri émé ? Annie Saumont Pocket 05/07/2012 148 p. 2266164295 5.8 €
L'Aventure amoureuse : De l'amour naissant à l'amour durable Jean-François Vézina Pocket 05/07/2012 254 p. 2266204130 7.69 €
L'enfer de Kathy Kathy O'Beirne Pocket 05/07/2012 288 p. 2266199390 6.84 €
La sphère Gregory Benford Pocket 05/07/2012 540 p. 2266175017 7.98 €
Le visage de l'ennemi Elizabeth George Pocket 05/07/2012 - 2266233750 8.4 €
Miss Sweety Valérie Saubade Pocket 05/07/2012 288 p. 2266218697 6.37 €
Rien ne m'arrête ! Ally O'Brien Pocket 05/07/2012 410 p. 2266214853 7.22 €
Beach House James Patterson Pocket 28/06/2012 350 p. 2266152106 7.22 €
Dialogues II Jorge Luis Borges Osvaldo Ferrari Pocket 28/06/2012 502 p. 2266227629 9.98 €
L'énigme de la diane : De l'iroise aux caraïbes Nicolas Grondin Pocket 28/06/2012 380 p. 2266219707 6.37 €
La fête des paires San-Antonio Pocket 28/06/2012 280 p. 2266226525 5.8 €
Les nuits de coruscant: Rue des ombres Michael Reaves Pocket 28/06/2012 314 p. 2266226428 7.98 €
Perry Rhodan n°288 : La rage des halutiens Clark Darlton K-H Scheer Pocket 28/06/2012 275 p. 2266226347 7.98 €
Si ma tante en avait : Chronique bretonne San-Antonio Pocket 28/06/2012 249 p. 2266226533 6.2 €
Il n'y a pas de petite querelle : Nouveaux contes de la savane Amadou Hampâté Bâ Hélène Heckmann Pocket 22/06/2012 155 p. 2266230735 4.94 €
Apprendre à être heureux : Cahier d'exercices et de recettes Tal Ben-Shahar Pocket 21/06/2012 239 p. 2266221337 6.84 €
La maison des Houches Gilbert Bordes Pocket 21/06/2012 253 p. 2266213210 6.8 €
Memoires d'un quartier, Tome 1 : Laura & Antoine Louise Tremblay d'Essiambre Pocket 21/06/2012 515 p. 2266222236 nc.
Toi contre moi Jenny Downham Pocket 21/06/2012 503 p. 2266213202 7.22 €
Janus Alastair Reynolds Pocket 14/06/2012 888 p. 2266223933 12.8 €
Je ne suis pas un serial killer Dan Wells Pocket 14/06/2012 312 p. 2266221027 6.46 €
La confession John Grisham Pocket 14/06/2012 603 p. 226622011X 8.4 €
Le Cycle d'Ea, Tome 7 : Les Guerriers de Diamant David Zindell Pocket 14/06/2012 704 p. 2266220489 9.98 €
Le septième templier Eric Giacometti Jacques Ravenne Pocket 14/06/2012 604 p. 2266229028 7.98 €
Les révoltés de Cordoue Ildefonso Falcones Pocket 07/06/2012 1085 p. 2266221434 11.31 €
Les vacances d'un serial killer Nadine Monfils Pocket 07/06/2012 252 p. 2266222309 6.2 €
Marie d'en haut Agnès Ledig Pocket 07/06/2012 320 p. 2266226061 6.8 €
Mini-accro du shopping Sophie Kinsella Pocket 07/06/2012 532 p. 2266222163 7.7 €
N'oublie pas que je t'aime Jérôme-Arnaud Wagner Pocket 07/06/2012 352 p. 226621912X 6.8 €
On peut se dire au revoir plusieurs fois David Servan-Schreiber Ursula Gauthier Pocket 07/06/2012 125 p. 2266228978 6.2 €
Quai des ombres : Vingt ans au service des morts Dominique Lecomte Pocket 07/06/2012 243 p. 2266219715 5.89 €
Sors de ce corps, William ! David Safier Pocket 07/06/2012 356 p. 2266214446 6.8 €
Victoria ou le secret des fleurs Vanessa Diffenbaugh Pocket 07/06/2012 480 p. 2266220187 7.7 €
La nuit des temps René Barjavel Pocket 31/05/2012 409 p. 2266230913 7.3 €
Oma, ma grand-mère à moi Peter Hartling Pocket 25/05/2012 144 p. 2266230069 5.8 €
Catastrophe gravitationnelle Clark Darlton K-H Scheer Pocket 24/05/2012 303 p. 2266226339 7.98 €
Délivre-moi Yves Viollier Pocket 24/05/2012 246 p. 226621862X 5.8 €
Fénelon ou le génie méconnu Laurence Devillairs Pocket 24/05/2012 126 p. 2266212672 6.37 €
Itinéraire d'un naturaliste zen : Retour à l'origine Jacques Brosse Pocket 24/05/2012 372 p. 2266229710 8.1 €
La raison dans l'histoire : Introduction à la philosophie et à l'histoire Georg Wilhelm Friedrich Hegel Pocket 24/05/2012 350 p. 2266228943 7.98 €
Les Thébaines, Tome 3 : Brûlant delta : La Seconde Epouse suivie de Les dieux indélicats Jocelyne Godard Pocket 24/05/2012 629 p. 2266216589 10.64 €
Les bras de la nuit Frédéric Dard Pocket 24/05/2012 189 p. 2266226517 6.2 €
Pas mieux Arnaud Le Guilcher Pocket 24/05/2012 317 p. 2266223860 6.8 €
Après Dune, Tome 2 : Le triomphe de Dune Brian Herbert Kevin-J Anderson Pocket 16/05/2012 635 p. 226618945X 9.98 €
Carbon diaries 2015 : Le journal de Laura Brown Saci Lloyd Pocket 16/05/2012 328 p. 2266196146 16.06 €
Le dernier secret Mary Morris Pocket 16/05/2012 440 p. 2266216651 7.22 €
Le guide du toujours jeune père : Bien qu'un peu moins quand même Jean-Louis Festjens Pierre Antilogus Pocket 16/05/2012 304 p. 2266221124 6.37 €
Les chemins de Nelson Mandela : 15 leçons de vie, d'amour et de courage Richard Stengel Pocket 16/05/2012 222 p. 2266208624 6.94 €
Oui... Murielle Renault Pocket 16/05/2012 282 p. 2266217194 6.37 €
Blanc comme la nuit Ann Cleeves Pocket 10/05/2012 442 p. 226621618X 7.22 €
Glacé Bernard Minier Pocket 10/05/2012 736 p. 2266219979 8.4 €
L'étrange voyage de monsieur Daldry Marc Levy Pocket 10/05/2012 352 p. 2266228919 7.3 €
L'été tous les chats s'ennuient Philippe Georget Pocket 10/05/2012 480 p. 2266222104 7.7 €
La mort a ses habitudes : Une enquête de Simon Serrailler Susan Hill Pocket 10/05/2012 475 p. 2266203932 7.22 €
Les seigneurs des runes, Tome 1 : La douleur de la Terre David Farland Pocket 10/05/2012 625 p. 2266230395 3.33 €
Les seigneurs des runes, Tome 6 : Les mondes liés David Farland Pocket 10/05/2012 471 p. 2266221949 7.98 €
Leviatemps Maxime Chattam Pocket 10/05/2012 570 p. 2266207040 7.98 €
Tous complices Nicci French Pocket 10/05/2012 465 p. 2266220381 7.22 €
A l'endroit où elles naissent Diane Peylin Pocket 03/05/2012 416 p. 2266226053 7.32 €
Album de famille Danielle Steel Pocket 03/05/2012 608 p. 2266215310 7.22 €
Au nom du coeur Danielle Steel Pocket 03/05/2012 336 p. 226620680X 5.8 €
Cher Daddy Danielle Steel Pocket 03/05/2012 438 p. 2266228935 6.84 €
Honneur et courage Danielle Steel Pocket 03/05/2012 378 p. 226620677X 6.94 €
J'ai épousé un con : L'histoire de presque toutes les femmes Agnès Bouquet Pocket 03/05/2012 288 p. 2266216236 6.37 €
Le jour où j'ai voté pour Chirac : Le livre qui intéresse 82 % des Français... et ma mère Laurent Bénégui Pocket 03/05/2012 320 p. 2266227122 6.46 €
Les lueurs du sud Danielle Steel Pocket 03/05/2012 420 p. 2266228927 6.36 €
Maintenant et pour toujours Danielle Steel Pocket 03/05/2012 572 p. 2266205080 7.22 €
Marie-Blanche Jim Fergus Pocket 03/05/2012 736 p. 2266192744 8.65 €
L'énigme du parc Martha Grimes Pocket 27/04/2012 - 226622980X 6.84 €
Doggy Bag : Saisons 1-2-3 Philippe Djian Pocket 26/04/2012 765 p. 2266165437 10.64 €
Et l'Egypte s'éveilla, Tome 3 : L'oeil du faucon Christian Jacq Pocket 26/04/2012 400 p. 2266217186 6.94 €
La reine des damnés : Les chroniques des vampires Anne Rice Pocket 26/04/2012 760 p. 2266228889 8.65 €
Manuel de savoir-vivre à l'usage des jeunes filles Jules Gassot Pocket 26/04/2012 218 p. 2266216228 5.8 €
Polynesia, Tome 1 : Les mystères du temps Jean-Pierre Bonnefoy Pocket 26/04/2012 928 p. 226620016X 10.64 €
Amazonia James Rollins Pocket 19/04/2012 595 p. 2266220373 7.7 €
Double reflet Danielle Steel Pocket 19/04/2012 474 p. 2266207571 6.84 €
La Florentine, tome 1 et 2 Juliette Benzoni Pocket 19/04/2012 887 p. 2266227815 8.4 €
La Florentine, tome 3 et 4 Juliette Benzoni POCKET 19/04/2012 824 p. 2266227823 7.98 €
La force de l'optimisme Martin Seligman Pocket 19/04/2012 380 p. 2266198068 7.22 €
Le livre des âmes Glenn Cooper Pocket 19/04/2012 470 p. 2266192175 7.22 €
Le voleur d'ombres Marc Levy Pocket 19/04/2012 288 p. 226622848X 6.84 €
Les maîtres de la gravitation Clark Darlton K-H Scheer Pocket 19/04/2012 300 p. 2266226320 7.98 €
Star Wars : The Old Republic : Revan Drew Karpyshyn Pocket 19/04/2012 384 p. 2266227831 8.65 €
Charlène ne reviendra pas Lisa Unger Pocket 12/04/2012 445 p. 2266221345 7.22 €
Gataca Franck Thilliez Pocket 12/04/2012 603 p. 2266227602 8.4 €
Intime ressemblance Lisa Scottoline Pocket 12/04/2012 541 p. 2266222007 7.22 €
La Ballade de Pern, Intégrale 5 : Anne McCaffrey Pocket 12/04/2012 1472 p. 2266227491 13.21 €
La Roue du Temps, Tome 21 : Le Poignard des rêves Robert Jordan Pocket 12/04/2012 608 p. 2266227548 8.65 €
La Roue du Temps, Tome 22 : Le prince des corbeaux Robert Jordan Pocket 12/04/2012 606 p. 2266227556 8.65 €
Les murmures John Connolly Pocket 12/04/2012 505 p. 2266226002 7.22 €
En CDD à pôle emploi : 183 jours dans les coulisses du système Marion Bergeron Pocket 05/04/2012 221 p. 2266220020 5.8 €
Facebook m'a tuer Thomas Zuber Alexandre Des Isnards Pocket 05/04/2012 246 p. 2266221442 6.37 €
Féroces Robert Goolrick Pocket 05/04/2012 252 p. 2266213164 6.2 €
Ils attendaient l'aurore Claude Michelet Pocket 05/04/2012 346 p. 2266221418 6.84 €
L'appel de l'ange Guillaume Musso Pocket 05/04/2012 462 p. 226622753X 7.7 €
Les Dieux Voyagent Toujours Incognito Gounelle Laurent Pocket 05/04/2012 - 2266219154 7.7 €
Les héritiers de Stonehenge Sam Christer Pocket 05/04/2012 544 p. 2266220675 7.22 €
Maman Isabelle Alonso Pocket 05/04/2012 254 p. 2266219987 6.8 €
Blanche-Neige et autres contes Jakob Grimm Wilhelm Grimm Pocket 22/03/2012 94 p. 2266227513 nc.
Des clientes pour la morgue San-Antonio Pocket 22/03/2012 256 p. 2266226487 6.2 €
Et l'Egypte s'éveilla, Tome 1 : La guerre des clans Christian Jacq Pocket 22/03/2012 378 p. 226621716X 6.94 €
Et l'Egypte s'éveilla, Tome 2 : Le feu du scorpion Christian Jacq Pocket 22/03/2012 381 p. 2266217178 6.94 €
Histoire de ma vie Salomon Maïmon Pocket 22/03/2012 492 p. 2266222120 10.64 €
Les filles de Riyad Rajaa Alsanea Pocket 22/03/2012 352 p. 2266182889 6.84 €
N'ayez pas peur nous sommes là Janine Boissard Pocket 22/03/2012 - 2266221272 6.8 €
African lady ; Australian lady Barbara Wood Pocket 15/03/2012 1335 p. 2266210300 13.21 €
Doux remèdes pour coeurs brisés Cathy Kelly Pocket 15/03/2012 600 p. 2266210785 7.7 €
L'art de l'allaitement maternel La Leche League Pocket 15/03/2012 604 p. 2266211099 7.98 €
Le plus bel âge Joanna Smith Rakoff Pocket 15/03/2012 696 p. 2266218549 8.4 €
Perry Rhodan n°285 : Le retour d'Ernst Heller Clark Darlton K-H Scheer Pocket 15/03/2012 303 p. 2266226312 7.98 €
Savoir maigrir Jean-Michel Cohen Pocket 15/03/2012 347 p. 2266219812 5.89 €
De fièvre et de sang Sire Cedric POCKET 08/03/2012 220 p. 2266212648 7.22 €
La marque du tueur Chris Carter Pocket 08/03/2012 531 p. 2266216791 8.1 €
La mort n'attend pas Peter James Pocket 08/03/2012 679 p. 2266227521 7.98 €
Le Cycle d'Ea, Tome 6 : Le Gardien de la Pierre David Zindell Pocket 08/03/2012 510 p. 2266220470 7.98 €
Meurtres en Acadie Kathy Reichs Pocket 08/03/2012 471 p. 2266229818 7.7 €
Meurtres pour rédemption Karine Giebel POCKET 08/03/2012 988 p. 2266180746 8.65 €
1941 : Le monde prend feu Max Gallo Pocket 01/03/2012 405 p. 2266222171 6.84 €
Artemisia : Un duel pour l'immortalité Alexandra Lapierre Pocket 01/03/2012 670 p. 2266225146 9.31 €
Charly 9 Jean Teulé Pocket 01/03/2012 - 2266220152 5.89 €
D'espoir et de promesse Françoise Bourdin Pocket 01/03/2012 348 p. 2266212613 6.37 €
L'excessive Alexandra Lapierre Pocket 01/03/2012 280 p. 226621246X 6.46 €
Le hongrois tout de suite ! Georges Kassai Thomas Szende Pocket 01/03/2012 159 p. 2266228447 9.1 €
Le vieux qui ne voulait pas fêter son anniversaire Jonas Jonasson Pocket 01/03/2012 506 p. 2266218522 8.1 €
Les Thébaines, Tome 2 : Pièges et parfums du Nil : Vents et Parfums suivis de L'ombre du Prince Jocelyne Godard Pocket 01/03/2012 597 p. 2266216570 10.64 €
Les lits en diagonale Anne Icart Pocket 01/03/2012 119 p. 2266204327 6.2 €
Les nouvelles chroniques d'un médecin légiste Michel Sapanet Pocket 01/03/2012 315 p. 2266219138 5.89 €
Pain amer Marie-Odile Ascher Pocket 01/03/2012 475 p. 2266219944 7.7 €
Faute de preuves Harlan Coben Pocket 25/02/2012 468 p. 2266221329 7.7 €
Les os du diable Kathy Reichs Pocket 17/02/2012 475 p. 2266229826 7.7 €
Femmes de dictateur Diane Ducret Pocket 16/02/2012 439 p. 2266220047 7.22 €
La Miaulemort Daniel Cario Pocket 16/02/2012 610 p. 2266212605 7.98 €
Les délices d'Alexandrine Jean Anglade Pocket 16/02/2012 346 p. 2266204335 6.37 €
Méditer, c'est se soigner Frédéric Rosenfeld Pocket 16/02/2012 477 p. 2266184067 7.22 €
Arche Stephen Baxter Pocket 09/02/2012 764 p. 2266223941 10.64 €
Autopsies Kathy Reichs Pocket 09/02/2012 446 p. 2266220101 7.22 €
Cérémonie Richard Montanari Pocket 09/02/2012 433 p. 2266216295 7.7 €
Déluge Stephen Baxter Pocket 09/02/2012 732 p. 2266208128 10.64 €
La prophétie Charlemagne Steve Berry Pocket 09/02/2012 696 p. 2266204009 7.98 €
Les nuits de coruscant, tome 1 : Crépuscule Jedi Michael Reaves Pocket 09/02/2012 345 p. 226622641X 8.65 €
Star Wars - Dark Maul : L'ombre du chasseur T1 Michael Reaves James Luceno Pocket 09/02/2012 476 p. 2266226444 9.1 €
Star Wars, Tome 1 : La menace fantôme : Suivi d'une nouvelle inédite : Fin de partie Terry Brooks George Lucas Collectif Pocket 09/02/2012 416 p. 2266227483 8.65 €
Albert Nobbs George Moore Pocket 02/02/2012 - 2266227807 1.5 €
Chasse de tête Marie La Fragette Pocket 02/02/2012 219 p. 2266216856 nc.
Des amies de toujours Jennifer Weiner Pocket 02/02/2012 454 p. 2266220217 7.22 €
L'imposture climatique ou la fausse écologie Claude Allègre Pocket 02/02/2012 350 p. 2266212478 6.46 €
La prime Janet Evanovich Pocket 02/02/2012 318 p. 2266226126 5.8 €
La situation des esprits : art, littérature, politique, vie Jean-Philippe Domecq Eric Naulleau Pocket 02/02/2012 254 p. 2266219723 8.65 €
Le pays des grottes sacrées tome 6 2e partie Jean M Auel Pocket 02/02/2012 - 2266216694 7.7 €
Pourquoi les hommes veulent du sexe et les femmes de l'amour ? : Les explications scientifiques derrière les vérités toutes simples Barbara Pease Allan Pease Pocket 02/02/2012 377 p. 2266219901 6.8 €
Pourquoi j'ai mangé mon père Roy Lewis Pocket 24/01/2012 192 p. 2266224107 4.9 €
Affaire de coeur Danielle Steel Pocket 19/01/2012 350 p. 2266224190 6.46 €
La coupe d'or Belva Plain Pocket 19/01/2012 632 p. 2266218557 7.7 €
Les Petits Vétérinaires, Tome 9 : Un obstacle de taille Laurie Halse Anderson Pocket 19/01/2012 119 p. 2266221817 4.94 €
Les filles du pasteur Muller Marie Kuhlmann Pocket 19/01/2012 382 p. 2266212583 6.46 €
Moi, Dora Maar Nicole Avril Pocket 19/01/2012 244 p. 2266229680 6.2 €
Objectif Zéro-sale-con : Petit guide de survie face aux connards, despotes, enflures, harceleurs, trous du cul et autres personnes nuisibles qui sévis Robert Sutton Pocket 19/01/2012 274 p. 2266225758 6.84 €
Quatre soldats français, Tome 2 : La femme au gant rouge Jean Vautrin Pocket 19/01/2012 436 p. 2266153943 7.7 €
Quatre soldats français, Tome 3 : La grande zigouille Jean Vautrin Pocket 19/01/2012 445 p. 2266204343 7.69 €
L'année de la moule San-Antonio Pocket 12/01/2012 315 p. 2266226452 5.8 €
Le marteau du passé Clark Darlton K-H Scheer Pocket 12/01/2012 306 p. 2266226290 7.98 €
Les Thébaines, Tome 1 : Le temple d'éternité Jocelyne Godard Pocket 12/01/2012 661 p. 2266216562 10.64 €
T'es beau, tu sais ! San-Antonio Pocket 12/01/2012 318 p. 2266226460 5.8 €
Accès direct à la plage Jean-Philippe Blondel Pocket 05/01/2012 120 p. 2266221256 5.8 €
Chroniques de Ford County John Grisham Pocket 05/01/2012 320 p. 226622140X 6.94 €
G229 Jean-Philippe Blondel Pocket 05/01/2012 158 p. 2266219146 5.8 €
Jane Eyre Charlotte Brontë Pocket 05/01/2012 760 p. 2266226118 3.71 €
Le fils Michel Rostain Pocket 05/01/2012 150 p. 2266216325 6.2 €
Le prix à payer Joseph Fadelle Pocket 05/01/2012 254 p. 2266212192 6.37 €
Marina Carlos Ruiz Zafon Pocket 05/01/2012 288 p. 2266212540 6.37 €
Nouvelles histoires à faire rougir Marie Gray Pocket 05/01/2012 216 p. 2266213938 5.89 €
Philippe Sollers : L'art du sublime Aliocha Wald Lasowski Pocket 05/01/2012 190 p. 2266220292 8.65 €
Sauvez votre argent ! : Mon régime santé pour vos économies Marc Fiorentino Pocket 05/01/2012 158 p. 226622008X 6.2 €
Ce que savait le chat Martha Grimes Pocket 01/01/2012 478 p. 2266219081 7.22 €
La patience de l'araignée Andrea Camilleri Pocket 01/01/2012 245 p. 2266176293 6.37 €
Les Chroniques de Thomas Covenant, Tome 6 : Le pouvoir de l'or blanc Stephen Donaldson Pocket 01/01/2012 761 p. 2266203959 10.64 €
La part des ténèbres Stephen King Pocket 23/12/2011 541 p. 2266227912 7.22 €
La Terre Sacrée Wood Barbara Pocket 02/12/2011 - 2266227572 7.22 €
Le harcèlement moral : La violence perverse au quotidien Marie-France Hirigoyen Pocket 02/12/2011 251 p. 2266222775 5.41 €
Les annales du Disque-Monde, Tome 9 : Eric Terry Pratchett Pocket 02/12/2011 151 p. 2266211897 5.8 €
Accepter et vivre ses émotions : Les tremblements intérieurs Daniel Dufour Pocket 01/12/2011 158 p. 2266181319 6.37 €
Ceux de Ker-Askol Hervé Jaouen Pocket 01/12/2011 346 p. 2266204440 6.37 €
Chemins spirituels : Petite anthologie des plus beaux textes tibétains Matthieu Ricard Pocket 01/12/2011 381 p. 2266215558 6.84 €
L'essence des gnostiques Bernard Simon Pocket 01/12/2011 285 p. 2266162799 7.7 €
La Ballade de Pern, Intégrale 4 : Anne McCaffrey Pocket 01/12/2011 760 p. 2266219405 9.98 €
Le livre des morts tibétain : La Grande Libération par l'écoute dans les états intermédiaires Padmasambhava Pocket 01/12/2011 1050 p. 2266205269 14.35 €
Viral Kathy Reichs Pocket 01/12/2011 477 p. 2266215256 7.7 €
Le tumulte des vagues Anita Shreve Pocket 17/11/2011 320 p. 2266206443 6.37 €
Les hasards nécessaires Jean-François Vézina Pocket 17/11/2011 282 p. 2266181262 6.84 €
Les intellectuels faussaires : Le triomphe médiatique des experts en mensonge Pascal Boniface Pocket 17/11/2011 229 p. 2266223550 7.3 €
Agence 13, Tome 2 : Ceux d'en-bas Serge Brussolo Pocket 10/11/2011 316 p. 2266208470 6.37 €
La trilogie du mal Maxime Chattam Pocket 10/11/2011 1438 p. 2266223089 nc.
Le Cycle d'Ea, Tome 5 : Le jade noir David Zindell Pocket 10/11/2011 570 p. 2266220462 8.65 €
Le cortège de la mort Elizabeth George Pocket 10/11/2011 1016 p. 2266215213 9.8 €
Les derniers jours de Paris Nicolas d' Estienne d'Orves Pocket 10/11/2011 535 p. 2266200208 7.7 €
Les enfants de la nuit Frank Delaney Pocket 10/11/2011 565 p. 2266210440 7.7 €
Dragon rouge Thomas Harris Pocket 09/11/2011 413 p. 2266208918 6.37 €
Mamie Dan Steel Danielle Pocket 09/11/2011 - 226620775X 6.37 €
Les brumes de Riverton Kate Morton Pocket 04/11/2011 695 p. 226622512X 8.1 €
Et si c'était vrai... Suivi de vous revoir Marc Lévy POCKET 03/11/2011 569 p. 2266218816 nc.
Et ça vous fait rire ? Hugleikur Dagsson Pocket 03/11/2011 192 p. 2266216554 6.27 €
Fille de rouge Isabelle Alonso Pocket 03/11/2011 180 p. 2266199994 5.8 €
L'oeil de Pâques Jean Teulé Pocket 03/11/2011 156 p. 2266220098 5.8 €
La fille de papier Guillaume Musso Pocket 03/11/2011 477 p. 2266221477 7.03 €
Le Chat Zen Kwong Kuen Shan Pocket 03/11/2011 94 p. 2266221965 6.37 €
Le fabuleux héritage de l'Egypte Christiane Desroches Noblecour Pocket 03/11/2011 336 p. 2266223313 11.31 €
Le secret des découvertes Christiane Desroches Noblecour Pocket 03/11/2011 303 p. 2266223321 11.31 €
Là où j'irai Gayle Forman Pocket 03/11/2011 238 p. 2266214403 6.2 €
Offrir l'espoir : Témoignage Danielle Steel Florence Bertrand Pocket 03/11/2011 121 p. 2266215663 5.42 €
Stiletto blues à Hollywood Lauren Weisberger Pocket 03/11/2011 509 p. 2266216538 7.7 €
Theodore Boone : Enfant et justicier John Grisham Pocket 03/11/2011 221 p. 2266211455 6.37 €
Les annales du Disque-Monde : Mortimer Terry Pratchett Pocket 21/10/2011 318 p. 2266226177 6.37 €
Terminus Elicius Karine Giebel Pocket 21/10/2011 254 p. 2266223720 6.8 €
Une douce vengeance Elizabeth George Pocket 21/10/2011 573 p. 2266223542 7.22 €
Au jour le jour Danielle Steel Pocket 20/10/2011 11 p. 2266216902 6.37 €
La Combe aux Oliviers Françoise Bourdon Pocket 20/10/2011 262 p. 226621053X 6.46 €
La reine des délices Sarah Addison Allen Pocket 20/10/2011 306 p. 2266203673 nc.
Parle-moi, j'ai des choses à te dire Jacques Salomé Pocket 20/10/2011 255 p. 2266207563 6.84 €
Le Cycle d'Ea, Tome 4 : L'Enigme du Maîtreya David Zindell Pocket 13/10/2011 434 p. 2266197592 7.7 €
Le concile de fer China Miéville Pocket 13/10/2011 731 p. 2266186353 10.64 €
Le dernier oracle James Rollins Pocket 13/10/2011 541 p. 2266219413 7.69 €
Le syndrome E Franck Thilliez Pocket 13/10/2011 280 p. 2266211722 7.7 €
Les Univers multiples, Tome 3 : Origine Stephen Baxter Pocket 13/10/2011 766 p. 2266189816 10.64 €
La vengeance dans la peau Robert Ludlum Pocket 12/10/2011 830 p. 226621022X 9.31 €
Birmane Christophe Ono-dit-Biot Pocket 06/10/2011 411 p. 2266219502 nc.
Carnets de guerre 1914-1918 : Un témoin lucide Edouard Coeurdevey Pocket 06/10/2011 1234 p. 2266218514 13.2 €
Hiéroglyphes William Dietrich Pocket 06/10/2011 508 p. 2266194305 7.98 €
L'homme qui valait 35 milliards Nicolas Ancion Pocket 06/10/2011 285 p. 2266205285 5.8 €
La face cachée des banques : scandales et révélations sur les milieux financiers Eric Laurent Pocket 06/10/2011 312 p. 2266204297 6.84 €
Les Tresors de la Vie Plain Belva Pocket 06/10/2011 - 2266223399 7.7 €
Mano a Mano Bourdin Françoise Pocket 06/10/2011 - 2266203320 6.37 €
Q Pierre Bisiou Pocket 06/10/2011 126 p. 2266192191 5.8 €
Tous les rêves du monde Theresa Révay Pocket 06/10/2011 570 p. 2266202553 8.1 €
Un poule tous, tous poule un ! Christian Jolibois Pocket 06/10/2011 49 p. 2266199765 4.56 €
Une éthique sans compromis Charles Péguy Pocket 06/10/2011 347 p. 2266199358 7.7 €
Les annales du Disque-Monde : Le dernier continent Terry Pratchett Pocket 20/09/2011 397 p. 2266212028 7.7 €
Douze questions a Jean Beaufret à propos de Martin Heidegger Eryck de Rubercy Dominique Le Buhan Pocket 15/09/2011 96 p. 2266204017 7.32 €
La ballade du souvenir Therese Fowler Pocket 15/09/2011 507 p. 2266210548 nc.
Le bal des poignards, Tome 2 : Juliette Benzoni Pocket 15/09/2011 - 2266212443 6.8 €
Les codes inconscients de la séduction : Comprendre son interlocuteur grâce à la synergologie Philippe Turchet Pocket 15/09/2011 254 p. 2266204114 6.84 €
Les trois mousquetaires Alexandre Dumas Jacques Goimard Pocket 15/09/2011 - 2266219553 nc.
Sans un adieu Harlan Coben Pocket 15/09/2011 576 p. 2266216643 8.1 €
Les annales du Disque-Monde, Tome 24 : Le cinquième éléphant Terry Pratchett Pocket 14/09/2011 438 p. 2266212044 8.1 €
Cérémonies barbares Elizabeth George Pocket 10/09/2011 573 p. 2266223712 7.7 €
Box 21 Anders Roslund Börge Hellström Pocket 08/09/2011 462 p. 226621442X 7.7 €
Gheritarish : Les Terres de Sang Michel Robert Pocket 08/09/2011 573 p. 2266202065 8.65 €
La Roue du Temps, Tome 19 : Le carrefour des ombres Robert Jordan Pocket 08/09/2011 507 p. 2266206893 7.98 €
La Roue du Temps, Tome 20 : Secrets Robert Jordan Pocket 08/09/2011 478 p. 2266206907 7.98 €
Le musée perdu Steve Berry Pocket 08/09/2011 502 p. 2266170872 7.7 €
Vision aveugle Peter Watts Pocket 08/09/2011 438 p. 2266197568 7.7 €
L'imposture des mots Yasmina Khadra Pocket 04/09/2011 148 p. 2266204939 5.8 €
Renaissance Steel Danielle Pocket 03/09/2011 - 2266207253 5.8 €
A la recherche du soi : Volume 3, Le Vedanta et l'inconscient Arnaud Desjardins Pocket 01/09/2011 441 p. 2266203029 7.7 €
Balle de match Harlan Coben Pocket 01/09/2011 405 p. 2266207628 6.84 €
Du sang sur le green Harlan Coben Pocket 01/09/2011 409 p. 2266207652 6.84 €
Innocent Harlan Coben Pocket 01/09/2011 517 p. 2266207679 7.7 €
Je Suis l'Homme le Plus Beau du Monde Massarotto Cyril Pocket 01/09/2011 - 2266214888 nc.
Juste un regard Harlan Coben Pocket 01/09/2011 483 p. 2266207687 8.1 €
La Religion Tim Willocks Pocket 01/09/2011 950 p. 2266189573 9.8 €
La compagnie des menteurs Karen Maitland Pocket 01/09/2011 665 p. 2266207520 7.98 €
La guerre des boutons : Roman de ma douzième année Louis Pergaud Pocket 01/09/2011 285 p. 2266223208 nc.
La malédiction des Templiers Raymond Khoury Pocket 01/09/2011 646 p. 2266213954 7.98 €
La science est le défi du XXIe siècle Claude Allègre Pocket 01/09/2011 347 p. 2266200607 nc.
La solitude du docteur March Geraldine Brooks Pocket 01/09/2011 382 p. 2266213962 6.84 €
Mara Pingeot Mazarine Pocket 01/09/2011 - 2266211080 8.1 €
Mauvaise base Harlan Coben Pocket 01/09/2011 444 p. 2266207695 7.22 €
Notes sur la philosophie en France au XIXe siècle : De Maine de Biran à Bergson Jean Beaufret Pocket 01/09/2011 156 p. 2266197037 7.32 €
Peur noire Harlan Coben Pocket 01/09/2011 413 p. 2266219685 7.22 €
Promets-moi Harlan Coben Pocket 01/09/2011 507 p. 2266207717 7.7 €
Rupture de contrat Harlan Coben Pocket 01/09/2011 348 p. 2266207725 6.37 €
Temps mort Harlan Coben Pocket 01/09/2011 376 p. 2266207733 6.84 €
Une chance de trop Harlan Coben Pocket 01/09/2011 25 p. 2266207741 7.22 €
Sur la route de Madison Robert James Waller Pocket 28/08/2011 184 p. 2266222597 4.94 €
L'audace de vivre Arnaud Desjardins Véronique Loiseleur Pocket 24/08/2011 250 p. 2266224123 6.37 €
Le salaire de la peur Georges Arnaud Pocket 24/08/2011 186 p. 2266222570 4.2 €
Pour une vie reussie, un amour reussi Arnaud Desjardins Pocket 24/08/2011 345 p. 2266223402 6.84 €
La femme la plus riche du Yorkshire Fouad Laroui Pocket 18/08/2011 157 p. 226622154X nc.
Le treizième conte Diane Setterfield Pocket 18/08/2011 - 2266222554 8.1 €
Les annales du Disque-Monde, Tome 15 : Le guet des orfèvres Terry Pratchett Pocket 18/08/2011 408 p. 2266211951 7.22 €
Une Annee Chez les Français Laroui Fouad Pocket 18/08/2011 - 2266218654 6.2 €
127 heures Aron Ralston Pocket 11/08/2011 381 p. 2266219111 7.3 €
La Maison des Jours Heureux Steel Danielle Pocket 11/08/2011 - 2266206842 7.22 €
Le Klone et moi Danielle Steel Pocket 11/08/2011 - 2266207911 5.8 €
Une femme en blanc Jeanine Boissard Pocket 05/08/2011 371 p. 226622333X 6.8 €
Les annales du Disque-Monde : La verité Terry Pratchett Pocket 23/07/2011 469 p. 2266212052 8.4 €
Les enfants de Mars Gregory Benford Pocket 13/07/2011 499 p. 2266174991 7.98 €
150 idées reçues sur l'histoire Pocket Pocket 07/07/2011 445 p. 2266210513 6.37 €
Ce crétin de prince charmant ; mes amies, mes amours, mais encore ? : 2 romans en un volume Agathe Colombier-Hochberg Pocket 07/07/2011 478 p. 2266217321 nc.
D'un aussi grand amour Denis Gombert Jean-François Gombert Pocket 07/07/2011 156 p. 2266179926 5.7 €
Encore une belle journée Annie Saumont Pocket 07/07/2011 154 p. 2266209906 4.94 €
Je n'ai pas dansé depuis longtemps Hugo Boris Pocket 07/07/2011 441 p. 2266208659 7.03 €
Le Roman de la Croix, Tome 1 : Le Coeur de la Croix David Camus Pocket 07/07/2011 598 p. 2266212400 8.1 €
Le Roman de la Croix, Tome 2 : Morgennes David Camus Pocket 07/07/2011 684 p. 2266155768 7.7 €
Le Roman de la Croix, Tome 3 : Crucifère David Camus Pocket 07/07/2011 542 p. 2266155776 7.7 €
Le baiser dans la nuque Hugo Boris Pocket 07/07/2011 213 p. 2266221531 6.37 €
Le talisman cathare Jean-Luc Aubarbier Pocket 07/07/2011 254 p. 2266197401 6.37 €
Mémoires de guerre / Tome 3 : Le salut : 1944-1946 Charles de Gaulle Pocket 07/07/2011 629 p. 2266222945 7.7 €
Les annales du Disque-Monde, Tome 16 : Accros du roc Terry Pratchett Pocket 29/06/2011 411 p. 226621196X 7.22 €
Cultiver l'intelligence relationnelle : Comprendre et maîtriser notre relation aux autres pour vivre mieux Daniel Goleman Pocket 16/06/2011 570 p. 2266203185 7.98 €
L'orpheline de Meyssac Sylvie Anne Pocket 16/06/2011 258 p. 2266202642 nc.
Les cendres d'Angela Frank McCourt Pocket 16/06/2011 - 2266205277 7.7 €
Les demoiselles de Provence Patrick de Carolis Pocket 16/06/2011 628 p. 226621747X 8.4 €
Les oiseaux se cachent pour mourir Mccullough Pocket 16/06/2011 876 p. 2266211242 9.97 €
Rendez-vous à Venise Elizabeth Adler Pocket 16/06/2011 - 2266213970 7.3 €
Rouges Rivières Alain Dubos Pocket 16/06/2011 331 p. 2266192558 7.3 €
Une femme libre Danielle Steel Pocket 16/06/2011 - 2266216899 6.8 €
Joyaux Steel Danielle Pocket 11/06/2011 - 2266206834 6.84 €
50° au-dessous de zéro Kim Stanley Robinson Pocket 09/06/2011 758 p. 2266210793 9.31 €
60 jours et après Kim Stanley Robinson Pocket 09/06/2011 - 2266210807 9.31 €
Alors, heureuse ? Jennifer Weiner Pocket 09/06/2011 - 2266204289 7.98 €
L'issue Olen Steinhauer Pocket 09/06/2011 - 2266203754 7.7 €
Le symbole retrouvé Eric Giacometti Pocket 09/06/2011 - 2266218883 7.3 €
Les 40 signes de la pluie Kim Stanley Robinson Pocket 09/06/2011 506 p. 2266183559 7.98 €
Les seigneurs des runes, Tome 5 : Les fils du Chêne David Farland Pocket 09/06/2011 533 p. 2266212699 7.98 €
Lux tenebrae Eric Giacometti Pocket 09/06/2011 - 2266211714 7.7 €
Potens Ingrid Desjours Pocket 09/06/2011 - 2266213199 7.3 €
Tigres de guerre David Gibbins Pocket 09/06/2011 - 226620808X 7.7 €
Train d'enfer pour ange rouge Franck Thilliez Pocket 09/06/2011 436 p. 2266204998 6.37 €
Qui aime quand je t'aime ? Catherine Bensaid Jean-Yves Leloup Pocket 07/06/2011 214 p. 2266211439 5.8 €
Au-delà des pyramides Douglas Kennedy Pocket 01/06/2011 370 p. 2266210564 7.3 €
Crême du soir, espoir Beth Harbison Pocket 01/06/2011 314 p. 2266211676 7.22 €
Et plus si affinités Josie Lloyd Emlyn Rees Pocket 01/06/2011 477 p. 2266214209 7.22 €
Gargantua : Texte intégral en ancien français et français moderne François Rabelais Pocket 01/06/2011 485 p. 2266220314 nc.
Je veux vivre Jenny Downham Pocket 01/06/2011 - 2266200046 6.84 €
L'épopée de Gengis Khan, Tome 3 : La chevauchée vers l'empire Conn Iggulden Pocket 01/06/2011 604 p. 2266202634 7.98 €
La Maison de la Nuit, Tome 5 : Traquée Kristin Cast Pocket 01/06/2011 376 p. 2266202669 15.2 €
La beauté du mal Rebecca James Pocket 01/06/2011 313 p. 2266207024 nc.
Le Nounou Holly Petersen Pocket 01/06/2011 478 p. 2266181025 7.32 €
Le coeur à l'ouvrage Jean-Claude Kaufmann Pocket 01/06/2011 - 2266213857 7.3 €
Le prince des nuages Christophe Galfard Pocket 01/06/2011 323 p. 2266214470 7.22 €
Les amants de la terre sauvage Katherine Scholes Pocket 01/06/2011 437 p. 2266211501 7.7 €
Lexi Smart a la mémoire qui flanche Sophie Kinsella Pocket 01/06/2011 413 p. 226619870X 7.7 €
Noir négoce Olivier Merle Pocket 01/06/2011 475 p. 2266215280 7.5 €
Nos (pires) meilleures vacances Agathe Colombier Hochberg Pocket 01/06/2011 252 p. 2266208586 6.8 €
Pirates Michael Crichton Pocket 01/06/2011 - 2266211404 7.7 €
Sâdhus : Un voyage initiatique chez les ascètes de l'Inde Patrick Levy Pocket 01/06/2011 475 p. 2266203991 7.22 €
Une nouvelle introduction à l'art du XXe siècle : L'Art du Contemporain III suivie de L'Art du Contemporain est terminée Jean-Philippe Domecq Pocket 01/06/2011 253 p. 2266212664 7.79 €
Les annales du Disque-Monde, Tome 8 : Au guet ! Terry Pratchett Pocket 31/05/2011 350 p. 2266211889 6.94 €
Retour à l'essentiel Arnaud Desjardins Pocket 25/05/2011 439 p. 2266220748 7.22 €
Aide-toi et le ciel... Yves Viollier Pocket 19/05/2011 - 226620453X 5.8 €
Chebika suivi de retour à Chebika 1990 : Changements dans un village du Sud tunisien Jean Duvignaud Pocket 19/05/2011 598 p. 2266218360 10.64 €
L'anneau d'atlantide Juliette Benzoni Pocket 19/05/2011 - 2266202154 6.8 €
L'apprentissage de l'imperfection Tal Ben-Shahar Pocket 19/05/2011 315 p. 2266210572 7.7 €
L'apprentissage du bonheur Tal Ben-Shahar Pocket 19/05/2011 250 p. 2266219383 7.3 €
Les Borgia Alexandre Dumas Pocket 19/05/2011 277 p. 2266217089 1.99 €
Les Gardiens de Ga'Hoole, Tome 14 : Les bannis Kathryn Lasky Pocket 19/05/2011 249 p. 2266194712 7.98 €
Les filles de l'Olympe, Tome 3 : Prisonnier des Enfers Elena Kedros Pocket 19/05/2011 261 p. 2266213865 9.98 €
Les secrets du poney-club, Tome 2 : Une nouvelle famille Stacy Gregg Pocket 19/05/2011 211 p. 2266207814 5.42 €
Lucrèce Borgia Victor Hugo Pocket 19/05/2011 155 p. 2266217097 1.43 €
Fraise et chocolat : Tome 1 Aurélia Aurita Pocket 18/05/2011 144 p. 2266219278 6.5 €
Après Dune, Tome 1 : Les chasseurs de Dune Brian Herbert Kevin J. Anderson Patrick Dusoulier Pocket 12/05/2011 668 p. 2266183257 9.97 €
La promesse des ténèbres Maxime Chattam Pocket 12/05/2011 505 p. 226620338X 8.1 €
Le prix du péché Brian Freeman Pocket 12/05/2011 564 p. 2266214438 nc.
Les Chroniques des Elfes, Tome 3 : Le sang des elfes Jean-Louis Fetjaine Pocket 12/05/2011 277 p. 2266213253 7.22 €
Plus fort que le doute Nicci French Pocket 12/05/2011 350 p. 2266206974 6.37 €
Retour à rédemption Patrick Graham Pocket 12/05/2011 438 p. 2266202170 8.1 €
Conjuration Casanova Eric Giacometti Jacques Ravenne Pocket 06/05/2011 476 p. 2266212931 7.7 €
Les annales du Disque-Monde, Tome 3 : La huitième fille Terry Pratchett Pocket 06/05/2011 222 p. 2266211838 5.8 €
A la recherche du soi : Volume 2, Au-delà du Moi Arnaud Desjardins Pocket 05/05/2011 - 2266203010 7.7 €
Claude Lévi-Strauss, une introduction Frédéric Keck Pocket 05/05/2011 378 p. 2266210718 8.65 €
Dernière sortie avant l'autoroute Craig Ferguson Pocket 05/05/2011 404 p. 2266207539 7.7 €
Dr. House : Le livre officiel Ian Jackman Pocket 05/05/2011 498 p. 2266217305 nc.
En moins bien Arnaud Le Guilcher Pocket 05/05/2011 277 p. 2266207016 6.8 €
La fille sauvage Jim Fergus Pocket 05/05/2011 460 p. 2266217453 7.7 €
Le bouclier de Sainte Odile Yves-Olivier Muhlheim Pocket 05/05/2011 349 p. 2266216848 nc.
Le voleur d'ombres Marc Levy Pocket 05/05/2011 304 p. 2266216767 7.3 €
Les jumelles de Highgate Audrey Niffenegger Pocket 05/05/2011 538 p. 2266203738 8.1 €
Ludwig Wittgenstein, une introduction Chiara Pastorini Pocket 05/05/2011 378 p. 226618380X 8.65 €
Mille femmes blanches : Les carnets de May Dodd Jim Fergus Pocket 05/05/2011 506 p. 2266217461 7.7 €
Neige en avril ; Les pécheurs de coquillages Rosamunde Pilcher Pocket 05/05/2011 800 p. 2266217062 7.03 €
Raiponce & autres contes Jacob Grimm Wilhelm Grimm Pocket 05/05/2011 93 p. 2266217100 nc.
Tant qu'il y aura des matchs Emmanuelle Poinger Pocket 05/05/2011 158 p. 2266207490 nc.
Dans la peau Nicci French Pocket 01/05/2011 530 p. 2266204637 7.7 €
Imhotep, l'inventeur de l'éternité : Le secret de la pyramide Christian Jacq Pocket 21/04/2011 572 p. 226621084X 8.1 €
L'héritière des Montauban Frédérick d' Onaglia Pocket 21/04/2011 382 p. 2266203665 6.46 €
L'oasis secrète Paul Sussman Pocket 21/04/2011 734 p. 2266211498 8.45 €
Le génie de l'intuition : Intelligence et pouvoirs de l'inconscient Gerd Gigerenzer Pocket 21/04/2011 345 p. 2266200275 7.98 €
Les huiles essentielles pour votre santé Guy Roulier Pocket 21/04/2011 572 p. 2266197029 7.98 €
Loin de la rivière Nathalie de Broc Pocket 21/04/2011 373 p. 2266199420 6.8 €
Nietzsche : pages essentielles Friedrich Nietzsche Pocket 21/04/2011 222 p. 2266194321 7.7 €
Sashenka Simon Montefiore Pocket 21/04/2011 732 p. 2266211102 7.79 €
Daemon Daniel Suarez Pocket 14/04/2011 668 p. 2266211684 7.5 €
Et surtout ne te retourne pas... Lisa Unger Pocket 14/04/2011 501 p. 2266212745 8.1 €
L'empreinte des amants John Connolly Pocket 14/04/2011 441 p. 2266207008 7.7 €
La trilogie de Wielstadt : Intégrale Pierre Pevel Pocket 14/04/2011 750 p. 2266212958 11.2 €
Le petit chaperon rouge et autres contes Charles Perrault Pocket 14/04/2011 152 p. 2266217313 1.43 €
Les os du diable Kathy Reichs Pocket 14/04/2011 476 p. 2266209914 nc.
Un ange sans pitié Robert Crais Pocket 13/04/2011 466 p. 2266204874 7.22 €
Halo l'amour interdit Alexandra Adornetto Pocket 07/04/2011 319 p. 2266212710 17.5 €
Jésus m'aime David Safier Pocket 07/04/2011 346 p. 2266203649 6.8 €
La Reine de lumière, Tome 2 : Terra incognita Mireille Calmel Pocket 07/04/2011 505 p. 2266210874 7.7 €
La deuxième vie de Fatima Joanne et Gerry Dryansky Pocket 07/04/2011 260 p. 226621134X 6.37 €
Loup, y es-tu ? Janine Boissard Pocket 07/04/2011 372 p. 2266203940 7.7 €
Quand le lion a faim Wilbur Smith Pocket 07/04/2011 700 p. 2266204432 8.4 €
Quitte Rome ou meurs Romain Sardou Pocket 07/04/2011 158 p. 2266204238 6.2 €
Une fois ne compte pas Marie Charrel Pocket 07/04/2011 220 p. 2266204300 nc.
Une journée de plus Fabio Volo Pocket 07/04/2011 315 p. 2266206958 nc.
La fille de papier Guillaume MUSSO Pocket 31/03/2011 376 p. 9782266214827 nc.
Les annales du Disque-Monde, Tome 12 : Mécomptes de fées Terry Pratchett Pocket 30/03/2011 312 p. 2266211927 6.37 €
Les annales du Disque-Monde, Tome 6 : Trois soeurcières Terry Pratchett Pocket 30/03/2011 287 p. 2266211862 5.79 €
L'héritage John Grisham Pocket 22/03/2011 343 p. 2266204815 7.3 €
Chestnut Hill, Tome 8 : Des souvenirs pour la vie Lauren Brooke Pocket 17/03/2011 163 p. 2266200674 8.74 €
La couleur du mensonge Jayne Ann Krentz Pocket 17/03/2011 368 p. 2266206435 nc.
La terre des promesses Merice Briffa Pocket 17/03/2011 510 p. 226620260X nc.
Les secrets de Summer Street Cathy Kelly Pocket 17/03/2011 503 p. 2266204084 7.7 €
Un baiser, l'addition ! Heather MacDowell Rose MacDowell Pocket 17/03/2011 443 p. 2266198238 7.7 €
Une famille française : Tome 2 : Le crépuscule des patriarches Jean-Paul Malaval Pocket 17/03/2011 468 p. 2266214810 7.3 €
La chambre des morts Franck Thilliez Pocket 15/03/2011 341 p. 2266205013 6.37 €
Pour toujours... jusqu'à demain Sarah Dessen Pocket 14/03/2011 460 p. 2266217399 17.1 €
Et Après Guillaume Musso Pocket 10/03/2011 200 p. 9782266210720 nc.
Je reviens te chercher Guillaume Musso Pocket 10/03/2011 409 p. 2266210734 nc.
Parce que je t'aime Guillaume Musso Pocket 10/03/2011 313 p. 2266210742 nc.
Que serais-je sans toi ? Guillaume Musso Pocket 10/03/2011 363 p. 9782266210751 nc.
Sauve-moi Guillaume Musso Pocket 10/03/2011 403 p. 2266210769 nc.
Seras-tu là Guillaume Musso Pocket 10/03/2011 336 p. 2266210777 nc.
Anticancer : Les gestes quotidiens pour la santé du corps et de l'esprit David Servan-Schreiber Pocket 03/03/2011 441 p. 2266215795 8.1 €
Cent pages blanches Cyril Massarotto Pocket 03/03/2011 284 p. 9782266204248 6.8 €
Ces chrétiens qu'on assassine René Guitton Pocket 03/03/2011 316 p. 2266200534 6.84 €
J'ai décidé de vivre Philippe Croizon Pocket 03/03/2011 183 p. 226616953X 5.8 €
L'eau à la bouche Anne Bert Pocket 03/03/2011 151 p. 2266188526 5.3 €
L'enfant des cimetières Sire Cédric Pocket 03/03/2011 534 p. 2266203657 7.7 €
L'épopée de Gengis Khan, Tome 2 : Le seigneur des steppes Conn Iggulden Pocket 03/03/2011 507 p. 2266202626 7.7 €
La saga des anges déchus, tome 1 : Hush, hush Becca Fitzpatrick Pocket 03/03/2011 382 p. 2266210491 7.7 €
Les coeurs félés Gayle Forman Pocket 03/03/2011 222 p. 2266208063 6.2 €
Longues peines Jean Teulé Pocket 03/03/2011 186 p. 226617925X 5.8 €
Miral Rula Jebreal Pocket 03/03/2011 348 p. 2266211358 nc.
Plaidoyer pour l'adoption affective : Un don d'ingérence Catherine Enjolet Pocket 03/03/2011 114 p. 2266216244 4.56 €
Sans laisser d'adresse Harlan Coben Pocket 03/03/2011 404 p. 2266210823 7.22 €
To kill or not to kill : This Will Kill You ; A Home Away From Home Alfred Hitchcock Pocket 03/03/2011 91 p. 226621554X 4.94 €
Uglies, Tome 1 : Uglies Scott Westerfeld Pocket 03/03/2011 427 p. 2266214268 7.03 €
Uglies, Tome 2 : Pretties Scott Westerfeld Pocket 03/03/2011 391 p. 2266214276 7.22 €
Buzz-moi Aurélia Aurita Pocket 01/03/2011 142 p. 226620629X nc.
La Malédiction de Marco Polo James Rollins Pocket 01/03/2011 667 p. 2266206923 8.1 €
La mort leur va si bien Peter James Pocket 01/03/2011 501 p. 2266204394 7.22 €
La voix du loup Xavier-Marie Bonnot Pocket 01/03/2011 346 p. 2266210025 nc.
Tu ne m'oublieras jamais Peter James Pocket 01/03/2011 601 p. 2266211668 8.1 €
Villa numéro 2 Danielle Steel Pocket 23/02/2011 - 226620761X 7.03 €
L'écrivain Yasmina Khadra Pocket 19/02/2011 285 p. 2266204920 6.8 €
Les Dames a la Licorne Barjavel Rene Pocket 19/02/2011 416 p. 2266217488 nc.
A la recherche du soi : Volume 1, Adhyatma Yoga Arnaud Desjardins Pocket 17/02/2011 436 p. 2266203002 7.7 €
Casse-toi ! : Combien de jeunes chassés de chez eux parce qu'ils sont homos ? Jean-Marie Périer Pocket 17/02/2011 119 p. 2266207032 nc.
Faire l'amour de manière divine Barry Long Pocket 17/02/2011 250 p. 2266162977 6.37 €
Heartland, Tome 38 : Une rencontre inattendue Lauren Brooke Pocket 17/02/2011 123 p. 2266193600 4.56 €
La malédiction des Trencavel : cycle de Raimon-Roger, Tome 2 : Quand la louve s'éveillera Bernard Mahoux Pocket 17/02/2011 475 p. 2266195328 7.22 €
La malédiction des Trencavel : cycle de Raimon-Roger, Tome 3 : L'immolation Bernard Mahoux Pocket 17/02/2011 503 p. 2266195336 7.22 €
Le temps d'une chute Claire Wolniewicz Pocket 17/02/2011 252 p. 2266209825 nc.
Les dix mille désirs de l'Empereur José Frèches Pocket 17/02/2011 380 p. 2266204475 7.3 €
Là où les chemins nous mènent Belva Plain Pocket 17/02/2011 369 p. 2266208098 nc.
Marie-Madeleine, Tome 2 : Le livre de l'amour Kathleen McGowan Pocket 17/02/2011 603 p. 2266179691 nc.
Petite mère Henriette Bernier Pocket 17/02/2011 248 p. 2266202596 nc.
Sexus economicus : Le grand tabou des affaires Yvonnick Denoël Pocket 17/02/2011 312 p. 2266208888 7.3 €
Au-delà du mal Shane Stevens Pocket 10/02/2011 888 p. 226618959X 8.65 €
Autremonde, Tome 8 : Les Dieux de lumière Tad Williams Pocket 10/02/2011 796 p. 2266213148 11.2 €
La Reine de lumière, Tome 1 : Elora Mireille Calmel Pocket 10/02/2011 350 p. 2266204254 7.3 €
La colonie des ténèbres Jérôme Bucy Pocket 10/02/2011 341 p. 2266211587 6.65 €
La fille de sa mère Jennifer Weiner Pocket 10/02/2011 504 p. 226620369X 8.1 €
Le livre des morts Glenn Cooper Pocket 10/02/2011 506 p. 2266192167 7.7 €
Les Univers multiples, Tome 2 : Espace Stephen Baxter Pocket 10/02/2011 730 p. 2266189808 10.64 €
Les annales du Disque-Monde, Tome 27 : Ronde de nuit Terry Pratchett Pocket 10/02/2011 472 p. 2266212702 8.4 €
Les héritiers du mal Chelsea Cain Pocket 10/02/2011 374 p. 226620694X 6.84 €
Sang d'encre au 36 Hervé Jourdain Pocket 10/02/2011 379 p. 2266202987 6.94 €
Anatomie d'un crime Elizabeth George Pocket 04/02/2011 763 p. 9782266206549 7.98 €
La solution intérieure : Vers une nouvelle médecine du corps et de l'esprit Thierry Janssen Pocket 04/02/2011 441 p. 2266207431 8.1 €
De poussière et de sang Marcus Malte Pocket 03/02/2011 375 p. 226620887X nc.
Drôle de mariage Madeleine Wickham Sophie Kinsella Pocket 03/02/2011 411 p. 9782266191777 7.3 €
Evernight, Tome 1 : Claudia Gray Pocket 03/02/2011 305 p. 2266196626 14.95 €
Immobile Valérie Sigward Pocket 03/02/2011 86 p. 2266154052 4.84 €
L'homme de l'ombre Robert Harris Pocket 03/02/2011 377 p. 2266183532 7.3 €
Le vieil homme qui m'a appris la vie Mitch Albom Pocket 03/02/2011 285 p. 9782266202817 7.3 €
Les Aventures de Boro, Reporter Photographe, Tome 8 : La dame de Jérusalem Dan Franck Jean Vautrin Pocket 03/02/2011 471 p. 9782266205306 7.7 €
Les Gardiens de Ga'Hoole, Tome 13 : Le sixième royaume Kathryn Lasky Pocket 03/02/2011 250 p. 2266188534 7.79 €
Vaincre la Codependance Beattie Melody Pocket 28/01/2011 - 2266217046 6.84 €
Pour solde de tout compte Elizabeth George Pocket 27/01/2011 526 p. 2266206648 7.22 €
La disparue de colliton park Minette Walters Pocket 26/01/2011 571 p. 2266211021 7.69 €
Guerres du monde émergé, Tome 2 : Les deux combattantes Licia Troisi Pocket 20/01/2011 487 p. 2266205757 18.34 €
Influenza, N° 1 : Les ombres du ciel Eric Marchal Pocket 20/01/2011 505 p. 226620307X 7.32 €
Inoubliable Tatiana Paullina Simons Pocket 20/01/2011 913 p. 2266204521 nc.
La loi du ghetto : Enquète dans les banlieures françaises Luc Bronner Pocket 20/01/2011 264 p. 2266208632 6.37 €
La nuit de l'amandier Françoise Bourdon Pocket 20/01/2011 375 p. 2266201824 6.8 €
Le baby-sitter Jean-Philippe Blondel Pocket 20/01/2011 248 p. 9782266206464 6.37 €
Les secrets de l'immortel Nicolas Flamel, Tome 1 : L'alchimiste Michael Scott Pocket 20/01/2011 395 p. 226621392X 7.22 €
Marina Carlos Ruiz Zafon Pocket 20/01/2011 331 p. 2266213024 18.05 €
Passeurs d'ombre Marie Kuhlmann Pocket 20/01/2011 438 p. 2266202650 nc.
Pour tout l'or du monde Marc Fiorentino Pocket 20/01/2011 376 p. 9782266209861 6.84 €
7 Richard Montanari Pocket 13/01/2011 533 p. 2266194429 7.7 €
A l'ombre du mal Robert Crais Pocket 13/01/2011 398 p. 2266203118 7.7 €
L'infiltré John Grisham Pocket 13/01/2011 512 p. 9782266198523 7.32 €
L'épopée de Gengis Khan, Tome 1 : Le loup des plaines Conn Iggulden Pocket 13/01/2011 523 p. 2266202618 8.1 €
La Roue du Temps, Tome 17 : Le coeur de l'hiver Robert Jordan Pocket 13/01/2011 446 p. 2266197517 7.22 €
La Roue du Temps, Tome 18 : Perfidie Robert Jordan Pocket 13/01/2011 433 p. 2266197525 7.22 €
La conspiration du temple Steve Berry Pocket 13/01/2011 662 p. 2266194283 7.98 €
La maison du Maître Martha Grimes Pocket 13/01/2011 430 p. 2266208896 7.7 €
La vallée endormie Michel Peyramaure Pocket 13/01/2011 339 p. 2266183281 nc.
Le monde en 2025 Nicole Gnesotto Giovanni Grevi Pocket 13/01/2011 411 p. 2266182951 nc.
Les ailes du sphinx Andrea Camilleri Pocket 13/01/2011 252 p. 9782266206914 6.37 €
Les colonnes du ciel, Tome 1 : La saison des loups Bernard Clavel Pocket 13/01/2011 298 p. 2266215140 nc.
Les colonnes du ciel, Tome 2 : La lumière du lac Bernard Clavel Pocket 13/01/2011 345 p. 2266215159 nc.
Les colonnes du ciel, Tome 3 : La femme de guerre Bernard Clavel Pocket 13/01/2011 269 p. 2266215167 nc.
Les colonnes du ciel, Tome 4 : Marie Bon Pain Bernard Clavel Pocket 13/01/2011 292 p. 2266215175 nc.
Les colonnes du ciel, Tome 5 : Compagnons du Nouveau Monde Bernard Clavel Pocket 13/01/2011 303 p. 2266215183 nc.
Les annales du Disque-Monde, Tome 11 : Le faucheur Terry Pratchett Pocket 08/01/2011 313 p. 2266211919 6.84 €
Les annales du Disque-Monde, Tome 7 : Pyramides Terry Pratchett Pocket 08/01/2011 312 p. 2266211870 7.22 €
Les sirènes de Bagdad Yasmina Khadra Pocket 08/01/2011 317 p. 9782266204989 6.8 €
Laisse-moi te raconter... les chemins de la vie Jorge Bucay Pocket 07/01/2011 277 p. 2266211331 6.2 €
Les annales du Disque-Monde : Carpe jugulum Terry Pratchett Pocket 07/01/2011 411 p. 2266212036 7.7 €
Les annales du Disque-Monde, Tome 1 : La huitième couleur Terry Pratchett Pocket 07/01/2011 266 p. 2266211811 6.37 €
Les annales du Disque-Monde, Tome 19 : Pieds d'argile Terry Pratchett Pocket 07/01/2011 405 p. 2266211994 8.1 €
Arrêter de fumer tout de suite Allen Carr Pocket 06/01/2011 230 p. 2266206508 8.1 €
Bréviaire à l'usage des princes et des pauvres gens : Sentences des XIVe et XV siècles Joël Blanchard Pocket 06/01/2011 187 p. 2266197142 7.98 €
Folies de femmes Valentine Abé Ninon de B. Clara Basteh Pocket 06/01/2011 244 p. 2266196669 nc.
Kolyma Tom Rob Smith Pocket 06/01/2011 504 p. 2266208551 7.5 €
L'hypothèse des forêts Laurence Albert Pocket 06/01/2011 222 p. 226619822X nc.
L'olympe des infortunes Yasmina Khadra Pocket 06/01/2011 187 p. 2266205293 5.8 €
La chute de John Stone Iain Pears Pocket 06/01/2011 916 p. 2266203681 9.8 €
La haine de soi : Le refus d'être juif Theodor Lessing Pocket 06/01/2011 286 p. 2266207555 9.1 €
La lionne du boulevard Alexandra Lapierre Pocket 06/01/2011 471 p. 2266214160 6.94 €
La méthode simple pour les femmes qui veulent arrêter de fumer : Arrêter de fumer sans prendre du poids, c'est possible ! Allen Carr Pocket 06/01/2011 288 p. 2266211218 8.1 €
Le cahier bleu James A. Levine Pocket 06/01/2011 248 p. 2266205056 6.37 €
Les Petits Vétérinaires, Tome 1 : Chiots en danger Laurie Halse Anderson Pocket 06/01/2011 148 p. 2266197878 5.3 €
Les Petits Vétérinaires, Tome 3 : Une seconde chance Laurie Halse Anderson Pocket 06/01/2011 136 p. 2266197894 4.94 €
Marche arrière Valérie Saubade Pocket 06/01/2011 217 p. 9782266193276 nc.
Pour comprendre les pratiques religieuses des juifs des chrétiens et des musulmans Isabelle Lévy Pocket 06/01/2011 540 p. 2266206478 7.7 €
Un goût de cendres Elizabeth George Pocket 31/12/2010 718 p. 2266116576 8.1 €
Les annales du Disque-Monde, Tome 2 : Le huitième sortilège Terry Pratchett Pocket 29/12/2010 255 p. 226621182X 6.37 €
Les annales du Disque-Monde, Tome 18 : Masquarade Terry Pratchett Pocket 23/12/2010 377 p. 2266211986 7.7 €
La trame conjugale : Analyse du couple par son linge Jean-Claude Kaufmann Pocket 03/12/2010 257 p. 2266215450 nc.
Girl David Thomas Pocket 02/12/2010 374 p. 2266203835 6.27 €
La coupable idéale Judith McNaught Pocket 02/12/2010 527 p. 2266183362 nc.
La guerre des clans : La quête d'Etoile de Feu Erin Hunter Pocket 02/12/2010 476 p. 2266205242 17.24 €
Les amants du fleuve rouge Paul Couturiau Pocket 02/12/2010 440 p. 2266157922 nc.
Savoir gérer son stress en toutes circonstances Charly Cungi Pocket 02/12/2010 311 p. 2266194739 7.3 €
Les annales du Disque-Monde, Tome 21 : Va-t-en-guerre Terry Pratchett Pocket 20/11/2010 444 p. 226621201X 7.69 €
Le maître du jeu John Grisham Pocket 19/11/2010 536 p. 2266204750 7.22 €
Voyage fatal Kathy Reichs Pocket 19/11/2010 500 p. 2266214179 8.1 €
Bernard Blier, un homme façon puzzle Jean-Philippe Guerand Pocket 18/11/2010 690 p. 2266198513 nc.
Heartland, Tome 37 : Tous en piste ! Lauren Brooke Pocket 18/11/2010 123 p. 2266193597 4.56 €
La Catin, Tome 2 : La Châtelaine Iny Lorentz Pocket 18/11/2010 538 p. 2266176188 7.22 €
La Catin, Tome 3 : Le testament de la catin Lorentz Iny Pocket 18/11/2010 635 p. 2266176196 7.22 €
La chanson de Molly Malone Yves Viollier Pocket 18/11/2010 272 p. 2266172697 nc.
La maladie a-t-elle un sens ? : Enquête au-delà des croyances Thierry Janssen Pocket 18/11/2010 414 p. 2266188267 7.7 €
La saga des Romanov : De Pierre le Grand à Nicolas II Jean des Cars Pocket 18/11/2010 444 p. 2266191659 7.3 €
La vengeance du Nil Wilbur Smith Pocket 18/11/2010 791 p. 2266191896 9.1 €
Les Gardiens de Ga'Hoole, Tome 12 : L'arbre d'or Kathryn Lasky Pocket 18/11/2010 234 p. 2266188518 7.79 €
Les filles de Roz-Kelenn Hervé Jaouen Pocket 18/11/2010 370 p. 2266183001 6.37 €
Les filles de l'Olympe, Tome 2 : Le pouvoir des rêves Elena Kedros Pocket 18/11/2010 2720 p. 2266189913 9.97 €
Les pouvoirs du silence : Retrouver la beauté, la créativité et l'harmonie John Lane Pocket 18/11/2010 188 p. 226618931X 6.8 €
Les soeurs Deblois, Tome 4 : Le demi-frère Louise Tremblay d'Essiambre Pocket 18/11/2010 476 p. 2266197339 8.1 €
Un mariage en décembre Anita Shreve Pocket 18/11/2010 410 p. 2266198556 6.94 €
Une semaine en hiver Marcia Willett Pocket 18/11/2010 530 p. 2266150286 nc.
Sourire en coin Nicci French Pocket 11/11/2010 334 p. 2266204661 6.37 €
Agence 13 : Dortoir interdit Serge Brussolo Pocket 10/11/2010 345 p. 2266206990 6.37 €
Cérémonies barbares Elizabeth George Pocket 10/11/2010 176 p. 2266206559 nc.
La bible de Darwin James Rollins Pocket 10/11/2010 600 p. 2266185489 8.1 €
Las Vegas baby Brian Freeman Pocket 10/11/2010 499 p. 2266194798 7.32 €
Les annales du Disque-Monde : Procrastination Terry Pratchett Pocket 10/11/2010 444 p. 2266203495 7.7 €
Mortels péchés Elizabeth George Pocket 10/11/2010 657 p. 2266204262 8.1 €
Morts sur la lande Ann Cleeves Pocket 10/11/2010 431 p. 2266194771 7.32 €
Sourcellerie : Les annales du disque monde Terry Pratchett Pocket 10/11/2010 286 p. 2266211854 6.84 €
Contes érotiques de Noël Françoise Rey Pocket 04/11/2010 222 p. 2266184091 nc.
Darwin et le christianisme : Vrais et faux débats François Euvé Pocket 04/11/2010 187 p. 2266195522 8.1 €
Gilles Deleuze, une introduction Arnaud Bouaniche Pocket 04/11/2010 350 p. 2266210904 8.4 €
La Princesse de Montpensier Madame de Lafayette Pocket 04/11/2010 83 p. 2266201859 1.55 €
Le murmure des pierres Jenni Mills Pocket 04/11/2010 713 p. 2266196464 8.65 €
Les Ateliers de Dame Alix, Tome 6 : Les triomphes Jocelyne Godard Pocket 04/11/2010 508 p. 2266186736 7.69 €
Lettres du père Noël J-R-R Tolkien Baillie Tolkien Pocket 04/11/2010 112 p. 9782266200004 7.7 €
Moi, Hannibal... Giovanni Brizzi Pocket 04/11/2010 404 p. 2266196650 7.7 €
Phenicia Alexandre Najjar Pocket 04/11/2010 189 p. 2266193368 nc.
Regarde-moi quand je t'aime Bruno Godard Pocket 04/11/2010 245 p. 2266188941 nc.
Société Protectrice des Monstres, Tome 3 : Alerte aux Trolls Matthew Morgan David Sinden Guy Macdonald Pocket 04/11/2010 190 p. 2266190083 10.4 €
Un Noël de rêve Glenn Beck Pocket 04/11/2010 190 p. 2266201794 nc.
La Chartreuse de Parme Stendhal Pocket 03/11/2010 569 p. 9782266214339 4.56 €
La firme John Grisham Pocket 03/11/2010 475 p. 9782266204729 5.8 €
A Bon Port Steel Danielle Pocket 21/10/2010 528 p. 2266207881 7.7 €
Au pays de Dieu Douglas Kennedy Pocket 21/10/2010 340 p. 2266199188 6.94 €
Contes de la bécasse et autres contes de chasseurs Guy de Maupassant Pocket 21/10/2010 270 p. 2266213911 nc.
J'étais médecin dans les tranchées : 2 août 1914-14 juillet 1919 Louis Maufrais Martine Veillet Pocket 21/10/2010 374 p. 2266198289 7.3 €
L'Ange Gardien Steel Danielle Pocket 21/10/2010 192 p. 2266206818 5.42 €
L'année brouillard Michelle Richmond Pocket 21/10/2010 533 p. 2266186159 8.1 €
L'homme qui voulait vivre sa vie Douglas Kennedy Pocket 21/10/2010 496 p. 2266194607 7.7 €
La poursuite du bonheur Douglas Kennedy Pocket 21/10/2010 773 p. 226619920X 8.1 €
Le jardin des secrets Kate Morton Pocket 21/10/2010 700 p. 2266204092 8.1 €
Le marchand d'indulgences Brenda Vantrease Pocket 21/10/2010 662 p. 2266193708 nc.
Les Désarrois de Ned Allen Douglas Kennedy Pocket 21/10/2010 528 p. 2266100289 nc.
Les amants du Saint-Laurent Alain Dubos Pocket 21/10/2010 412 p. 2266204459 6.65 €
Les annales du Disque-Monde, Tome 14 : Nobliaux et sorcières Terry Pratchett Pocket 21/10/2010 380 p. 2266211943 7.22 €
Les éditocrates : Ou comment parler de (presque) tout en racontant (vraiment) n'importe quoi Mona Chollet Olivier Cyran Sébastien Fontenelle Pocket 21/10/2010 210 p. 2266208543 6.37 €
Parce que c'était écrit... Janine Boissard Pocket 21/10/2010 254 p. 2266199757 6.37 €
Paris retrouvé Danielle Steel Pocket 21/10/2010 350 p. 2266203983 6.84 €
Piège nuptial Douglas Kennedy Pocket 21/10/2010 250 p. 2266192825 6.8 €
Quitter le monde Douglas Kennedy Pocket 21/10/2010 693 p. 226619996X 8.4 €
Rendez-vous Danielle Steel Pocket 21/10/2010 536 p. 2266207938 8.1 €
Rien ne va plus Douglas Kennedy Pocket 21/10/2010 442 p. 2266199234 7.3 €
Saveur du temps : Chroniques du temps qui passe Jean d' Ormesson Pocket 21/10/2010 312 p. 2266203312 6.84 €
Un hiver à Madrid C-J Sansom Pocket 21/10/2010 880 p. 2266198580 8.45 €
Une relation dangereuse Douglas Kennedy Pocket 21/10/2010 533 p. 2266199242 7.7 €
Vivre le cancer du sein ... autrement : Un message d'espoir pour toutes les femmes Thierry Janssen Pocket 21/10/2010 157 p. 2266172654 5.8 €
Deux minutes chrono Robert Crais Pocket 19/10/2010 462 p. 2266204904 8.1 €
Deuils de miel Franck Thilliez Pocket 14/10/2010 340 p. 9782266205009 7.3 €
Fractures Franck Thilliez Pocket 14/10/2010 441 p. 2266203908 7.7 €
Fraise et chocolat 2 Aurélia Aurita Pocket 14/10/2010 190 p. 2266200569 nc.
L'anneau de Moebius Franck Thilliez Pocket 14/10/2010 596 p. 2266205048 7.7 €
L'exil des anges Gilles Legardinier Pocket 14/10/2010 342 p. 2266196332 7.7 €
La Bête Börge Hellström Anders Roslund Pocket 14/10/2010 432 p. 2266199447 7.7 €
La forêt des ombres Franck Thilliez Pocket 14/10/2010 365 p. 2266205021 6.84 €
La mémoire fantôme Franck Thilliez Pocket 14/10/2010 441 p. 226620503X 7.3 €
Les Univers multiples, Tome 1 : Temps Stephen Baxter Pocket 14/10/2010 697 p. 2266177184 9.98 €
Là où vivent les peurs James Siegel Pocket 14/10/2010 470 p. 2266183575 7.22 €
Train d'enfer pour Ange rouge Franck Thilliez Pocket 14/10/2010 432 p. 9782266164825 nc.
Comprendre l'art moderne Fabrice Midal Pocket 07/10/2010 250 p. 2266202448 nc.
Côté crimes : 36 affaires qui ont passionné la France Jacques Pradel Pocket 07/10/2010 340 p. 2266199684 7.3 €
Ecrivain cherche place concierge Nicolas Ancion Pocket 07/10/2010 119 p. 2266193953 nc.
Fraise et chocolat Aurélia Aurita Pocket 07/10/2010 142 p. 2266200550 nc.
Journal de combat : Missionnaire à Madagascar Père Pedro Pocket 07/10/2010 212 p. 226618864X 6.84 €
L'énigme des tueurs en série Daniel Zagury Florence Assouline Pocket 07/10/2010 190 p. 226619335X 6.8 €
La guerre des clans, Tome 6 : Une sombre prophétie Erin Hunter Pocket 07/10/2010 368 p. 2266208179 6.84 €
La madone des enterrements Sophie Kinsella Pocket 07/10/2010 347 p. 9782266191760 7.3 €
La première nuit Marc Levy Pocket 07/10/2010 487 p. 9782266203364 7.7 €
Le voile de la peur Samia Shariff Pocket 07/10/2010 405 p. 2266177818 7.3 €
Les P'tites Poules : Album collector 2 Christian Jolibois Pocket 07/10/2010 184 p. 2266187783 15.1 €
Les P'tites Poules : Charivari chez les P'tites Poules Christian Jolibois Christian Heinrich Pocket 07/10/2010 40 p. 2266149083 4.9 €
Les P'tites Poules : La petite poule qui voulait voir la mer Christian Jolibois Christian Heinrich Pocket 07/10/2010 46 p. 2266151185 4.9 €
Les racines de l'Ordre Noir, Tome 2 : Cathares Patrick Weber Pocket 07/10/2010 402 p. 2266192531 7.22 €
Les types comme moi Dominique Fabre Pocket 07/10/2010 175 p. 2266176722 5.7 €
Nom de jeune fille Françoise Bourdin Pocket 07/10/2010 406 p. 2266188208 7.3 €
Pitikok, Tome 4 : Pitikok et le poisson à moustaches Christian Jolibois Christian Heinrich Pocket 07/10/2010 24 p. 2266203371 6.5 €
Pourquoi la poésie ? : L'héritage d'Orphée Fabrice Midal Pocket 07/10/2010 248 p. 226618976X 8.65 €
Proposition perverse Guillaume Perrotte Pocket 07/10/2010 151 p. 2266163418 nc.
Un oeil bleu pâle Louis Bayard Pocket 07/10/2010 597 p. 2266182269 nc.
La femme de papier Françoise Rey Pocket 04/10/2010 249 p. 2266211781 5.8 €
Ao, l'homme ancien : L'Odyssée du dernier Neandertal Marc Klapczynski Pocket 16/09/2010 280 p. 9782266197014 6.84 €
Contes philosophiques du monde entier : Le Cercle des menteurs 2 Jean-Claude Carrière Pocket 16/09/2010 435 p. 2266191322 7.7 €
Deadline, dernière limite Jean-Pierre Jourdan Pocket 16/09/2010 734 p. 2266198335 8.65 €
La malédiction des Louves Gilbert Bordes Pocket 16/09/2010 221 p. 2266194143 6.2 €
La revanche John Grisham Pocket 16/09/2010 334 p. 2266194860 6.65 €
La synergologie : Comprendre son interlocuteur à travers sa gestuelle Philippe Turchet Pocket 16/09/2010 380 p. 2266185020 7.3 €
Le cercle des menteurs : Contes philosophiques du monde entier Jean-Claude Carrière Pocket 16/09/2010 435 p. 2266209728 7.7 €
Le signe Raymond Khoury Pocket 16/09/2010 523 p. 9782266202206 7.7 €
Les soeurs Deblois, Tome 3 : Anne Louise Tremblay-D'Essiambre Pocket 16/09/2010 544 p. 2266197320 7.7 €
Lettres à Claudia Jorge Bucay Pocket 16/09/2010 239 p. 2266197061 5.89 €
Un coeur étranger Jean Anglade Pocket 16/09/2010 310 p. 226619397X 6.37 €
L'idéaliste John Grisham Pocket 09/09/2010 548 p. 2266204742 8.1 €
La Prophétie du royaume de Lur, Tome 2 : Le retour du sorcier Karen Miller Pocket 09/09/2010 796 p. 226619755X 10.64 €
La mort en face Cody McFadyen Pocket 09/09/2010 600 p. 2266181777 7.79 €
La paille dans l'oeil de Dieu Larry Niven Jerry Pournelle Pocket 09/09/2010 697 p. 2266181157 nc.
Peur noire Harlan Coben Pocket 09/09/2010 413 p. 9782266196369 nc.
Sjambak : Et autres récits Jack Vance Pocket 09/09/2010 379 p. 226617374X 7.22 €
Un petit reconstituant Elizabeth George Pocket 09/09/2010 197 p. 2266206672 5.41 €
Autoportrait d'un reporter Ryszard Kapuscinski Pocket 02/09/2010 150 p. 2266194070 5.79 €
Français, je vous haime : Ce que les rosbifs pensent vraiment des froggies Stephen Clarke Pocket 02/09/2010 246 p. 9782266206273 6.46 €
Juste un coin de ciel bleu Gilbert Bordes Pocket 02/09/2010 248 p. 2266176668 nc.
Ker violette Karine Fougeray Pocket 02/09/2010 246 p. 2266160214 nc.
La dame en bleu Javier Sierra Pocket 02/09/2010 431 p. 2266200038 nc.
La pyramide perdue Jean-Michel Thibaux Pocket 02/09/2010 373 p. 2266163116 nc.
La vie amoureuse des fées Franck Spengler Pocket 02/09/2010 120 p. 2266190318 nc.
Le dernier match John Grisham Patrick Berthon Pocket 02/09/2010 - 2266204866 nc.
Le livre d'Hanna Geraldine Brooks Pocket 02/09/2010 498 p. 2266200615 7.7 €
Le marketing et son histoire : Ou le mythe de Sisyphe réinventé Thierry Maillet Pocket 02/09/2010 379 p. 2266203207 9.5 €
Le monde selon Fawad Andrea Busfield Pocket 02/09/2010 343 p. 2266200267 nc.
Le professeur de piano Janice Y. K. Lee Pocket 02/09/2010 439 p. 2266200151 nc.
Le temps et le monde : De Heidegger à Aristote François Fédier Pocket 02/09/2010 373 p. 2266202979 9.97 €
Mangez-le si vous voulez Jean Teulé Pocket 02/09/2010 114 p. 9782266198462 5.04 €
Missak Didier Daeninckx Pocket 02/09/2010 278 p. 2266200259 6.8 €
Mon autobiographie spirituelle Dalaï-Lama Sofia Stril-Rever Pocket 02/09/2010 283 p. 2266197096 6.65 €
Victor Hugo : La révolte d'un géant Jean-Côme Noguès Pocket 02/09/2010 331 p. 2266199633 6.65 €
Voyage Steel Danielle Pocket 25/08/2010 384 p. 2266207784 7.22 €
Non coupable John Grisham Pocket 24/08/2010 695 p. 2266204718 7.7 €
Le crime de Mayfair Martha Grimes Pocket 23/08/2010 283 p. 2266211250 5.42 €
Malveillance Steel Danielle Pocket 23/08/2010 - 2266206869 nc.
Le visage de l'ennemi Elizabeth George Pocket 20/08/2010 639 p. 2266116568 7.03 €
Un nid de mensonges Elizabeth George Pocket 20/08/2010 817 p. 2266206664 7.98 €
Ces gens qui se sentent coupables : La culpabilité : ne plus la subir, ne plus en souffrir Lewis Engel Tom Ferguson Pocket 19/08/2010 346 p. 226619545X nc.
Ces gens qui tirent vos ficelles : Comment échapper aux manipulateurs Harriet-B Braiker Pocket 19/08/2010 283 p. 226619867X 6.27 €
Ces gens qui veulent plaire à tout prix Harriet-B Braiker Pocket 19/08/2010 443 p. 2266195468 7.03 €
Copie parfaite Andreas Eschbach Pocket 19/08/2010 180 p. 2266198645 11.88 €
La conspiration Trevayne Robert Ludlum Pocket 19/08/2010 477 p. 2266210203 7.7 €
Le Sceau des Maîtres Gilles Legardinier Pocket 19/08/2010 294 p. 2266196170 7.3 €
Tels des astres éteints Léonora Miano Pocket 19/08/2010 376 p. 2266193759 7.22 €
La loi du plus faible John Grisham Pocket 11/08/2010 382 p. 2266204777 7.3 €
Le meurtre de la falaise Elizabeth George Pocket 11/08/2010 888 p. 2266206583 8.4 €
Les échos du passé Danielle Steel Pocket 11/08/2010 407 p. 226620792X 7.32 €
L'Ile au trésor Robert Louis Stevenson Pocket 30/07/2010 420 p. 226621120X 3.9 €
Les désarrois de Ned Allen Douglas Kennedy Pocket 30/07/2010 528 p. 2266199226 7.7 €
L.A. requiem Robert Crais Pocket 22/07/2010 539 p. 2266202839 8.1 €
40 leçons pour découvrir le grec ancien : Et la Grèce ancienne Juliette Le Maoult Anne Quesemand Pocket 21/07/2010 445 p. 226621165X 9.31 €
L'engrenage John Grisham Pocket 07/07/2010 471 p. 2266204793 7.22 €
Les agneaux du Seigneur Yasmina Khadra Pocket 07/07/2010 214 p. 2266204912 6.2 €
L'enfant Océan Jean-Claude Mourlevat Pocket 06/07/2010 160 p. 2266203223 4.9 €
Encore un jour sans massacre Théo Diricq Pocket 01/07/2010 96 p. 2266194259 nc.
Ernest Ahmed Dich Pocket 01/07/2010 188 p. 2266196235 nc.
Jake Ransom et l'ombre du roi squelette James Rollins Pocket 01/07/2010 299 p. 2266182722 13.5 €
Je ne suis pas sorcier ! Pie Tshibanda Pocket 01/07/2010 125 p. 2266188283 nc.
Je te vois Gregg Andrew Hurwitz Pocket 01/07/2010 443 p. 2266200747 7.5 €
La Ballade de Pern, Tome 1 : Anne McCaffrey Pocket 01/07/2010 1235 p. 2266204416 12.16 €
La petite fille en haut de l'escalier Judith Kelman Pocket 01/07/2010 411 p. 2266193775 7.03 €
Le puits Amélie Marie Kuhlmann Pocket 01/07/2010 308 p. 2266191926 nc.
Le samouraï qui pleure Laurent Scalese Pocket 01/07/2010 408 p. 9782266166331 nc.
Le touriste Olen Steinhauer Pocket 01/07/2010 571 p. 2266182250 7.7 €
Les Gardiens de Ga'Hoole, Tome 11 : La reconquête Kathryn Lasky Pocket 01/07/2010 259 p. 226618850X 8.4 €
Les prisonniers de Cabrera : L'exil forcé des soldats de Napoléon Michel Peyramaure Pocket 01/07/2010 408 p. 2266198564 7.5 €
Rue des mensonges Joy Fielding Pocket 01/07/2010 409 p. 2266194100 7.03 €
Vidocq : Tome 3, Les trois bandits Michel Peyramaure Pocket 01/07/2010 433 p. 226617990X nc.
Rue de l'Espoir Steel Danielle Pocket 30/06/2010 - 2266180339 6.37 €
Amos Daragon, Tome 12 : La fin des dieux Bryan Perro Pocket 17/06/2010 208 p. 2266198637 7.79 €
Artémisia : Un duel pour l'immortalité Alexandra Lapierre Pocket 17/06/2010 669 p. 2266203304 nc.
L'art de la guerre pour les femmes : Les stratégies et la sagesse du philosophe chinois Sun Tse appliquées à votre réussite professionnelle Chin-Ning Chu Pocket 17/06/2010 268 p. 2266182145 7.32 €
La route de glace Yves Viollier Pocket 17/06/2010 253 p. 2266194135 6.84 €
Le fils du rebelle Alexandra Lapierre Pocket 17/06/2010 605 p. 2266197274 8.65 €
Les soeurs Deblois, Tome 2 : Emilie Louise Tremblay d'Essiambre Pocket 17/06/2010 532 p. 2266197312 7.7 €
Lire et comprendre Charles de Gaulle : Mémoires de guerre - Le salut : 1944-1946 Dominique Baruta Annie Collognat-Barès Nicole Rastetter Pocket 17/06/2010 269 p. 2266206028 nc.
Marco Polo, les voyages interdits, Tome 1 : Vers l'Orient Gary Jennings Pocket 17/06/2010 818 p. 2266189409 9.8 €
Marco Polo, les voyages interdits, Tome 2 : A la corur du grand Khan Gary Jennings Thierry Chevrier Pocket 17/06/2010 942 p. 2266189417 10.5 €
Même pas mâle ! : La révolution clandestine Isabelle Alonso Pocket 17/06/2010 217 p. 2266189506 5.8 €
Oro & Co Cizia Zykë Pocket 17/06/2010 374 p. 2266190377 nc.
Une grâce infinie Danielle Steel Pocket 17/06/2010 380 p. 2266203975 7.22 €
Apocalypse Eric Giacometti Jacques Ravenne Pocket 10/06/2010 477 p. 9782266196291 7.22 €
Autremonde, Tome 7 : Le chant des spectres Tad Williams Pocket 10/06/2010 694 p. 2266197614 10.64 €
Echo Ingrid Desjours Pocket 10/06/2010 347 p. 2266194267 7.3 €
La route de Dune Frank Herbert Brian Herbert Kevin J. Anderson Pocket 10/06/2010 567 p. 2266179209 8.4 €
Les seigneurs des runes, Tome 4 : La salle des ossements David Farland Pocket 10/06/2010 666 p. 2266145835 9.31 €
Skin Mo Hayder Pocket 10/06/2010 445 p. 2266199455 7.7 €
Le premier jour Marc Levy Pocket 07/06/2010 494 p. 9782266203357 7.7 €
Chez les anges Marian Keyes Pocket 05/06/2010 343 p. 2266209752 nc.
Journal de voyage : Tome 1, Lettres à son mari (11 août 1904-26 décembre 1917) Alexandra David-Néel Pocket 05/06/2010 480 p. 2266208608 7.7 €
Corps de femmes Regards d'hommes : Sociologie des seins nus Jean-Claude Kaufmann Pocket 03/06/2010 294 p. 2266204041 6.84 €
Frédéric Dard ou la vie privée de San Antonio François Rivière Pocket 03/06/2010 375 p. 226620436X 6.84 €
La femme idéale Elodie Büri Pocket 03/06/2010 122 p. 2266192507 5.8 €
La voie du coeur Arnaud Desjardins Pocket 03/06/2010 381 p. 2266179721 6.84 €
Les Ateliers de Dame Alix, Tome 5 : David et Bethsabée Jocelyne Godard Pocket 03/06/2010 532 p. 2266186728 7.79 €
Les croissants du dimanche Annie Saumont Pocket 03/06/2010 120 p. 9782266191142 nc.
Les filles de l'Olympe, Tome 1 : Les larmes de cristal Elena Kedros Pocket 03/06/2010 235 p. 2266189905 10.17 €
Les âmes brûlées Andrew Davidson Pocket 03/06/2010 663 p. 2266194003 nc.
Mémoires de guerre : Tome 1, L'appel : 1940-1942 Charles De Gaulle Pocket 03/06/2010 434 p. 2266205994 7.3 €
Mémoires de guerre : Tome 2, L'unité : 1942-1944 Charles De Gaulle Pocket 03/06/2010 497 p. 2266206001 8.1 €
Mémoires de guerre : Tome 3, Le salut : 1944-1946 Charles De Gaulle Pocket 03/06/2010 531 p. 226620601X nc.
Un amour vintage Isabel Wolff Pocket 03/06/2010 471 p. 2266194275 7.32 €
Un chemin de promesses Edouard Cortès Mathilde Cortès Pocket 03/06/2010 332 p. 2266194836 7.7 €
Un mètre quatre Anne de Rancourt Pocket 03/06/2010 120 p. 2266194755 5.32 €
Vivre avec De Gaulle : Les derniers témoins racontent l'homme Michel Tauriac Pocket 03/06/2010 795 p. 226619402X 9.12 €
Adolescence : les années violence Claude Couderc Pocket 20/05/2010 182 p. 2266177656 nc.
Confidentialité assurée Jessica Brody Pocket 20/05/2010 592 p. 2266196375 7.98 €
Et qu'on n'en parle plus Michel Sardou Pocket 20/05/2010 142 p. 2266202766 5.8 €
Etre jeune à tout âge : La méthode pour vivre heureuse et en forme longtemps Nadia Volf Marie-Christine Deprund Pocket 20/05/2010 310 p. 2266204491 nc.
Heartland, Tome 36 : Panique au ranch Lauren Brooke Natacha Godeau Pocket 20/05/2010 119 p. 2266187228 4.46 €
L'ange de Whitechapel Jennifer Donnelly Pocket 20/05/2010 1002 p. 2266191918 12.8 €
La chambre aux pipistrelles Anne Courtillé Pocket 20/05/2010 530 p. 2266196480 7.7 €
La traversée des sens Nedjma Pocket 20/05/2010 221 p. 2266195255 nc.
La vengeance des dieux, Tome 1 : Chasse à l'homme Christian Jacq Pocket 20/05/2010 398 p. 9782266178525 7.32 €
La vengeance des dieux, Tome 2 : La divine adoratrice Christian Jacq Pocket 20/05/2010 389 p. 9782266178532 7.32 €
Ma famille, mes copains, mon école et moi : 160 réponses à mes petits et grands soucis Maryse Vaillant Judith Leroy Pocket 20/05/2010 345 p. 2266165585 16.63 €
Samantha bonne à rien faire Sophie Kinsella Pocket 20/05/2010 408 p. 9782266181389 7.3 €
Voyage à Capri Elizabeth Adler Pocket 20/05/2010 456 p. 2266199978 7.7 €
Avant de se dire au revoir Elisabeth Kübler-Ross Pocket 15/05/2010 157 p. 2266208462 5.8 €
Carnages Maxime Chattam Pocket 12/05/2010 92 p. 9782266201711 4.2 €
Jaune caravage : Un automne meurtrier Gilda Piersanti Pocket 12/05/2010 253 p. 2266175572 5.8 €
Jusqu'au dernier Nicci French Pocket 12/05/2010 472 p. 2266196340 7.3 €
La plage de verre Iain M. Banks Pocket 12/05/2010 727 p. 2266203800 10.5 €
La théorie Gaïa Maxime Chattam Pocket 12/05/2010 504 p. 9782266189422 8.1 €
Le Cadeau Steel Danielle Pocket 12/05/2010 224 p. 2266206850 5.8 €
Le monde enfin : Récits d'une fin de monde annoncée Jean-Pierre Andrevon Pocket 12/05/2010 633 p. 2266203819 8.65 €
Le second cycle de Fondation Gregory Benford Greg Bear David Brin Pocket 12/05/2010 1273 p. 2266200291 13.21 €
Au bord des cendres Jean-François Bouygues Pocket 06/05/2010 569 p. 226620002X 8.1 €
Bleu poussière : Ou la Véritable Histoire de Kaël Tallas Jennifer Richard Pocket 06/05/2010 270 p. 2266179225 nc.
Le Chant des sorcières, Tome 3 : Mireille Calmel Pocket 06/05/2010 471 p. 2266191551 7.3 €
Le comte de Monte-Cristo : Tome 2 Alexandre (père) Dumas Pocket 06/05/2010 896 p. 2266207296 5.8 €
Les pyramides de Napoléon William Dietrich Pocket 06/05/2010 568 p. 2266194291 7.98 €
Pourquoi les hommes mentent et les femmes pleurent ? Barbara Pease Allan Pease Pocket 06/05/2010 374 p. 2266191691 6.8 €
Pourquoi les hommes n'écoutent jamais rien et les femmes ne savent pas lire les cartes routières ? Barbara Pease Allan Pease Pocket 06/05/2010 339 p. 2266191683 6.8 €
Pourquoi les hommes se grattent l'oreille et les femmes tournent leur alliance ? Barbara Pease Allan Pease Pocket 06/05/2010 460 p. 2266191705 7.3 €
Stèle pour James Joyce Louis Gillet Pocket 06/05/2010 183 p. 226619934X 9.31 €
Le Mariage Steel Danielle Pocket 05/05/2010 - 226620713X 6.46 €
Le bal Danielle Steel Pocket 05/05/2010 181 p. 2266207903 5.42 €
Le mahabharata Jean-Claude Carrière Pocket 05/05/2010 320 p. 2266208861 7.7 €
Princesse Danielle Steel Pocket 28/04/2010 344 p. 226620789X 6.94 €
Soeurs et amies Danielle Steel Pocket 28/04/2010 408 p. 2266207601 7.7 €
Madame Bovary Gustave Flaubert Pocket 24/04/2010 451 p. 2266205129 3.7 €
Derrière l'épaule Françoise Sagan Pocket 22/04/2010 233 p. 2266195603 5.8 €
Douce amère Danielle Steel Pocket 22/04/2010 444 p. 2266205196 7.3 €
La clé du bonheur Danielle Steel Pocket 22/04/2010 374 p. 2266206516 6.8 €
Aide-moi... Nicci French Pocket 21/04/2010 346 p. 2266204688 nc.
L'accusé John Grisham Pocket 21/04/2010 430 p. 2266204858 8.1 €
La chambre écarlate Nicci French Pocket 21/04/2010 567 p. 2266204645 7.5 €
Le rouge du péché Elizabeth George Pocket 21/04/2010 790 p. 9782266206594 7.98 €
Les morsures du doute Nicci French Pocket 21/04/2010 150 p. 226620470X 4.94 €
Mémoire infidèle Elizabeth George Pocket 21/04/2010 980 p. 226620663X 8.4 €
Une patience d'ange Elizabeth George Pocket 21/04/2010 753 p. 2266206699 7.98 €
Les hirondelles de Kaboul Yasmina Khadra Pocket 19/04/2010 147 p. 2266204963 5.8 €
Sans l'ombre d'un témoin Elizabeth George Pocket 17/04/2010 919 p. 9782266206655 9.1 €
L'art d'être bon : Oser la gentillesse Stefan Einhorn Pocket 15/04/2010 217 p. 2266193678 nc.
L'invitée de Fontenay Frédérick d' Onaglia Pocket 15/04/2010 375 p. 2266189301 nc.
La dame noire Stephen Carter Pocket 15/04/2010 922 p. 2266202863 10.45 €
La plume d'or du drapier Michel Caffier Pocket 15/04/2010 270 p. 2266191985 nc.
Le meilleur de la vie Cathy Kelly Pocket 15/04/2010 791 p. 2266195395 8.1 €
Les soeurs Deblois, Tome 1 : Charlotte Louise Tremblay d'Essiambre Pocket 15/04/2010 666 p. 9782266197304 7.7 €
Maudit karma David Safier Pocket 15/04/2010 342 p. 9782266192392 7.3 €
Si je reste Gayle Forman Pocket 15/04/2010 186 p. 2266195220 6.2 €
Arthur Rimbaud, oeuvres : Des Ardennes au désert Arthur Rimbaud Pocket 13/04/2010 409 p. 2266206885 4.27 €
Enquête dans le brouillard Elizabeth George Pocket 13/04/2010 445 p. 2266206567 5.8 €
Feu de glace Nicci French Pocket 13/04/2010 467 p. 2266204629 6.84 €
L'aigle solitaire Danielle Steel Pocket 13/04/2010 470 p. 2266206311 7.7 €
Ubu roi Alfred Jarry Pocket 13/04/2010 260 p. 2266206710 3.99 €
Comme une tombe Peter James Pocket 10/04/2010 531 p. 2266204386 7.7 €
Le baiser Danielle Steel Pocket 10/04/2010 - 2266207091 7.22 €
In nomine Eric Giacometti Jacques Ravenne Pocket 08/04/2010 124 p. 2266198300 5.3 €
La pluie du siècle Alastair Reynolds Pocket 08/04/2010 862 p. 2266191438 12.16 €
Le commando des immortels Christophe Lambert Pocket 08/04/2010 345 p. 2266186337 7.22 €
Le contrat John Grisham Pocket 08/04/2010 505 p. 2266189433 8.1 €
Le dernier assassin Barry Eisler Pocket 08/04/2010 404 p. 2266193686 7.03 €
Le lieu du crime Elizabeth George Pocket 08/04/2010 478 p. 2266206575 6.37 €
Les Annales du Disque-Monde : La Vérité Terry Pratchett Pocket 08/04/2010 469 p. 2266202901 nc.
Les Chroniques des Elfes, Tome 2 : L'Elfe des Terres Noires Jean-Louis Fetjaine Pocket 08/04/2010 243 p. 2266196278 6.84 €
Mémoire trouble Lisa Unger Pocket 08/04/2010 472 p. 2266200542 7.7 €
Turpitudes Olivier Bocquet Pocket 08/04/2010 330 p. 2266200712 nc.
Accident Danielle Steel Pocket 03/04/2010 349 p. 2266205188 6.8 €
Mal d'enfant Elizabeth George Pocket 03/04/2010 543 p. 2266206613 7.22 €
Chroniques d'un médecin légiste Michel Sapanet Pocket 01/04/2010 281 p. 2266196545 5.89 €
Coups de coeur Danielle Steel Pocket 01/04/2010 279 p. 2266205161 5.89 €
De si jolies choses... Sarra Manning Pocket 01/04/2010 306 p. 2266196863 12.5 €
Dieu n'est pas grand : Comment la religion empoisonne tout Christopher Hitchens Pocket 01/04/2010 405 p. 2266198726 nc.
Histoires à faire rougir Marie Gray Pocket 01/04/2010 150 p. 2266196510 nc.
Jeux de dupes Nicci French Pocket 01/04/2010 438 p. 226620467X 7.3 €
L'extraordinaire histoire de Fatima Monsour Joanne Dryansky Gerry Dryansky Pocket 01/04/2010 341 p. 9782266194464 7.3 €
L'homme qui voulait être heureux Laurent Gounelle Pocket 01/04/2010 167 p. 2266186671 6.2 €
La dernière récolte John Grisham Pocket 01/04/2010 455 p. 9782266204804 8.1 €
Le feu sacré Katherine Neville Pocket 01/04/2010 665 p. 2266174118 8.65 €
Le mariage de Figaro Pierre-Augustin Caron de Beaum Pocket 01/04/2010 342 p. 2266205927 nc.
Le soir autour des maisons Murielle Levraud Pocket 01/04/2010 119 p. 2266194801 nc.
Que serais-je sans toi ? Guillaume Musso Pocket 01/04/2010 363 p. 2266200216 nc.
Trois Contes Gustave Flaubert Pocket 01/04/2010 190 p. 2266204181 2.47 €
Un arc-en-ciel dans la nuit Dominique Lapierre Pocket 01/04/2010 400 p. 2266189948 nc.
Vie de Marthe Robin Bernard Peyrous Marie-Thérèse Gille Pocket 01/04/2010 446 p. 2266186183 6.94 €
Le temps des poisons, Tome 1 : On a tué la reine ! Juliette Benzoni Pocket 25/03/2010 404 p. 2266188631 7.7 €
Le temps des poisons, Tome 2 : La chambre du roi Juliette Benzoni Pocket 25/03/2010 436 p. 2266196243 7.7 €
Alice au pays des merveilles Lewis Carroll Pocket 18/03/2010 125 p. 2266197460 1.47 €
Alice in Wonderland; Alice au Pays des Merveilles : Bilingue Lewis Carroll Pocket 18/03/2010 287 p. 2266203606 5.89 €
Histoires de fantômes Washington Irving Sir Walter Scott Bram Stoker Pocket 18/03/2010 223 p. 2266196693 7.3 €
La chaleur du coeur empêche nos corps de rouiller Marie de Hennezel Pocket 18/03/2010 214 p. 2266186515 6.8 €
Les secrets d'une Shoe Addict Beth Harbison Pocket 18/03/2010 363 p. 2266196405 7.3 €
Un palais dans les dunes Annie Degroote Pocket 18/03/2010 405 p. 2266196472 nc.
Une famille française Jean-Paul Malaval Pocket 18/03/2010 441 p. 2266199404 7.3 €
Des grives aux loups, Tome 3 : L'appel des engoulevents Claude Michelet Pocket 17/03/2010 377 p. 2266204564 6.37 €
Sans nom ni blason Jacqueline Mirande Pocket 16/03/2010 187 p. 2266143387 4.7 €
Mémoire piégée Nicci French Pocket 13/03/2010 437 p. 9782266204613 7.22 €
Au pays des vivants Nicci French Pocket 11/03/2010 462 p. 2266204653 7.22 €
Contes des mers du Sud : Edition bilingue français-anglais Jack London Pocket 11/03/2010 127 p. 2266205153 6.37 €
Faux coupable John Katzenbach Pocket 11/03/2010 725 p. 2266192833 7.7 €
L'Agent des ombres, Tome 5 : Belle de mort Michel Robert Pocket 11/03/2010 535 p. 2266192760 8.4 €
L'Etrange Cas du Dr Jeckyll et de M. Hyde Robert Louis Stevenson Maurice Mourier Annie Collognat Pocket 11/03/2010 196 p. 2266205935 4.7 €
L'affaire Pélican John Grisham Pocket 11/03/2010 414 p. 9782266203852 6.8 €
L'enfant du temps Isaac Asimov Robert Silverberg Pocket 11/03/2010 441 p. 2266202391 7.7 €
La colère des enfants déchus Catherine Fradier Pocket 11/03/2010 313 p. 2266184903 nc.
Les Chroniques de Thomas Covenant, Tome 5 : L'arbre primordial Stephen-R Donaldson Pocket 11/03/2010 793 p. 2266193414 11.2 €
Les rats de Montsouris Léo Malet Pocket 11/03/2010 200 p. 2266202030 6.37 €
Micmac moche au boul'mich' Léo Malet Pocket 11/03/2010 185 p. 2266202022 6.37 €
Coup de foudre au zoo Zoë Barnes Pocket 04/03/2010 408 p. 2266196383 7.7 €
Double vie Sophie Cadalen Pocket 04/03/2010 115 p. 2266191632 nc.
Ile Aldous Huxley Pocket 04/03/2010 470 p. 2266202898 7.32 €
L'Ame du Temple, Tome 2 : La Pierre Noire Robyn Young Pocket 04/03/2010 887 p. 2266202847 9.8 €
La voie du Tao Alexis Lavis Pocket 04/03/2010 155 p. 2266194356 6.37 €
Le livre noir des hôpitaux François Malye Philippe Houdart Jérôme Vincent Pocket 04/03/2010 282 p. 2266198106 nc.
Les Ateliers de Dame Alix, Tome 4 : Les scènes galantes Jocelyne Godard Pocket 04/03/2010 504 p. 226618671X 6.84 €
Manuel Epictète Pocket 04/03/2010 146 p. 2266194399 6.37 €
Moi vivant, vous n'aurez jamais de pauses : Ou comment j'ai cru devenir libraire Leslie Plée Pocket 04/03/2010 103 p. 2266198211 nc.
Mon gras et moi Gally Pocket 04/03/2010 90 p. 2266200518 5.6 €
Ne vous résignez jamais Gisèle Halimi Pocket 04/03/2010 250 p. 2266194011 nc.
Paroles du Dalaï-Lama aux femmes Catherine Barry Pocket 04/03/2010 310 p. 2266196642 6.84 €
Sans un mot Harlan Coben Pocket 04/03/2010 471 p. 2266198696 nc.
Secretum Rita Monaldi Francesco Sorti Pocket 04/03/2010 1081 p. 2266153846 12.8 €
Toutankhamon : Le Livre des ombres Nick Drake Pocket 04/03/2010 501 p. 2266197754 nc.
Une maison de rêve Madeleine Wickham Sophie Kinsella Pocket 04/03/2010 341 p. 2266191756 7.3 €
Une nouvelle vie Françoise Bourdin Pocket 04/03/2010 313 p. 9782266191739 6.46 €
George Dandin ou Le Mari confondu Molière Dominique Bouquet Pocket 02/03/2010 - 2266203894 3.3 €
Dom Juan Maurice Mourier Pocket 23/02/2010 221 p. 2266203878 2.7 €
La balafre Jean-Claude Mourlevat Pocket 23/02/2010 127 p. 2266201336 4.7 €
Aimer et se le dire Jacques Salomé Sylvie Galland Pocket 18/02/2010 285 p. 2266181300 6.94 €
Comme un rêve éveillé Jayne Ann Krentz Pocket 18/02/2010 374 p. 226619478X nc.
E Sue Grafton Pocket 18/02/2010 247 p. 2266205110 5.8 €
L'attrape-coeurs J.D. Salinger Pocket 18/02/2010 252 p. 2266205943 5.42 €
La fin des bonnes manières Francesca Marciano Pocket 18/02/2010 311 p. 2266196499 nc.
La petite Louison Henriette Bernier Pocket 18/02/2010 240 p. 2266191780 nc.
Les Werner Belva Plain Pocket 18/02/2010 536 p. 2266197452 7.7 €
Les anges de la nuit John Connolly Pocket 18/02/2010 453 p. 2266200623 7.7 €
Les chatons magiques, Tome 14 : A la piscine Sue Bentley Pocket 18/02/2010 103 p. 2266198416 4.56 €
Merci ! : Quand la gratitude change nos vies Robert Emmons Pocket 18/02/2010 315 p. 2266192841 nc.
La danse des obèses Sophie Audouin-Mamikonian Pocket 11/02/2010 340 p. 2266189514 nc.
Le secret du dixième tombeau Michael Byrnes Pocket 11/02/2010 597 p. 2266189956 8.1 €
Le seigneur des Anneaux : L'intégrale J-R-R Tolkien Pocket 11/02/2010 1259 p. 2266201727 12.16 €
Les Enfants de la destinée, Tome 3 : Transcendance Stephen Baxter Pocket 11/02/2010 794 p. 2266189611 10.64 €
Meurtres en Acadie Kathy Reichs Pocket 11/02/2010 472 p. 2266201735 nc.
Un été ardent Andrea Camilleri Pocket 11/02/2010 251 p. 226619643X 6.37 €
Amos Daragon, Tome 11 : Le masque de l'éther Bryan Perro Pocket 04/02/2010 207 p. 2266198629 7.98 €
J'étais la fille de François Mitterrand Elsa Flageul Pocket 04/02/2010 91 p. 2266195514 4.46 €
La Baie des Anges, Tome 1 : Max Gallo Pocket 04/02/2010 474 p. 2266201662 6.65 €
La Baie des Anges, Tome 2 : Le palais des fêtes Max Gallo Pocket 04/02/2010 413 p. 2266201670 6.65 €
La Baie des Anges, Tome 3 : La Promenade des Anglais Max Gallo Pocket 04/02/2010 346 p. 2266201689 6.65 €
La peste noire, Tome 1 : La conjuration des lys Gilbert Bordes Pocket 04/02/2010 370 p. 2266179667 7.3 €
La première fois j'avais six ans... Isabelle Aubry Pocket 04/02/2010 248 p. 2266192809 6.8 €
Le Chant des sorcières, Tome 2 : Mireille Calmel Pocket 04/02/2010 404 p. 2266191543 7.3 €
Le joyau Jacques Montfer Pocket 04/02/2010 314 p. 2266193651 nc.
Le paradoxe de Vasalis Raphaël Cardetti Pocket 04/02/2010 439 p. 2266196308 nc.
Les oubliés du shtetl : Yiddishland Y.L. Peretz Pocket 04/02/2010 536 p. 2266197088 7.98 €
Métaphysique : Livres Z à N Aristote Pocket 04/02/2010 302 p. 2266192906 7.7 €
N'attendez pas trop longtemps Agnès Marietta Pocket 04/02/2010 211 p. 2266201654 6.36 €
Révolution française, Tome 1 : Le Peuple et le Roi (1774-1793) Max Gallo Pocket 04/02/2010 470 p. 9782266198073 7.7 €
Révolution française, Tome 2 : Aux armes, citoyens ! Max Gallo Pocket 04/02/2010 471 p. 9782266198080 7.32 €
Tout pour toi Agnès Marietta Pocket 04/02/2010 219 p. 2266195352 nc.
Yona fille de la préhistoire, Tome 11 : Les ours de neige Florence Reynaud Pocket 04/02/2010 118 p. 2266187317 4.9 €
L'associé John Grisham Pocket 03/02/2010 476 p. 2266204378 7.3 €
Le faucon déniché Jean-Côme Noguès Pocket 29/01/2010 168 p. 2266203576 4.9 €
Dictionnaire économique, commercial & financier : Allemand-Français Bernard Straub Jürgen Boelcke Paul Thiele Pocket 27/01/2010 922 p. 2266203592 10.64 €
Captive Clara Rojas Pocket 21/01/2010 217 p. 2266197290 6.46 €
Enfant 44 Tom Rob Smith Pocket 21/01/2010 522 p. 2266201700 8.1 €
L'art de la méditation : Pourquoi méditer ? Sur quoi ? Comment ? Matthieu Ricard Pocket 21/01/2010 149 p. 2266194240 6.2 €
La Figuière en héritage Françoise Bourdon Pocket 21/01/2010 303 p. 2266188186 6.46 €
La vie est dégueulasse Léo Malet Pocket 21/01/2010 180 p. 2266201999 6.37 €
Le nouveau rapport de la CIA : Comment sera le monde en 2025 ? Central Intelligence Agency Pocket 21/01/2010 311 p. 2266195506 6.84 €
Le soleil n'est pas pour nous Léo Malet Pocket 21/01/2010 158 p. 2266202006 5.8 €
Les Trois Bandits, Tome 2 : Mandrin Michel Peyramaure Pocket 21/01/2010 338 p. 2266177621 nc.
Les étonnants pouvoirs de transformation du cerveau : Guérir grâce à la neuroplasticité Norman Doidge Pocket 21/01/2010 625 p. 2266188232 9.1 €
Sueur aux tripes Léo Malet Pocket 21/01/2010 206 p. 2266202014 6.46 €
Tu m'appelles en arrivant ? Patrick Sébastien Pocket 21/01/2010 344 p. 2266198602 6.94 €
Villa numéro 2 Danielle Steel Pocket 21/01/2010 409 p. 2266201697 nc.
L'énigme Alexandrie Steve Berry Pocket 14/01/2010 599 p. 2266182811 8.1 €
La Prophétie du royaume de Lur, Tome 1 : Le mage du prince Karen Miller Pocket 14/01/2010 696 p. 2266186345 9.98 €
La Roue du Temps, Tome 15 : Le sentier des dagues Robert Jordan Pocket 14/01/2010 366 p. 2266186272 7.32 €
La Roue du Temps, Tome 16 : Alliances Robert Jordan Pocket 14/01/2010 476 p. 2266186280 7.98 €
La chambre d'ambre Jérôme Bucy Pocket 14/01/2010 281 p. 2266188224 6.27 €
Le paradoxe du menteur Martha Grimes Pocket 14/01/2010 474 p. 2266195379 7.7 €
Sacrifice Sharon Bolton Pocket 14/01/2010 535 p. 2266196421 7.69 €
A contretemps Jean-Philippe Blondel Pocket 07/01/2010 232 p. 9782266198479 nc.
Chroniques du monde émergé, Tome 3 : Le talisman du pouvoir Licia Troisi Pocket 07/01/2010 555 p. 2266176978 19 €
Cityboy : Confessions explosives d'un trader repenti Geraint Anderson Pocket 07/01/2010 377 p. 2266199439 7.7 €
Drôle d'école : Ca chauffe pour Lison ! Fanny Joly Pocket 07/01/2010 220 p. 226620047X 8.17 €
La guerre des fées, Tome 4 : Le destin des fées Herbie Brennan Pocket 07/01/2010 478 p. 2266198130 7.32 €
La preuve par le miel Salwa al Neimi Pocket 07/01/2010 144 p. 2266191187 5.8 €
Le fantasme numéro un des femmes Eric Dardill Pocket 07/01/2010 153 p. 2266195417 nc.
Le procès de la momie Christian Jacq Pocket 07/01/2010 471 p. 9782266200196 7.22 €
Max Michel Quint Pocket 07/01/2010 254 p. 2266201484 nc.
Mon testament spirituel Soeur Emmanuelle Sofia Stril-Rever Pocket 07/01/2010 184 p. 2266201786 6.2 €
Quatrième étage Nicolas Ancion Pocket 07/01/2010 185 p. 2266187325 5.8 €
Sexe, diamants et plus si affinités... Lauren Weisberger Pocket 07/01/2010 439 p. 9782266189668 7.7 €
Un homme trop charmant Marian Keyes Pocket 07/01/2010 700 p. 2266197436 8.4 €
Candide, ou l'Optimisme et autres contes Voltaire Pocket 06/01/2010 303 p. 9782266199889 2.94 €
Hernani Victor Hugo Pocket 06/01/2010 320 p. 2266199870 3.04 €
La Peau de chagrin Honoré de Balzac Pocket 06/01/2010 428 p. 226620386X 3.8 €
Les Contemplations Victor Hugo Pocket 06/01/2010 645 p. 2266203533 5.8 €
Les Fourberies de Scapin : Le Phormion Molière Terence Pocket 06/01/2010 225 p. 2266200100 2.47 €
Lorenzaccio - Une conspiration en 1537 Alfred de Musset George Sand Pocket 06/01/2010 316 p. 2266199846 3.3 €
Vingt mille lieues sous les mers Jules Verne Pocket 15/12/2009 733 p. 9782266202886 5.7 €
Le client John Grisham Pocket 08/12/2009 473 p. 2266203886 6.84 €
La rivière à l'envers, Tome 2 : Hannah Jean-Claude Mourlevat Pocket 05/12/2009 157 p. 2266146726 5.3 €
120, rue de la Gare Léo Malet Pocket 03/12/2009 220 p. 2266201972 6.8 €
Approcher les autres, est-ce si difficile ? Isabelle Nazare-Aga Pocket 03/12/2009 415 p. 2266181297 nc.
Banana spleen Joseph Incardona Pocket 03/12/2009 343 p. 2266164368 nc.
Brouillard au pont de Tolbiac Léo Malet Pocket 03/12/2009 186 p. 2266201980 6.2 €
L'amour à mort Keith Ablow Pocket 03/12/2009 344 p. 2266166069 nc.
La double vie de Pénélope B. Anne-Solange Tardy Pocket 03/12/2009 341 p. 2266185721 6.36 €
La prochaine fois Marc Levy Pocket 03/12/2009 258 p. 2266199552 6.8 €
Les 4 saisons des brèves de comptoir, Tome 4 : L'hiver Jean-Marie Gourio Pocket 03/12/2009 280 p. 2266181718 nc.
Les enfants de la liberté Marc Levy Pocket 03/12/2009 367 p. 2266199560 7.3 €
Mes amis Mes amours Marc Levy Pocket 03/12/2009 337 p. 2266199579 7.3 €
Sept jours pour une éternité... Marc Levy Pocket 03/12/2009 310 p. 9782266199599 7.3 €
Toutes ces choses qu'on ne s'est pas dites Marc Levy Pocket 03/12/2009 337 p. 9782266200813 7.3 €
Vous revoir Marc Levy Pocket 03/12/2009 305 p. 9782266199605 7.3 €
Les charmes discrets de la vie conjugale Douglas Kennedy Pocket 02/12/2009 599 p. 9782266199216 8.1 €
Un chagrin de passage Françoise Sagan Pocket 26/11/2009 220 p. 9782266195591 6.2 €
Indigo blues Robert Crais Pocket 24/11/2009 407 p. 226619836X 7.3 €
Fables Jean de La Fontaine Pocket 21/11/2009 482 p. 226620033X 3.14 €
Dentelles et tchador : La vie dans l'Iran des mollahs Armin Arefi Pocket 19/11/2009 477 p. 2266200445 nc.
L'apprentissage du bonheur : Principes, préceptes et rituels pour être heureux Tal Ben-Shahar Pocket 19/11/2009 249 p. 2266185055 nc.
La malédiction des Trencavel : cycle de Raimon-Roger, Tome 1 : La danse du cathare Bernard Mahoux Pocket 19/11/2009 505 p. 226619531X 7.7 €
Libres ensemble : L'individualisme dans la vie commune François de Singly Collectif Pocket 19/11/2009 415 p. 2266198424 nc.
Loup Nicolas Vanier Jean-Philippe Chatrier Pocket 19/11/2009 510 p. 2266199331 6.94 €
Loup Nicolas Vanier Jean-Philippe Chatrier Pocket 19/11/2009 504 p. 9782266194822 7.3 €
Un amour volé Anita Shreve Pocket 19/11/2009 315 p. 2266184288 5.7 €
La mauvaise vie Frederic Mitterrand Pocket 18/11/2009 370 p. 2266157175 6.94 €
Histoires extraordinaires Edgar Allan Poe Pocket 14/11/2009 383 p. 2266199897 nc.
Les annales du Disque-Monde, Tome 24 : Le cinquième éléphant Terry Pratchett Pocket 12/11/2009 437 p. 2266194054 nc.
Les seigneurs des runes, Tome 3 : Les entrailles du mal David Farland Pocket 12/11/2009 536 p. 2266197444 8.65 €
Le cerveau vert Frank Herbert Pocket 11/11/2009 243 p. 226618962X 6.37 €
Monstres sur orbite Jack Vance Pocket 11/11/2009 326 p. 2266160338 7.7 €
40 leçons pour découvrir le latin Anne Quesemand Pocket 10/11/2009 112 p. 2266201743 6.46 €
C'est rien ça va passer Annie Saumont Pocket 05/11/2009 150 p. 2266196103 nc.
Carnages : Edition spéciale Maxime Chattam Pocket 05/11/2009 90 p. 2266198661 nc.
Du passé faisons table rase ! : Histoire et mémoire du communisme en Europe Stéphane Courtois Joachim Gauck Aleksandr Iakovlev Pocket 05/11/2009 1019 p. 2266135996 13.21 €
Itinéraire d'une scandaleuse Clara Basteh Pocket 05/11/2009 217 p. 226618282X nc.
J'ai 100 ans et je voudrais vous dire... Soeur Emmanuelle Jacques Duquesne Annabelle Cayrol Pocket 05/11/2009 141 p. 2266198459 5.8 €
Kiki Strike, Tome 2 : La tombe de l'impératrice Kirsten Miller Pocket 05/11/2009 431 p. 2266188453 nc.
L'Arche de Noël et autres contes Romain Sardou Pocket 05/11/2009 124 p. 2266194844 nc.
L'art du pardon, de la bonté et de la paix Jack Kornfield Pocket 05/11/2009 223 p. 2266178504 nc.
L'instinct de mort Jacques Mesrine Pocket 05/11/2009 468 p. 2266194763 7.7 €
La chambre des officiers : Edition spéciale Marc Dugain Pocket 05/11/2009 171 p. 2266197770 nc.
La femme seule et le prince charmant Jean-Claude Kaufmann Pocket 05/11/2009 350 p. 2266173979 6.8 €
La révolte à deux sous Bernard Clavel Pocket 05/11/2009 245 p. 2266188291 nc.
Le Grand Meaulnes Alain-Fournier Pocket 05/11/2009 267 p. 2266198912 1.99 €
Le Montespan : Edition spéciale Jean Teulé Pocket 05/11/2009 309 p. 2266197827 nc.
Les Aventures de Boro, Reporter Photographe, Tome 7 : La fête à Boro Dan Franck Jean Vautrin Pocket 05/11/2009 535 p. 2266188666 8.1 €
Les Immémoriaux Victor Segalen Pocket 05/11/2009 338 p. 226619917X nc.
Napoléon III, Tome 1 : Un si charmant jeune homme... Jean-Pierre Dufreigne Pocket 05/11/2009 343 p. 2266182978 nc.
Napoléon III, Tome 2 : Un empereur qui rêvait... Jean-Pierre Dufreigne Pocket 05/11/2009 335 p. 2266182986 nc.
Noir, comme d'habitude Annie Saumont Pocket 05/11/2009 123 p. 2266196111 nc.
Sexe, diamants et plus si affinités... : Edition spéciale Lauren Weisberger Pocket 05/11/2009 440 p. 2266198432 nc.
A quoi rêvent les loups Yasmina Khadra Pocket 04/11/2009 274 p. 2266200860 6.8 €
Le Horla : Et autres récits fantastiques Guy de Maupassant Pocket 03/11/2009 207 p. 2266199919 2.7 €
Andromaque Jean Racine Euripide Pocket 28/10/2009 224 p. 2266199307 2.47 €
Le barbier de Seville Beaumarchais Pocket 22/10/2009 234 p. 2266200119 2.7 €
Le mariage forcé ; L'étourdi ou Les contretemps Molière Pocket 16/10/2009 - 226620209X 5.42 €
Les liaisons dangereuses Pierre Choderlos de Laclos Pocket 16/10/2009 494 p. 9782266200790 4.27 €
Eugénie Grandet Honoré de Balzac Pocket 15/10/2009 279 p. 2266199277 3.04 €
Jean-Paul Sartre, une introduction Aliocha Wald Lasowski Pocket 15/10/2009 - 2266176897 9.31 €
La reine de Saba Marek Halter Pocket 15/10/2009 329 p. 9782266195300 7.3 €
La splendeur des orages Belva Plain Pocket 15/10/2009 534 p. 2266184873 7.7 €
Le bal Danielle Steel Pocket 15/10/2009 181 p. 2266193384 nc.
Les brumes de Riverton Kate Morton Pocket 15/10/2009 695 p. 2266181629 nc.
Les vendanges de Juillet Françoise Bourdin Pocket 15/10/2009 759 p. 2266182137 9.1 €
Mon boss croit que je parle anglais Simon Lafarge Pocket 15/10/2009 125 p. 2266184075 nc.
Nous irons cueillir les étoiles Gilbert Bordes Pocket 15/10/2009 247 p. 226618329X 6.2 €
L'Oeuvre Emile Zola Pocket 13/10/2009 492 p. 2266199293 5.04 €
Zadig et autres contes orientaux Voltaire Pocket 13/10/2009 404 p. 2266199935 4.56 €
La Fortune des Rougon Emile Zola Pocket 09/10/2009 454 p. 2266200348 4.47 €
Au risque des ténèbres Susan Hill Pocket 08/10/2009 504 p. 2266164198 nc.
L'Agent des ombres, Tome 4 : Hors-Destin Michel Robert Pocket 08/10/2009 438 p. 2266192752 8.1 €
L'Ame du Temple, Tome 1 : Le livre du cercle Robyn Young Pocket 08/10/2009 760 p. 2266185403 9.1 €
L'anneau de Moebius Franck Thilliez Pocket 08/10/2009 596 p. 2266188771 nc.
La nef des fous Richard Russo Pocket 08/10/2009 473 p. 2266162136 8.1 €
Le rouge du péché Elizabeth George Pocket 08/10/2009 790 p. 226619240X nc.
Les Enfants de la destinée, Tome 2 : Exultant Stephen Baxter Pocket 08/10/2009 789 p. 2266183338 10.64 €
Les Lais du Beleriand J-R-R Tolkien Vincent Ferré Pocket 08/10/2009 794 p. 2266169467 11.2 €
S... comme Silence Sue Grafton Pocket 08/10/2009 470 p. 2266182110 nc.
Iphigénie et Iphigénie à Aulis Jean Racine Euripide Pocket 02/10/2009 220 p. 2266199250 3.3 €
Otages de la peur Robert Crais Pocket 02/10/2009 512 p. 2266200879 7.7 €
Poésies Paul Verlaine Pocket 02/10/2009 346 p. 2266200364 4.56 €
Chan & Zen : Le jardin des iconoclastes Daniel Odier Pocket 01/10/2009 151 p. 2266187333 nc.
Eternalis Raymond Khoury Pocket 01/10/2009 567 p. 2266193392 7.98 €
Hunger Games Collins Suzanne Pocket 01/10/2009 379 p. 2266182692 18.15 €
Journal intime de mon sexe Anonyme Pocket 01/10/2009 249 p. 2266152998 6.2 €
L'américain au quotidien Michel Marcheteau Michel Savio Jean-Pierre Berman Pocket 01/10/2009 414 p. 2266189042 8.1 €
La dernière concubine Lesley Downer Pocket 01/10/2009 536 p. 2266191381 7.5 €
La guerre des clans, Tome 5 : Sur le sentier de la guerre Erin Hunter Pocket 01/10/2009 358 p. 2266192922 7.3 €
Le nouvel art de la guerre Gérard Chaliand Pocket 01/10/2009 157 p. 2266188623 nc.
Marie, l'ange rebelle Gonzague Saint Bris Pocket 01/10/2009 278 p. 2266189298 nc.
Qu'ai-je donc fait Jean d' Ormesson Pocket 01/10/2009 333 p. 2266194119 7.3 €
Quand ce jour viendra Claude Michelet Pocket 01/10/2009 354 p. 226619481X 7.3 €
Tara Duncan : Dans le piège de Magister Sophie Audouin-Mamikonian Pocket 01/10/2009 655 p. 2266198041 8.1 €
La dame aux camélias Alexandre Dumas Pocket 29/09/2009 422 p. 2266199927 nc.
Iliade Homère Pocket 24/09/2009 576 p. 2266200356 nc.
La Bête humaine Emile Zola Pocket 24/09/2009 507 p. 2266199811 3.5 €
Manon Lescaut Abbé Prévost Pocket 23/09/2009 333 p. 2266199838 3.04 €
Le Diable au corps Raymond Radiguet Pocket 21/09/2009 206 p. 226611039X 2.47 €
Entre nous soit dit Cathy Kelly Pocket 17/09/2009 821 p. 2266175688 9.1 €
Fleur de glace Kitty Sewell Pocket 17/09/2009 472 p. 2266186175 nc.
Heartland, Tome 35 : Un choix difficile Lauren Brooke Natacha Godeau Pocket 17/09/2009 124 p. 226618721X 4.56 €
La chair des étoiles Jean-Guy Soumy Pocket 17/09/2009 378 p. 2266186612 nc.
Le château de verre Jeannette Walls Pocket 17/09/2009 441 p. 2266189484 7.69 €
Le semeur d'alphabets Jean Anglade Pocket 17/09/2009 313 p. 2266181211 6.8 €
Les 4 saisons des brèves de comptoir, Tome 3 : L'automne Jean-Marie Gourio Pocket 17/09/2009 282 p. 226618170X 5.89 €
Les Ateliers de Dame Alix, Tome 3 : Auguste et la Sibylle Jocelyne Godard Pocket 17/09/2009 567 p. 2266186701 7.98 €
Michelle Obama, First lady Liza Mundy Pocket 17/09/2009 309 p. 2266195263 nc.
Porte-Flingue Didier Porte Pocket 17/09/2009 377 p. 2266193996 6.8 €
L'Avare Molière Pocket 16/09/2009 225 p. 2266199900 2.62 €
Funérailles Richard Montanari Pocket 10/09/2009 524 p. 2266182196 nc.
Gargantua François Rabelais Pocket 10/09/2009 485 p. 226619982X 4.66 €
Germinal Emile Zola Pocket 10/09/2009 620 p. 2266199285 3.99 €
L'ordre du dragon James Rollins Pocket 10/09/2009 596 p. 2266176323 8.1 €
Le magicien Jean-Marc Souvira Pocket 10/09/2009 477 p. 2266185381 7.22 €
Les morsures de l'ombre Karine Giebel Pocket 10/09/2009 299 p. 9782266181365 6.8 €
Mauvaise base Harlan Coben Pocket 10/09/2009 440 p. 9782266185479 nc.
Notre-Dame de Paris : 1482 Victor Hugo Pocket 10/09/2009 648 p. 2266197665 4.46 €
Ce que le jour doit à la nuit Yasmina Khadra Pocket 03/09/2009 437 p. 9782266192415 7.7 €
Chut ! Jean-Marie Gourio Pocket 03/09/2009 191 p. 2266194208 nc.
Dieu est un pote à moi Cyril Massarotto Pocket 03/09/2009 213 p. 2266191969 6.2 €
Délivrez-nous du mal Romain Sardou Pocket 03/09/2009 434 p. 9782266191975 7.7 €
L'eau des fleurs Jean-Marie Gourio Pocket 03/09/2009 212 p. 2266194216 nc.
La cantatrice avariée Pierre Jourde Pocket 03/09/2009 214 p. 2266188305 nc.
La chamade Françoise Sagan Pocket 03/09/2009 153 p. 2266190016 5.8 €
La laisse Françoise Sagan Pocket 03/09/2009 189 p. 9782266190039 nc.
Le livre noir du communisme : Crimes, terreur, répression Stéphane Courtois Nicolas Werth Jean-Louis Panné Pocket 03/09/2009 1104 p. 226619187X 13.21 €
Le portugais économique et commercial Carlos Pereira Dulce Santos Pocket 03/09/2009 283 p. 2266188984 7.98 €
Les normales saisonnières Pierre Pelot Pocket 03/09/2009 250 p. 9782266184885 nc.
Les nouveaux bonheurs de Sophie Vonnick de Rosmadec Pocket 03/09/2009 250 p. 2266181076 5.8 €
Peggy Sue et les Fantômes, Tome 9 : La lumière mystérieuse Serge Brussolo Pocket 03/09/2009 275 p. 2266174223 6.2 €
This is not a love song Jean-Philippe Blondel Pocket 03/09/2009 186 p. 2266183249 nc.
Le preneur d'âmes Frank Herbert Pocket 27/08/2009 281 p. 2266189638 6.37 €
Les Précieuses ridicules Molière Pocket 26/08/2009 156 p. 2266196901 3.04 €
Hamlet ; Othello William Shakespeare Pocket 25/08/2009 257 p. 2266196952 nc.
La curée Emile Zola Pocket 25/08/2009 434 p. 2266198025 4.2 €
Le bourgeois gentilhomme Molière Pocket 25/08/2009 192 p. 226619769X 3.04 €
Les arcanes du chaos Maxime Chattam Pocket 25/08/2009 550 p. 9782266194457 8.1 €
Où es-tu ? Marc Levy Pocket 25/08/2009 320 p. 2266199587 7.3 €
Cinq jours par mois : Dans la peau d'un garçon Lauren Mc Laughlin Pocket 20/08/2009 319 p. 2266182552 12.83 €
L'oeil du dragon, Tome 1 : Mark Robson Fabienne Berganz Pocket 20/08/2009 262 p. 2266191489 13.7 €
Le dernier évangile David Gibbins Pocket 20/08/2009 538 p. 2266196995 8.1 €
Marcel facteur Françoise Rey Pocket 20/08/2009 163 p. 2266191861 nc.
Tu sais quoi ? Mikaël Ollivier Pocket 20/08/2009 101 p. 2266165623 nc.
Atala - René François-René de Chateaubriand Pocket 17/08/2009 262 p. 2266199862 4.47 €
L'étrange cas du Dr Jekyll et de Mr Hyde : Edition bilingue français-anglais Robert Louis Stevenson Pocket 15/08/2009 - 2266200054 5.51 €
Les Misérables III Victor Hugo Pocket 15/08/2009 451 p. 2266197673 5.8 €
Ou Tu Porteras Mon Deuil Lapierre Dominique Pocket 07/08/2009 640 p. 2266199161 7.7 €
La Princesse de Clèves Madame de Lafayette Pocket 05/08/2009 211 p. 2266199323 2.84 €
Le neveu de Rameau Denis Diderot Pocket 22/07/2009 217 p. 2266197347 nc.
Horace Pierre Corneille Pocket 17/07/2009 157 p. 2266197657 3.04 €
Odyssée Homère Pocket 17/07/2009 470 p. 2266197681 5.8 €
Le Père Goriot Honoré de Balzac Pocket 11/07/2009 378 p. 2266197177 3.14 €
Bel-Ami Guy de Maupassant Claude Aziza Pocket 09/07/2009 469 p. 226619691X 4.2 €
Britannicus Jean Racine Pocket 09/07/2009 157 p. 2266197703 3.04 €
L'Ile des esclaves Pierre de Marivaux Pocket 09/07/2009 253 p. 2266197185 2.37 €
L'enfant Jules Vallès Pocket 09/07/2009 383 p. 2266033492 4.37 €
Voeux secrets Danielle Steel Pocket 09/07/2009 416 p. 2266198904 nc.
Les misérables : Tome 1 Victor Hugo Pocket 04/07/2009 615 p. 2266196979 5.32 €
Nouvelles histoires extraordinaires Edgar Allan Poe Pocket 03/07/2009 363 p. 2266196960 3.9 €
Bad trip Jacky Schwartzmann Pocket 02/07/2009 142 p. 2266179608 nc.
Cahin-caha Anne Lenner Pocket 02/07/2009 190 p. 2266165259 nc.
L'inattendue Karine Reysset Pocket 02/07/2009 174 p. 2266168096 nc.
La fille du tailleur Janice Graham Pocket 02/07/2009 585 p. 2266184857 nc.
La malédiction des Hale Doris Mortman Pocket 02/07/2009 425 p. 2266175696 nc.
La petite école dans la montagne Michel Jeury Pocket 02/07/2009 372 p. 2266157205 6.94 €
Le Cycle d'Ea, Tome 2 : L'épée d'argent David Zindell Pocket 02/07/2009 558 p. 2266186329 8.45 €
Pop Princess Cathy Hopkins Pocket 02/07/2009 156 p. 2266131435 nc.
Shadowman Cody Mcfayden Pocket 02/07/2009 521 p. 2266181769 8.1 €
Un soir, à la maison Annie Saumont Pocket 02/07/2009 153 p. 2266191136 5.04 €
Les Crimes passionnels, tome 1 Pierre Bellemare Jean-François Nahmias Pocket 01/07/2009 253 p. 2266113062 nc.
Boule de Suif et autres récits de guerre Guy de Maupassant Pascaline Mourier-Casile Claude Aziza Pocket 26/06/2009 276 p. 2266197002 2.57 €
Accroche-toi, Anna ! Isabel Wolff Pocket 18/06/2009 441 p. 2266185756 6.94 €
Campus Curtis Sittenfeld Pocket 18/06/2009 631 p. 2266181610 nc.
Constance et la ville d'hiver Alain Dubos Pocket 18/06/2009 407 p. 226618119X nc.
Des troubadours à Apollinaire : Petite anthologie poétique Annie Collognat-Barès Collectif Pocket 18/06/2009 301 p. 2266192272 2.84 €
La cathédrale de la mer Ildefonso Falcones Pocket 18/06/2009 819 p. 9782266186575 9.31 €
La tresse de Jeanne Nathalie de Broc Pocket 18/06/2009 303 p. 2266191950 nc.
Le carnet de Rose : Suivi Sept nuits et l'exclue Alina Reyes Pocket 18/06/2009 146 p. 2266172689 nc.
Le dictionnaire des rêves et de leurs symbôles Livia Caron Pocket 18/06/2009 629 p. 2266181416 7.69 €
Les chatons magiques, Tome 10 : Vacances enchantées Sue Bentley Pocket 18/06/2009 104 p. 2266188410 4.56 €
Oro Cizia Zykë Pocket 18/06/2009 464 p. 2266192426 7.7 €
Premier regard Nicholas Sparks Pocket 18/06/2009 310 p. 2266189468 nc.
Soeurs et amies Danielle Steel Pocket 18/06/2009 408 p. 2266193376 nc.
Une maison à Amalfi Elizabeth Adler Pocket 18/06/2009 408 p. 2266191411 nc.
La Croix des Assassins (Poche) Eric Giacometti Jacques Ravenne Pocket 11/06/2009 597 p. 2266185446 7.7 €
La reine des morts Tess Gerritsen Pocket 11/06/2009 422 p. 2266181203 7.3 €
Les seigneurs des runes, Tome 2 : La confrérie des loups David Farland Pocket 11/06/2009 695 p. 2266188747 9.8 €
Retrouve-moi Carol O'Connell Pocket 11/06/2009 510 p. 2266177214 nc.
Adopte-moi ! Sinéad Moriarty Pocket 04/06/2009 344 p. 2266179934 nc.
Bubbles : Ca chauffe pour Bubbles Sarah Strohmeyer Pocket 04/06/2009 335 p. 2266185462 6.27 €
Coffret 3 volumes Jean-Claude Brialy Jean-Claude Brialy Pocket 04/06/2009 1 p. 2266157698 nc.
Fables Livres 1 à 6 Jean de La Fontaine Pocket 04/06/2009 189 p. 2266192280 1.55 €
Illuminations Arthur Rimbaud Pocket 04/06/2009 55 p. 2266192310 1.47 €
Jadis et naguère Paul Verlaine Pocket 04/06/2009 119 p. 2266192329 nc.
L'accro du shopping attend un bébé Sophie Kinsella Pocket 04/06/2009 406 p. 9782266191364 7.3 €
L'homme du soir Mo Hayder Pocket 04/06/2009 541 p. 2266189603 7.7 €
Le Grand Santini Pat Conroy Pocket 04/06/2009 665 p. 2266188240 8.4 €
Le Médecin volant : Suivi de L'Amour médecin Molière Pocket 04/06/2009 88 p. 2266194569 1.55 €
Le Sicilien ou L'Amour peintre Molière Pocket 04/06/2009 83 p. 2266192299 1.43 €
Les 4 saisons des brèves de comptoir, Tome 2 : L'été Jean-Marie Gourio Pocket 04/06/2009 281 p. 2266181696 6.2 €
Les enfants du bagne Marie Rouanet Pocket 04/06/2009 345 p. 2266195565 nc.
Les ours n'ont pas de problème de parking Nicolas Ancion Pocket 04/06/2009 122 p. 2266186523 nc.
Retour à l'essentiel : Rencontres au Québec Arnaud Desjardins Pocket 04/06/2009 439 p. 226617973X nc.
Rituel Mo Hayder Pocket 04/06/2009 505 p. 2266191721 7.7 €
Anges et démons Dan Brown Pocket 29/05/2009 623 p. 9782266198127 8.1 €
Envies de fraises Jennifer Weiner Pocket 29/05/2009 497 p. 2266198173 7.7 €
Elle voulait toucher le ciel Yves Viollier Pocket 20/05/2009 305 p. 2266153900 6.8 €
Faërie et autres textes J-R-R Tolkien Pocket 20/05/2009 431 p. 2266155385 8.1 €
La louve blanche Theresa Révay Pocket 20/05/2009 630 p. 2266189565 8.1 €
Le collier sacré de Montezuma Juliette Benzoni Pocket 20/05/2009 372 p. 2266183567 7.3 €
Les Ateliers de Dame Alix, Tome 1 : Les licornes Jocelyne Godard Pocket 20/05/2009 505 p. 226618668X 7.7 €
Les Ateliers de Dame Alix, Tome 2 : Les vierges du Vatican Jocelyne Godard Pocket 20/05/2009 537 p. 2266186698 7.69 €
Les Trois Mousquetaires Alexandre Dumas Pocket 20/05/2009 851 p. 2266196049 nc.
Les enfants de Hurin J-R-R Tolkien Pocket 20/05/2009 281 p. 9782266178518 7.3 €
Sang Royal C-J Sansom Pocket 20/05/2009 788 p. 226618301X 8.65 €
Bleu catacombes : Un été meurtrier Gilda Piersanti Pocket 14/05/2009 242 p. 2266175564 6.8 €
Des vérités cachées Ann Cleeves Pocket 14/05/2009 413 p. 226618573X nc.
Le cercle du silence David Hepburn Pocket 14/05/2009 757 p. 2266190938 nc.
Les Annales du Disque-Monde, Tome 23 : Carpe Jugulum Terry Pratchett Pocket 14/05/2009 411 p. 2266194046 nc.
Les Chroniques de Thomas Covenant, Tome 4 : Le rituel du sang Stephen-R Donaldson Pocket 14/05/2009 843 p. 2266193406 10.64 €
Prédateurs Maxime Chattam Pocket 14/05/2009 569 p. 226618878X 8.4 €
Essais Michel de Montaigne Pocket 08/05/2009 533 p. 2266196030 5.3 €
L'exil est mon pays Isabelle Alonso Pocket 07/05/2009 340 p. 2266175599 nc.
La petite fille dans le placard Marie Lincourt Pocket 07/05/2009 160 p. 2266181394 6.2 €
La saga des quatre rivières, Tome 1 : Little Bighorn Jean-Georges Aguer Pocket 07/05/2009 441 p. 2266182234 nc.
Les grands philosophes : Tome 3 : Kant Karl Jaspers Pocket 07/05/2009 299 p. 2266191829 nc.
Midnighters, Tome 2 : L'étreinte des ténèbres Scott Westerfeld Pocket 07/05/2009 401 p. 2266164589 12.83 €
Toutes ces choses qu'on ne s'est pas dites Marc Levy Pocket 07/05/2009 337 p. 2266187309 nc.
Une petite fête sur la planète Corinne Roche Pocket 07/05/2009 242 p. 2266176218 nc.
Bonjour tristesse Francoise Sagan Pocket 06/05/2009 153 p. 9782266195584 4.9 €
Pantagruel : Edition bilingue français-moyen français François Rabelais Pocket 30/04/2009 364 p. 2266196006 4.66 €
Frankenstein : Ou le moderne Prométhée Mary Shelley Pocket 28/04/2009 358 p. 2266196774 4.2 €
Anticancer : Prévenir et lutter grâce à nos défenses naturelles David Servan-Schreiber Pocket 23/04/2009 409 p. 226618332X nc.
Danse d'une nuit d'été Maeve Binchy Pocket 23/04/2009 376 p. 2266183087 nc.
La fin des secrets Diane Chamberlain Pocket 23/04/2009 465 p. 2266179292 nc.
La liberté sur la montagne Georges Coulonges Pocket 23/04/2009 305 p. 226616208X 6.46 €
Quand c'est fini, c'est fini ! Comment bien surmonter une rupture amoureuse Rhonda Findling Pocket 23/04/2009 163 p. 2266177982 6.37 €
Voyage au centre de la Terre Jules Verne Pocket 20/04/2009 487 p. 2266196022 4.27 €
Le cid Pierre Corneille Pocket 18/04/2009 192 p. 2266196014 3.04 €
Chroniques du monde émergé, Tome 2 : La mission de Sennar Licia Troisi Pocket 16/04/2009 461 p. 226617696X 18.05 €
Dune, la genèse, Tome 3 : La bataille de Corrin Brian Herbert Kevin-J Anderson Pocket 16/04/2009 757 p. 2266192159 11.2 €
La simplicité du coeur François d'Assise saint Philippe Faure Pocket 16/04/2009 221 p. 226616774X 7.03 €
Prisonnière à Téhéran Marina Nemat Pocket 16/04/2009 372 p. 2266185705 6.94 €
Un lointain pays Daniel Mason Pocket 16/04/2009 345 p. 2266179942 nc.
Mémoires de Fanny Hill, femme de plaisir John Cleland Pocket 15/04/2009 - 2266184113 nc.
Au coeur du mal Chelsea Cain Pocket 09/04/2009 367 p. 2266185411 7.3 €
Les Chroniques des Elfes, Tome 1 : Lliane Jean-Louis Fetjaine Pocket 09/04/2009 317 p. 2266186361 7.22 €
Les Mille et Une Nuits : Trois contes, édition bilingue français-arabe Anonyme Pocket 09/04/2009 223 p. 2266196804 nc.
Les seigneurs des runes, Tome 1 : La douleur de la terre David Farland Bénédicte Lombardo Pocket 09/04/2009 627 p. 2266188712 9.8 €
Meurtres au scalpel Kathy Reichs Pocket 09/04/2009 532 p. 2266186590 8.1 €
Le Rouge et le Noir Stendhal Pierre-Louis Rey Pocket 04/04/2009 613 p. 2266192701 4.56 €
Avril à Paris Michael Wallner Pocket 02/04/2009 247 p. 2266181726 nc.
Dans un mois, dans un an Françoise Sagan Pocket 02/04/2009 151 p. 2266190008 5.51 €
Je reviens te chercher Guillaume Musso Pocket 02/04/2009 407 p. 2266192361 nc.
L'impasse Antoine Choplin Pocket 02/04/2009 139 p. 2266173774 nc.
Les faux-fuyants Françoise Sagan Pocket 02/04/2009 187 p. 2266189980 6.2 €
Les grands philosophes : Tome 2 : ceux qui fondent la philosophie et ne cessent de l'engendrer : Platon - Saint Augustin Karl Jaspers Pocket 02/04/2009 310 p. 2266191810 nc.
Les merveilleux nuages Françoise Sagan Pocket 02/04/2009 152 p. 2266189999 5.8 €
Un amour de déraison Janine Boissard Pocket 02/04/2009 229 p. 2266185071 5.8 €
Un certain sourire Francoise Sagan Pocket 02/04/2009 124 p. 2266189972 5.04 €
Ruy Blas Victor Hugo Pocket 24/03/2009 283 p. 2266194658 nc.
Gay Vinci Code : Pasticherie fine Pascal Fioretto Pocket 19/03/2009 241 p. 2266181408 nc.
Le chant des sorcières Mireille Calmel Pocket 19/03/2009 394 p. 2266188658 7.3 €
Le jeune amour Michel Jeury Pocket 19/03/2009 441 p. 2266172662 nc.
Le secret de Lily Quinn Paullina Simons Pocket 19/03/2009 624 p. 2266183311 nc.
Les 4 saisons des brèves de comptoir, Tome 1 : Le printemps Jean-Marie Gourio P Chalmin Pocket 19/03/2009 277 p. 2266181688 6.2 €
Les chemins de Garance Françoise Bourdon Pocket 19/03/2009 281 p. 2266178156 6.8 €
On ne badine pas avec l'amour Alfred de Musset Pocket 19/03/2009 190 p. 2266194631 4.37 €
Si nous nous taisons ... : Le martyre des moines de Tibhirine Rene Guitton Pocket 19/03/2009 277 p. 2266192434 6.84 €
Troublantes visions Jayne Ann Krentz Pocket 19/03/2009 401 p. 226618427X nc.
L'Affaire du lieutenant Scott John Katzenbach Pocket 12/03/2009 723 p. 2266169556 8.4 €
L'Agent des ombres, Tome 3 : Sang-pitié Michel Robert Pocket 12/03/2009 441 p. 2266192574 8.4 €
Le retour des ténèbres Isaac Asimov Robert Silverberg Pocket 12/03/2009 535 p. 2266192353 8.65 €
Un week-end entre amis Madeleine Wickham Pocket 12/03/2009 256 p. 2266191748 6.2 €
Balade pour un père oublié Jean Teulé Pocket 05/03/2009 157 p. 2266188682 5.3 €
Bord cadre Jean Teulé Pocket 05/03/2009 175 p. 2266188690 5.8 €
Darkside, Tome 1 : Le royaume des ténèbres Tom Becker Pocket 05/03/2009 232 p. 2266178423 nc.
Ex-appeal Zoë Barnes Pocket 05/03/2009 466 p. 2266129929 7.22 €
Jusqu'aux yeux... Zoë Barnes Pocket 05/03/2009 435 p. 2266190571 6.94 €
L'étudiante étrangère Élodie Büri Pocket 05/03/2009 154 p. 2266181068 nc.
Le Montespan Jean Teulé Pocket 05/03/2009 309 p. 2266186744 6.46 €
Le chemin parcouru : Mémoires d'un enfant soldat Ishmael Beah Pocket 05/03/2009 310 p. 2266185063 nc.
Mais qu'est-ce qu'on va faire de toi ? Michel Drucker Jean-François Kervéan Pocket 05/03/2009 263 p. 2266183400 7.3 €
Rainbow pour Rimbaud Jean Teulé Pocket 05/03/2009 204 p. 2266188704 5.8 €
Vivre dans un monde en crise : Ce que la vie nous enseigne en ces temps difficiles Jiddu Krishnamurti Pocket 05/03/2009 260 p. 2266185772 6.8 €
Dans les bois Harlan Coben Pocket 03/03/2009 490 p. 2266191942 nc.
Les Caprices de Marianne Alfred de Musset Pocket 03/03/2009 140 p. 2266194623 3.14 €
Docteur, puis-je vous voir avant six mois ? Nicole de Buron Pocket 02/03/2009 223 p. 2266186442 5.51 €
Et Soudain le Silence Plain Belva Pocket 02/03/2009 - 2266187058 6.37 €
Les Femmes savantes Molière Françoise Thomé-Gomez Pocket 25/02/2009 238 p. 2266194615 3.04 €
Callisto Torsten Krol Pocket 19/02/2009 473 p. 2266180762 nc.
Comme un feu secret Belva Plain Pocket 19/02/2009 - 2266187066 7.32 €
Jamais seuls ensemble : Comment vivre à deux en restant différents Jacques Salomé Pocket 19/02/2009 211 p. 2266184997 6.37 €
L'art de la gentillesse Piero Ferrucci Pocket 19/02/2009 280 p. 2266179888 nc.
L'or blanc des pâturages Henriette Bernier Pocket 19/02/2009 309 p. 2266171186 nc.
La dernière chamane Barbara Wood Pocket 19/02/2009 759 p. 2266181238 nc.
La proie des ombres John Connolly Pocket 19/02/2009 569 p. 2266188569 8.1 €
La vague Todd Strasser Pocket 19/02/2009 221 p. 2266185691 6.2 €
Le testament des McGovern Hervé Jaouen Pocket 19/02/2009 351 p. 2266191349 nc.
Les animatueurs Michel Malausséna Pocket 19/02/2009 293 p. 2266185713 nc.
Les chatons magiques, Tome 8 : Au concours d'équitation Sue Bentley Pocket 19/02/2009 117 p. 2266185136 4.9 €
Louis XIV, Tome 1 : Le Roi-Soleil Max Gallo Pocket 19/02/2009 419 p. 9782266185646 6.94 €
Louis XIV, Tome 2 : L'hiver du Grand Roi Max Gallo Pocket 19/02/2009 344 p. 9782266185653 6.84 €
Un doux parfum de lavande Belinda Alexandra Pocket 19/02/2009 696 p. 2266172379 nc.
La complainte des arcanes Thierry Carmes Pocket 12/02/2009 313 p. 9782266178778 6.27 €
La lune de papier Andrea Camilleri Pocket 12/02/2009 244 p. 9782266185356 6.46 €
Les Enfants de la destinée, Tome 1 : Coalescence Stephen Baxter Pocket 12/02/2009 730 p. 2266173758 11.2 €
Sans issue Lisa Unger Pocket 12/02/2009 420 p. 2266185314 7.7 €
Vert Palatino : Un printemps meurtrier Gilda Piersanti Pocket 12/02/2009 283 p. 2266175556 6.8 €
A l'ouest de l'horizon Wilbur Smith Thierry Piélat Pocket 05/02/2009 1014 p. 2266181637 11.2 €
Amos Daragon, Tome 7 : Voyage aux Enfers Bryan Perro Pocket 05/02/2009 193 p. 2266187821 nc.
Kiki Strike, Tome 1 : Kiki Strike dans la cité clandestine Kirsten Miller Pocket 05/02/2009 458 p. 2266179012 nc.
La Kahina Gisèle Halimi Pocket 05/02/2009 281 p. 226617407X 6.8 €
Le seigneur de Bombay Vikram Chandra Pocket 05/02/2009 1265 p. 2266181785 11.31 €
Les matins de Jénine Susan Abulhawa Pocket 05/02/2009 423 p. 2266190040 nc.
Les roses noires Antoine-B Daniel Pocket 05/02/2009 427 p. 2266177605 nc.
Mémoires glacées Nicolas Vanier Pocket 05/02/2009 375 p. 2266185683 6.84 €
Nouveaux carnets intimes d'une jeune fille pas rangée Maïna Lecherbonnier Pocket 05/02/2009 162 p. 2266168967 nc.
Shoe addicts Beth Harbison Pocket 05/02/2009 374 p. 2266185373 6.84 €
Tout l'univers dans un atome : Science et bouddhisme, une invitation au dialogue Dalaï-Lama Pocket 05/02/2009 216 p. 2266172727 6.8 €
Un désordre américain Ken Kalfus Pocket 05/02/2009 306 p. 2266173065 nc.
Un homme, un vrai Tom Wolfe Pocket 05/02/2009 1008 p. 2266188674 11.2 €
Yona fille de la préhistoire, Tome 10 : Le vallon maudit Florence Reynaud Pocket 05/02/2009 127 p. 226618184X 4.56 €
Le ventre de paris Emile Zola Gérard Gengembre Pocket 04/02/2009 413 p. 2266193805 nc.
Des enfants tombés du ciel Gilbert Bordes Pocket 22/01/2009 437 p. 2266150030 nc.
Grand-mère Antonia : La tradition Albarède Jean-Paul Malaval Pocket 22/01/2009 462 p. 2266165267 nc.
Je me suis réveillé en colère Marek Halter Pocket 22/01/2009 182 p. 2266183303 nc.
L'ordre du monde Denis Lépée Pocket 22/01/2009 407 p. 2266179314 nc.
La créativité : Psychologie de la découverte et de l'invention Mihaly Csikszentmihalyi Pocket 22/01/2009 538 p. 2266169513 nc.
Princesse Danielle Steel Pocket 22/01/2009 344 p. 2266190334 nc.
Sur de lointains rivages Kristin Hannah Pocket 22/01/2009 375 p. 226617195X nc.
Le Prince Machiavel Christian Bec Marie-Madeleine Fragonard Pocket 17/01/2009 280 p. 2266192728 4.37 €
Petits poèmes en prose : (Le Spleen de Paris) Charles Baudelaire Pocket 17/01/2009 192 p. 226619271X 3.3 €
L'accusé John Grisham Pocket 15/01/2009 429 p. 2266179896 nc.
L'héritage des Templiers Steve Berry Pocket 15/01/2009 624 p. 2266169580 8.4 €
La Roue du Temps, Tome 13 : Une couronne d'épées Robert Jordan Pocket 15/01/2009 541 p. 2266177168 8.65 €
La Roue du Temps, Tome 14 : Les lances de feu Robert Jordan Pocket 15/01/2009 531 p. 2266177176 8.65 €
Les Chroniques de Thomas Covenant, Tome 3 : La terre dévastée Stephen-R Donaldson Pocket 15/01/2009 674 p. 2266178318 9.31 €
Les fantômes du palace Martha Grimes Pocket 15/01/2009 467 p. 9782266188197 7.03 €
Artistes sans art ? Jean-Philippe Domecq Pocket 08/01/2009 287 p. 2266190342 nc.
Eloge de l'énergie vagabonde Sylvain Tesson Pocket 08/01/2009 227 p. 2266178741 6.8 €
Happy birthday grand-mère Valérie Saubade Pocket 08/01/2009 235 p. 2266189212 nc.
Jouissances de femmes Clara Basteh Sophie Cadalen Lou Cristal Pocket 08/01/2009 214 p. 2266173782 nc.
Journal d'une femme adultère Curt Leviant Pocket 08/01/2009 951 p. 2266181181 10.64 €
L'étrange histoire de Benjamin Button : Suivie de Un diamant gros comme le Ritz Francis-Scott Fitzgerald Pocket 08/01/2009 117 p. 2266190555 1.55 €
Les petites soeurs Valérie Saubade Pocket 08/01/2009 349 p. 2266189220 6.46 €
Les tribulations d'une chamane à Paris Corine Sombrun Pocket 08/01/2009 216 p. 2266178474 6.8 €
Les vacances de Rachel Marian Keyes Pocket 08/01/2009 563 p. 2266188720 6.94 €
Misère de l'art : Essai sur le dernier demi-siècle de création Jean-Philippe Domecq Pocket 08/01/2009 255 p. 2266187953 nc.
Pardonnez-moi Amanda Eyre Ward Pocket 08/01/2009 279 p. 2266176730 nc.
Réponds, si tu m'entends Marian Keyes Pocket 08/01/2009 525 p. 9782266184861 7.7 €
Traité sur l'éducation des femmes Pierre Choderlos de Laclos Pocket 08/01/2009 205 p. 2266188550 nc.
Jurassic Park Michael Crichton Pocket 06/01/2009 508 p. 2266193473 6.84 €
Le Portrait de Dorian Gray Oscar Wilde Pocket 06/01/2009 345 p. 2266192698 3.28 €
Toutânkhamon : L'ultime secret Christian Jacq Pocket 01/01/2009 397 p. 2266188763 8.1 €
Le monde perdu Michael Crichton Pocket 24/12/2008 473 p. 2266193481 nc.
Pardonnez nos offenses Romain Sardou Pocket 20/12/2008 473 p. 2266193783 7.7 €
Que la meilleure gagne Elizabeth Young Pocket 16/12/2008 - 226619268X nc.
L'Education sentimentale Gustave Flaubert Pocket 10/12/2008 556 p. 2266192736 4.7 €
A tout prix Mélanie Muller Pocket 04/12/2008 183 p. 2266168959 nc.
Jamais je ne reviendrai Brian Freeman Pocket 04/12/2008 568 p. 2266176773 nc.
Le sang des Koenigsmark, Tome 2 : Fils de l'Aurore Juliette Benzoni Pocket 04/12/2008 441 p. 226618105X 7.7 €
Une proie mortelle John Sandford Pocket 04/12/2008 474 p. 2266165690 nc.
Heartland, Tome 33 : En quête de vérité Lauren Brooke Natacha Godeau Pocket 20/11/2008 123 p. 2266185543 4.56 €
Pourquoi l'amour ne suffit pas : Aider l'enfant à se construire Claude Halmos Pocket 20/11/2008 249 p. 2266188127 7.3 €
Un amour en hiver Elizabeth Berg Pocket 20/11/2008 311 p. 2266171143 nc.
Un cerveau pour changer : La Programmation Neuro-Linguistique Richard Bandler Connirae Andreas Steve Andreas Pocket 20/11/2008 247 p. 2266175998 6.94 €
Une lumière sur la neige Anita Shreve Pocket 20/11/2008 280 p. 226616631X nc.
Malataverne Bernard Clavel Pocket 18/11/2008 187 p. 2266187791 3.9 €
Retour en Cornouailles Rosamunde Pilcher Pocket 18/11/2008 950 p. 2266191586 9.1 €
L'Arcane des Epées, Tome 6 : Le cri de Camaris Tad Williams Pocket 14/11/2008 444 p. 2266192124 7.98 €
Hannibal Lecter : Les origines du Mal Thomas Harris Pocket 13/11/2008 377 p. 2266179330 6.84 €
Les Enfants de la Terre, Tome 3 : Les Chasseurs de mammouths Jean M. Auel Pocket 13/11/2008 914 p. 2266191578 7.7 €
Les Scarifiés China Miéville Pocket 13/11/2008 849 p. 2266154990 11.2 €
Mauvais sang Tess Gerritsen Pocket 13/11/2008 502 p. 2266171224 7.7 €
Mémoire piégée Nicci French Pocket 13/11/2008 437 p. 2266166638 nc.
Terminus Elicius Karine Giebel Pocket 13/11/2008 248 p. 2266180754 nc.
Brèves de comptoir : L'anniversaire Jean-Marie Gourio Pocket 06/11/2008 370 p. 2266182854 nc.
Coffret Africa en 3 volumes : Ebène ; L'Africaine ; La reine des pluies Francesca Marciano Ryszard Kapuscinski Katherine Scholes Pocket 06/11/2008 1 p. 2266187503 nc.
Coffret Au secours, j'ai 30 ans ! en 3 volumes : Ce crétin de prince charmant, Les mésaventures de Minty Malone, Confessions d'une accro du shopping Agathe Colombier Hochberg Isabel Wolff Sophie Kinsella Pocket 06/11/2008 1 p. 2266187481 nc.
Contes sensuels de Noël : Les douze coups de minuit Elisabeth Barillé Sophie Cadalen Cléa Carmin Pocket 06/11/2008 213 p. 2266179772 nc.
Douglas Kennedy Coffret 3 volumes : Rien ne va plus ; Les charmes discrets de la vie conjugale ; La femme du Ve Douglas Kennedy Pocket 06/11/2008 1 p. 2266187465 nc.
God save les Françaises Stephen Clarke Pocket 06/11/2008 485 p. 9782266164214 7.7 €
Guillaume Musso Coffret en 3 volumes : Et après..., Sauve-moi, Parce que je t'aime Guillaume Musso Pocket 06/11/2008 1 p. 2266187457 nc.
Les lumières de Cordoue à Berlin : une histoire intellectuelle du judaïsme, Tome 2 : Les grands penseurs, les courants majeurs, les débats, du XVIIe à Maurice-Ruben Hayoun Pocket 06/11/2008 698 p. 2266180770 13.9 €
Songe du Vieux Pèlerin Philippe de Mézières Pocket 06/11/2008 1001 p. 2266157116 13.02 €
Uglies : Secrets : Le guide de l'univers d'Uglies Scott Westerfeld Pocket 06/11/2008 193 p. 226618704X 9.5 €
Louis XIV, Tome 3 : Du temps où j'étais roi Jean-Pierre Dufreigne Pocket 21/10/2008 341 p. 226613339X nc.
Et si ce n'était pas lui ? : Gardez-vous d'aimer un pervers Véronique Moraldi Pocket 16/10/2008 319 p. 2266181289 7.32 €
Les Trois Bandits, Tome 1 : Cartouche Michel Peyramaure Pocket 16/10/2008 372 p. 2266168746 nc.
Les boulets rouges de la Commune Georges Coulonges Pocket 16/10/2008 336 p. 2266168878 nc.
Miracle Danielle Steel Pocket 16/10/2008 182 p. 2266183095 nc.
Un cadeau inespéré Françoise Bourdin Pocket 16/10/2008 213 p. 9782266184359 6.8 €
Être heureux ce n'est pas nécessairement confortable - Trouver le bonheur et non ce que l'on croit être le bonheur Thomas d'Ansembourg Pocket 16/10/2008 350 p. 2266181254 7.3 €
Anatomie d'un crime Elizabeth George Pocket 09/10/2008 763 p. 9782266182294 nc.
L'Agent des ombres, Tome 2 : Coeur de Loki Michel Robert Pocket 09/10/2008 668 p. 2266174142 9.1 €
L'avenir commence demain Isaac Asimov Pocket 09/10/2008 342 p. 226618377X 6.94 €
La mémoire fantôme Franck Thilliez Pocket 09/10/2008 441 p. 2266178490 nc.
Les Rêveurs, Tome 4 : La folie des dieux David Eddings Pocket 09/10/2008 425 p. 226617715X 7.5 €
Bush, l'Iran et la bombe : Enquête sur une guerre programmée Eric Laurent Pocket 02/10/2008 375 p. 2266183524 nc.
Deux heures Sylvia Rozelier Pocket 02/10/2008 115 p. 2266167642 nc.
Le clan Rhett Butler Donald McCaig Pocket 02/10/2008 694 p. 2266183419 7.98 €
Les deux affaires Grégory Etienne Sesmat Pocket 02/10/2008 435 p. 2266178180 nc.
Les lois de la gravité Jean Teulé Pocket 02/10/2008 138 p. 2266179268 5.8 €
Les poilus : La France sacrifiée Pierre Miquel Pocket 02/10/2008 502 p. 2266185209 nc.
Sauver Noël Romain Sardou Pocket 02/10/2008 200 p. 2266174045 5.89 €
Desagrégé(e) Christophe Ono-dit-Biot Pocket 01/10/2008 247 p. 2266190539 5.8 €
Génération spontanée Christophe Ono-dit-Biot Pocket 30/09/2008 283 p. 2266190547 7.3 €
Les filles de Sultana Jean P. Sasson Pocket 19/09/2008 250 p. 2266190504 5.8 €
Chroniques de l'asphalte : Tome 2 Samuel Benchetrit Pocket 18/09/2008 245 p. 2266185748 6.37 €
En avant toutes ! Françoise Dorin Pocket 18/09/2008 282 p. 9782266180726 6.8 €
Les colères du ciel et de la terre, Tome 2 : Le dernier orage Gilbert Bordes Pocket 18/09/2008 656 p. 2266165755 nc.
Les enfants face aux écrans : Pornographie : la vraie violence Jacques Henno Pocket 18/09/2008 253 p. 2266171704 nc.
Odeur du temps : Chroniques Jean d' Ormesson Pocket 18/09/2008 471 p. 2266179306 7.22 €
Stop à l'arnaque du bac Jean-Robert Pitte Pocket 18/09/2008 185 p. 2266181173 nc.
Une femme de caractère Michelle Paver Pocket 18/09/2008 509 p. 2266175718 nc.
L'ange noir John Connolly Pocket 11/09/2008 599 p. 2266174843 7.7 €
Le sang des innocents Martha Grimes Pocket 11/09/2008 477 p. 9782266181143 7.3 €
Olympos Dan Simmons Pocket 11/09/2008 1024 p. 2266174126 12.8 €
Temps mort Harlan Coben Pocket 11/09/2008 376 p. 2266185284 nc.
Zoulou Kingdom Christophe Lambert Pocket 11/09/2008 372 p. 2266177117 nc.
Antigone Sophocle Pocket 04/09/2008 135 p. 2266174290 6.84 €
Et si c'était niais ? Pascal Fioretto Pocket 04/09/2008 212 p. 2266181084 nc.
Georges et les secrets de l'univers, Tome 1 Lucy Hawking Stephen Hawking Pocket 04/09/2008 247 p. 2266179357 nc.
Ion : Et autres textes, poésie et philosophie Platon Pocket 04/09/2008 220 p. 2266154303 6.84 €
L'attendrisseur Jacques Serguine Pocket 04/09/2008 344 p. 2266173626 nc.
L'heure et l'ombre Pierre Jourde Pocket 04/09/2008 246 p. 2266171070 nc.
L'ombre des voyageuses Pierre Pelot Pocket 04/09/2008 594 p. 2266160893 nc.
La femme du Ve Douglas Kennedy Pocket 04/09/2008 408 p. 2266179764 nc.
Mes voyages avec Hérodote Ryszard Kapuscinski Pocket 04/09/2008 341 p. 2266173014 7.3 €
Passage du gué Jean-Philippe Blondel Pocket 04/09/2008 306 p. 2266172700 nc.
Ubiquité Claire Wolniewicz Pocket 04/09/2008 148 p. 2266178008 nc.
100 Tests express anglais Jean-Pierre Berman Michel Marcheteau Michel Savio Pocket 14/08/2008 95 p. 226618587X 1.9 €
Amour, liaisons et libertinage Choderlos de Laclos Annie Collognat Pocket 14/08/2008 226 p. 226618590X nc.
Brune Mano Pocket 14/08/2008 191 p. 2266169106 nc.
Conjugaison et déclinaisons allemandes Stéphane Rilling Pocket 14/08/2008 94 p. 2266185896 1.99 €
Conjugaison italienne Aurore Mennella Pocket 14/08/2008 125 p. 2266185888 1.8 €
God save la France Stephen Clarke Pocket 14/08/2008 319 p. 2266164945 7.3 €
Je serai là demain Eric Dardill Pocket 14/08/2008 434 p. 2266169076 nc.
Le temps et la paille Jean Anglade Pocket 14/08/2008 344 p. 2266174835 6.8 €
Next Michael Crichton Pocket 14/08/2008 551 p. 2266182048 7.98 €
Pour une femme de son âge Dominique Fabre Pocket 14/08/2008 288 p. 2266173960 nc.
Psycho Richard Montanari Pocket 14/08/2008 527 p. 2266167693 8.1 €
La trace : Le dernier secret de Jean-Paul II Frédéric Bovis Jean-François Lopez Léopold Jorge Pocket 03/07/2008 373 p. 226617553X nc.
Le Cycle d'Ea, Tome 1 : Le neuvième royaume David Zindell Pocket 03/07/2008 790 p. 226615513X 11.9 €
Op-Center, Tome 8 : Ligne de contrôle Tom Clancy Steve Pieczenik Jeff Rovin Pocket 03/07/2008 535 p. 226614989X nc.
Un horizon de cendres Jean-Pierre Andrevon Pocket 03/07/2008 242 p. 2266177222 nc.
26a Diana Evans Pocket 19/06/2008 372 p. 2266179241 nc.
Amor, Tome 1 : Mireille Lesage Pocket 19/06/2008 379 p. 2266171674 nc.
Amor, Tome 2 : Roma Mireille Lesage Pocket 19/06/2008 371 p. 2266171682 nc.
Approches de la méditation Arnaud Desjardins Pocket 19/06/2008 246 p. 2266177559 6.8 €
La baie des maudits Alain Dubos Pocket 19/06/2008 554 p. 2266168835 nc.
La clé du bonheur Danielle Steel Pocket 19/06/2008 374 p. 2266182757 nc.
Les Reines pourpres, Tome 2 : Les larmes de Brunehilde Jean-Louis Fetjaine Pocket 19/06/2008 341 p. 2266180681 nc.
On a roulé sur la terre Alexandre Poussin Sylvain Tesson Pocket 19/06/2008 441 p. 2266159674 7.7 €
Rire pour ne pas mourir Jean-Marie Bigard Lionel Duroy Pocket 19/06/2008 228 p. 2266181165 nc.
Va voir maman... papa travaille ! Françoise Dorin Pocket 19/06/2008 253 p. 226617794X 5.8 €
L'Agent des ombres, Tome 1 : L'Ange du Chaos Michel Robert Pocket 12/06/2008 507 p. 2266174134 7.98 €
L'Ecorcheur Neal Asher Pocket 12/06/2008 560 p. 2266155016 nc.
La nuit des autres Yvonne Besson Pocket 12/06/2008 349 p. 2266157574 nc.
Le Chandelier d'Or David Gibbins Pocket 12/06/2008 434 p. 2266164872 6.84 €
Le Frère de Sang Eric Giacometti Jacques Ravenne Pocket 12/06/2008 550 p. 2266176285 7.7 €
Les Chroniques de Thomas Covenant, Tome 2 : La retraite maudite Stephen-R Donaldson Pocket 12/06/2008 683 p. 226617830X 9.98 €
Il était une fois l'URSS : Le fantastique raid automobile de deux jeunes couples français sur les routes interdites du pays des soviets Dominique Lapierre Pocket 05/06/2008 199 p. 2266169483 nc.
La preuve par neuf Dorine Bertrand Pocket 05/06/2008 151 p. 2266156721 nc.
La rivière des âmes Mireille Calmel Pocket 05/06/2008 312 p. 9782266177597 6.37 €
La trahison de l'Ange Eve de Castro Pocket 05/06/2008 469 p. 2266172670 nc.
Les Liaisons dangereuses Pierre Choderlos de Laclos Catherine Bouttier Annie Collognat Pocket 05/06/2008 640 p. 2266184911 nc.
Les enfants de la liberté Marc Levy Pocket 05/06/2008 375 p. 2266183370 6.36 €
Les petits secrets d'Emma Sophie Kinsella Pocket 05/06/2008 381 p. 2266156799 6.8 €
Ma vie rebelle Ayaan Hirsi Ali Pocket 05/06/2008 591 p. 2266179217 7.79 €
Pig Island Mo Hayder Pocket 05/06/2008 471 p. 226617875X 7.3 €
Allez, France ! Janine Boissard Pocket 22/05/2008 219 p. 2266179284 6.8 €
Hôtel Riviera Elizabeth Adler Pocket 22/05/2008 309 p. 226616483X nc.
L'Empire des larmes, Tome 1 : La guerre de l'opium José Frèches Pocket 22/05/2008 663 p. 2266174029 8.4 €
L'Empire des larmes, Tome 2 : Le sac du Palais d'Eté José Frèches Pocket 22/05/2008 618 p. 2266174037 nc.
La dame des Forges Nathalie de Broc Pocket 22/05/2008 270 p. 2266171178 nc.
La rebelle Jennifer Donnelly Pocket 22/05/2008 422 p. 2266168797 nc.
La symphonie des loups Jean Siccardi Pocket 22/05/2008 233 p. 2266168851 nc.
Vikings Patrick Weber Pocket 22/05/2008 314 p. 2266174169 6.8 €
Aide-moi... Nicci French Pocket 14/05/2008 346 p. 9782266176279 nc.
Cibles à abattre Chris Ryan Pocket 14/05/2008 473 p. 2266164902 nc.
Dune, la genèse, Tome 2 : Le Jihad butlérien Brian Herbert Kevin-J Anderson Pocket 14/05/2008 861 p. 2266183788 10.64 €
Le secrétaire italien Caleb Carr Pocket 14/05/2008 279 p. 2266171232 6.27 €
Vénus Ben Bova Pocket 14/05/2008 473 p. 2266181378 8.4 €
Parce que je t'aime Guillaume Musso Pocket 07/05/2008 313 p. 9782266179652 nc.
Crime et couches-culottes Jennifer Weiner Pocket 06/05/2008 441 p. 2266173596 6.94 €
Diviniser l'homme Henri-Pierre Rinckel Pocket 06/05/2008 212 p. 2266167251 7.7 €
Enfances : Neuf écrivains racontent ou réinventent un souvenir d'enfance Ananda Devi Florent Couao-Zotti Eliane Kodjo Pocket 06/05/2008 152 p. 2266173561 nc.
L'ami de coeur Liz Young Pocket 06/05/2008 406 p. 2266173057 nc.
La femme du marin Katherine Scholes Pocket 06/05/2008 372 p. 2266180665 nc.
La raison du coeur Nicholas Sparks Pocket 06/05/2008 349 p. 2266182749 nc.
Le manuel de la mauvaise mère Kate Long Pocket 06/05/2008 406 p. 2266174827 6.84 €
Les fantômes de Goya Jean-Claude Carrière Milos Forman Pocket 06/05/2008 334 p. 2266171127 nc.
Pour faire la paix en temps de guerre : Un point de vue bouddhiste Pema Chödrön Pocket 06/05/2008 85 p. 2266177540 nc.
Pour toujours... jusqu'à demain Sarah Dessen Pocket 06/05/2008 452 p. 2266178954 nc.
Textes essentiels de la pensée chinoise : Confucius et le confucianisme Confucius Pocket 06/05/2008 349 p. 2266182803 8.4 €
Warm up Bénédicte Martin Pocket 06/05/2008 116 p. 2266174452 nc.
L'Inconnue de Saïgon Paul Couturiau Pocket 16/04/2008 374 p. 2266157914 nc.
L'inconnue de Peyrolles Françoise Bourdin Pocket 16/04/2008 381 p. 226617200X 6.46 €
Le dernier Templier Raymond Khoury Pocket 16/04/2008 599 p. 9782266171540 7.98 €
Le livre des jours Michael Cunningham Pocket 16/04/2008 439 p. 2266171976 nc.
Le secret des cépages Frédérick d' Onaglia Pocket 16/04/2008 441 p. 226617486X nc.
Le vent de l'aube Françoise Bourdon Pocket 16/04/2008 347 p. 2266168827 6.8 €
Les gestes prédictifs Joseph Messinger Pocket 16/04/2008 286 p. 2266176714 7.3 €
Retour à Kiss River Diane Chamberlain Pocket 16/04/2008 505 p. 2266171550 nc.
Une douloureuse absence Mary McGarry Morris Pocket 16/04/2008 309 p. 2266176757 nc.
Danse !, Tome 12 : Nina se révolte Anne-Marie Pol Pocket 15/04/2008 136 p. 2266184369 nc.
Teacher Man, un jeune prof à New-York Frank McCourt Pocket 15/04/2008 363 p. 226617360X 6.84 €
A tombeau ouvert Kathy Reichs Pocket 10/04/2008 500 p. 226617763X 8.1 €
Le fabuleux Maurice et ses rongeurs savants : Un roman du Disque-Monde Terry Pratchett Pocket 10/04/2008 285 p. 2266182021 6.46 €
Les Rêveurs, Tome 3 : Les gorges de cristal David Eddings Leigh Eddings Pocket 10/04/2008 536 p. 2266177141 9.1 €
C'est pas sorcier, Harry ! : Le septième livre n'aura pas lieu Gordon Zola Pocket 02/04/2008 341 p. 2266180649 nc.
Des camions de tendresse Françoise Rey Pocket 02/04/2008 252 p. 2266171941 nc.
Espion de Dieu Juan Gomez-Jurado Pocket 02/04/2008 421 p. 2266178229 nc.
L'Autopsie de Satan Luis de La Higuera Pocket 02/04/2008 472 p. 2266167081 nc.
La deuxième lune de miel Joanna Trollope Pocket 02/04/2008 390 p. 2266171135 nc.
La pigmentation du caméléon Thomas Bouvatier Pocket 02/04/2008 247 p. 2266167022 nc.
Les enfants de la liberté Marc Levy Pocket 02/04/2008 367 p. 9782266148535 nc.
Les tigresses de Park Avenue Carrie Karasyov Jill Kargman Pocket 02/04/2008 311 p. 226617634X nc.
Totto-Chan : La petite fille à la fenêtre Tetsuko Kuroyanagi Pocket 02/04/2008 282 p. 2266166050 6.37 €
La Malvoisine Yves Viollier Pocket 01/04/2008 153 p. 2266184180 nc.
ABC de la relaxation Jacques Choque Pocket 26/03/2008 188 p. 2266176870 6.27 €
Derrière la porte Alina Reyes Pocket 19/03/2008 435 p. 2266165089 nc.
La Voleuse de livres Markus Zusak Pocket 19/03/2008 633 p. 2266175963 8.1 €
Le miroir aux mensonges Jayne Ann Krentz Pocket 19/03/2008 395 p. 2266171577 nc.
Le sang des Koenigsmark, Tome 1 : Aurore Juliette Benzoni Pocket 19/03/2008 374 p. 2266175742 7.3 €
Le treizième conte Diane Setterfield Pocket 19/03/2008 567 p. 2266173766 nc.
Les anges maudits de Tourlaville Yves Jacob Pocket 19/03/2008 397 p. 2266171194 nc.
Mon grand-père mineur Marie-Paul Armand Pocket 19/03/2008 421 p. 2266176781 7.3 €
Mozart, Tome 3 : Le frère du feu Christian Jacq Pocket 19/03/2008 394 p. 2266168444 7.7 €
Mozart, Tome 4 : L'aimé d'Isis Christian Jacq Pocket 19/03/2008 379 p. 2266168452 7.7 €
La mort leur va si bien Peter James Pocket 12/03/2008 501 p. 2266175521 nc.
Le Peuple des Rennes, Tome 2 : Le frère du Loup Megan Lindholm Pocket 12/03/2008 351 p. 2266160354 6.65 €
Ma vérité sur la planète Claude Allègre Pocket 12/03/2008 273 p. 2266180789 nc.
Où rôdent les hommes : Une enquête de Simon Serrailler Susan Hill Pocket 12/03/2008 509 p. 2266164201 7.5 €
Promets-moi Harlan Coben Pocket 12/03/2008 507 p. 2266178202 nc.
Une histoire de fous John Katzenbach Pocket 12/03/2008 748 p. 2266167545 8.1 €
La rage au coeur Ingrid Betancourt Lionel Duroy Pocket 11/03/2008 248 p. 2266184148 nc.
J'aurais préféré vivre Thierry Cohen Pocket 06/03/2008 219 p. 2266178210 6.2 €
Je suis né aujourd'hui au lever du jour Jorge Bucay Pocket 06/03/2008 149 p. 2266158651 5.8 €
Une situation légèrement délicate Mark Haddon Pocket 06/03/2008 569 p. 2266181831 nc.
Afrique ambiguë Georges Balandier Pocket 05/03/2008 379 p. 2266181475 8.1 €
Introduction à la philosophie occidentale : Héraclite - Parménide - Platon - Descartes Pierre Jacerme Pocket 05/03/2008 126 p. 2266176889 nc.
Le Magasin des Suicides Jean Teulé Pocket 05/03/2008 157 p. 9782266179270 5.04 €
Les Bienveillantes décryptées Marc Lemonier Pocket 05/03/2008 248 p. 2266181645 nc.
Les amours de Laura Quick Isabel Wolff Pocket 05/03/2008 439 p. 2266169610 7.3 €
Les mésaventures de Minty Malone Isabel Wolff Pocket 05/03/2008 528 p. 2266178059 7.7 €
Les tribulations de Tiffany Trott Isabel Wolff Pocket 05/03/2008 473 p. 2266178067 7.3 €
Misérable Miranda Isabel Wolff Pocket 05/03/2008 441 p. 2266178075 7.3 €
Nous sommes tous des playmobiles Nicolas Ancion Pocket 05/03/2008 151 p. 2266182277 nc.
Peinture fraîche Zoë Barnes Pocket 05/03/2008 501 p. 2266129937 nc.
Réponses sur l'éducation Jiddu Krishnamurti Pocket 05/03/2008 213 p. 2266168940 nc.
Les Caprices de Marianne Alfred de Musset Pocket 27/02/2008 141 p. 2266183907 nc.
Fritna Gisèle Halimi Pocket 21/02/2008 218 p. 2266184024 6.2 €
La Belgariade, Tome 1 : Le pion blanc des présages David Eddings Pocket 21/02/2008 347 p. 2266174657 7.22 €
L'essence de la foi Benoît XVI Pocket 20/02/2008 106 p. 2266177575 nc.
L'idée de République Juliette Grange Pocket 20/02/2008 254 p. 2266178288 7.03 €
La dynastie des Lytton Penny Vincenzi Pocket 20/02/2008 753 p. 2266171569 nc.
La philosophie-Un jeu d'enfant Raphaël Enthoven Pocket 20/02/2008 203 p. 226617827X nc.
Le soleil des mineurs Elise Fischer Pocket 20/02/2008 393 p. 2266174495 nc.
Les ciels de la baie d'Audierne Hervé Jaouen Pocket 20/02/2008 343 p. 2266168924 nc.
Les trésors de la vie Belva Plain Pocket 20/02/2008 553 p. 2266178172 nc.
Mozart, Tome 1 : Le Grand Magicien Christian Jacq Pocket 20/02/2008 390 p. 2266168428 7.22 €
Mozart, Tome 2 : Le Fils de la Lumière Christian Jacq Pocket 20/02/2008 390 p. 2266168436 7.32 €
Cours, ma jolie Lisa Unger Pocket 13/02/2008 457 p. 2266174851 7.7 €
La légende de Hawkmoon, Tome 7 : La quête de Tanelorn Michael Moorcook Pocket 13/02/2008 147 p. 2266173006 5.8 €
La peur de Montalbano Andrea Camilleri Pocket 13/02/2008 285 p. 2266179853 6.8 €
Le troisième secret Steve Berry Pocket 13/02/2008 471 p. 2266167723 8.1 €
Les Chroniques de Thomas Covenant, Tome 1 : La malédiction du Rogue Stephen-R Donaldson Pocket 13/02/2008 667 p. 2266178296 8.4 €
Rouge abattoir : Un hiver meurtrier Gilda Piersanti Pocket 13/02/2008 277 p. 2266175548 6.8 €
Ecoute ma voix Susanna Tamaro Pocket 06/02/2008 212 p. 2266174665 nc.
En attendant le roi du monde Olivier Maulin Pocket 06/02/2008 248 p. 2266167030 nc.
Extases de femmes Corine Allouch Elisabeth Barillé Mercedes Belange Pocket 06/02/2008 280 p. 2266165666 nc.
Imperium Robert Harris Pocket 06/02/2008 466 p. 2266174061 7.7 €
Je vous aime Catherine Siguret Pocket 06/02/2008 146 p. 9782266177665 nc.
L'art de la joie Goliarda Sapienza Pocket 06/02/2008 835 p. 2266178016 9.31 €
Les Chevaliers du Royaume David Camus Pocket 06/02/2008 581 p. 226615575X 7.7 €
Mes secrets d'écrivain : Ecrire un roman, ça s'apprend ! Elizabeth George Pocket 06/02/2008 372 p. 2266172603 nc.
Objectif : Pôle Nord de nuit Mike Horn Jean-Philippe Chatrier Pocket 06/02/2008 212 p. 2266179551 7.3 €
Quelque part dans le monde Claude Michelet Pocket 06/02/2008 423 p. 2266176706 7.7 €
Eternels célibataires Danielle Steel Pocket 16/01/2008 413 p. 2266179594 nc.
La méthode simple pour prendre la vie du bon côté Allen Carr Pocket 16/01/2008 145 p. 2266156888 5.8 €
Néfertiti la parfaite Nick Drake Pocket 16/01/2008 467 p. 2266173049 nc.
Petit traité sur l'immensité du monde Sylvain Tesson Pocket 16/01/2008 166 p. 2266167596 6.2 €
Surmonter les émotions destructrices : Un dialogue avec le Dalaï-Lama Daniel Goleman Dalaï-Lama Pocket 16/01/2008 682 p. 2266146149 10.5 €
Une étrange entreprise Jean Anglade Pocket 16/01/2008 327 p. 2266163094 6.37 €
Evolution, Tome 1 : Stephen Baxter Pocket 09/01/2008 455 p. 2266169025 7.7 €
Evolution, Tome 2 : Stephen Baxter David Camus Pocket 09/01/2008 545 p. 2266179349 nc.
L'Evangile selon Satan Patrick Graham Pocket 09/01/2008 659 p. 2266173588 7.98 €
La Rédemption d'Althalus, Tome 1 : Les yeux d'Emeraude David Eddings Leigh Eddings Pocket 09/01/2008 476 p. 2266179179 nc.
La Rédemption d'Althalus, Tome 2 : Les trois grimoires David Eddings Leigh Eddings Pocket 09/01/2008 507 p. 2266179187 7.7 €
La légende de Hawkmoon, Tome 6 : Le champion de Garathorm Michael Moorcock Pocket 09/01/2008 154 p. 2266172999 5.8 €
Le chant des arcanes : Premier Chant, Pouvoirs Thierry Carmes Pocket 09/01/2008 421 p. 2266167650 nc.
Le clandestin John Grisham Pocket 09/01/2008 399 p. 2266168738 nc.
Le fantôme de la lande Martha Grimes Pocket 09/01/2008 305 p. 2266171208 6.94 €
Voyage d'une Parisienne à Lhassa : A pied et en mendiant de la Chine à l'Inde à travers le Tibet Alexandra David-Néel Pocket 09/01/2008 372 p. 2266182765 5.8 €
L'Arcane des Epées, Tome 5 : Le livre du nécromant Tad Williams Pocket 05/01/2008 448 p. 2266182536 7.98 €
Le Livre des contes perdus, tome 1 Tolkien Pocket 05/01/2008 359 p. 2266079344 6.37 €
Ce matin, j'ai décidé d'arrêter de manger Justine Marie-Thérèse Cuny Pocket 03/01/2008 149 p. 2266174746 5.42 €
Contours du jour qui vient Léonora Miano Pocket 03/01/2008 247 p. 2266169084 6.37 €
Cycle de Gui de Clairbois, Tome 9 : Le bourbier d'Azincourt Pierre Naudin Pocket 03/01/2008 605 p. 2266174487 nc.
Danseur Colum McCann Pocket 03/01/2008 415 p. 2266153145 nc.
L'homme, ce roseau pensant... : Essai sur les racines de la nature humaine Axel Kahn Pocket 03/01/2008 316 p. 226617987X nc.
La nuit sera chienne Max Genève Pocket 03/01/2008 135 p. 2266179578 nc.
Le Parc-aux-Cerfs Michel Peyramaure Pocket 03/01/2008 340 p. 226616659X nc.
Le judaïsme antique Max Weber Pocket 03/01/2008 538 p. 2266179586 8.45 €
Les lumières de Cordoue à Berlin : Une histoire intellectuelle du judaïsme Maurice-Ruben Hayoun Pocket 03/01/2008 628 p. 2266179861 11.97 €
Les reines pourpres Jean-Louis Fetjaine Pocket 03/01/2008 343 p. 2266170805 nc.
N'attendez pas trop longtemps Agnès Marietta Pocket 03/01/2008 211 p. 2266167634 nc.
Personne n'y échappera Romain Sardou Pocket 03/01/2008 399 p. 2266172751 7.7 €
Pour une métamorphose de l'esprit : Cinquante stances sur la nature de la conscience Thich Nhat Hanh Pocket 03/01/2008 378 p. 2266168169 7.3 €
Danse !, Tome 25 : Tout se détraque Anne-Marie Pol Pocket 13/12/2007 - 2266179837 nc.
La foudre Danielle Steel Pocket 12/12/2007 - 2266180347 nc.
Le dernier porteur d'eau Jean-Claude Ponçon Pocket 26/11/2007 249 p. 2266153641 nc.
L'insoumise Jennifer Donnelly Pocket 23/11/2007 819 p. 2266150316 9.8 €
La légende de Hawkmoon, Tome 5 : Le comte Airain Michael Moorcock Pocket 23/11/2007 155 p. 2266172980 5.8 €
Saga de l'Empire Skolien, Tome 3 : Quantum rose Catherine Asaro Pocket 15/11/2007 605 p. 2266177109 nc.
La Belgariade, Tome 5 : La fin de partie de l'enchanteur David Eddings Pocket 14/11/2007 412 p. 226617472X 8.4 €
Le secret magnifique Belva Plain Pocket 14/11/2007 - 2266181017 nc.
Le Prince du Graal, Tome 1 : La prophétie de la Dame du Lac Nancy McKenzie Pocket 06/11/2007 411 p. 2266164961 nc.
Le Prince du Graal, Tome 2 : Les sortilèges du désir Nancy McKenzie Pocket 06/11/2007 504 p. 226616497X nc.
L'enfant de l'autre Henriette Bernier Pocket 05/11/2007 252 p. 2266156454 nc.
Légendes du mythe de Cthulhu, Tome 1 : L'appel de Cthulhu H-P Lovecraft Pocket 05/11/2007 252 p. 2266173936 6.2 €
Darling Jean Teulé Pocket 02/11/2007 242 p. 2266178377 6.2 €
Guillaume Musso Coffret en 3 volumes : Et après... ; Seras-tu là ? ; Sauve-moi Guillaume Musso Pocket 02/11/2007 1095 p. 2266178598 nc.
Les colères du ciel et de la terre, Tome 1 : La montagne brisée Gilbert Bordes Pocket 02/11/2007 689 p. 2266157221 nc.
Légendes du mythe de Cthulhu, Tome 2 : La chose des ténèbres H.P. Lovecraft August Derleth Pocket 02/11/2007 315 p. 2266173944 6.8 €
Survivre avec les loups Misha Defonseca Vera Lee Marie-Thérèse Cuny Pocket 02/11/2007 251 p. 2266179365 5.42 €
A l'ouest Olivier Adam Pocket 31/10/2007 140 p. 9782266177863 5.3 €
L'orage Régine Deforges Pocket 31/10/2007 101 p. 2266177850 nc.
Camisoles Martin Winckler Pocket 26/10/2007 281 p. 2266152777 nc.
Jeux de dupes Nicci French Pocket 25/10/2007 438 p. 226616662X nc.
Les royaumes d'épines et d'os, Tome 2 : Le Prince charnel Greg Keyes Pocket 25/10/2007 692 p. 2266155113 9.31 €
Une proie rêvée John Sandford Pocket 25/10/2007 516 p. 2266156365 nc.
L'utopie ou la mémoire du futur : De Thomas More à Lénine, le rêve éternel d'une autre société Yolène Dilas-Rocherieux Pocket 22/10/2007 645 p. 2266122290 12.16 €
Les Aventures de Boro, Reporter Photographe : Cher Boro Dan Franck Jean Vautrin Pocket 22/10/2007 565 p. 2266164929 nc.
Mordre Thierry Laurent Pocket 22/10/2007 280 p. 2266162942 nc.
Je serai la princesse du château Janine Boissard Pocket 18/10/2007 249 p. 2266174983 6.2 €
Coupe-gorge Carol O'Connell Pocket 15/10/2007 401 p. 2266166743 nc.
Et si nous inventions notre vie ? Jacques Salomé Pocket 15/10/2007 281 p. 2266166352 7.3 €
Etat d'urgence Michael Crichton Pocket 15/10/2007 731 p. 2266165747 9.1 €
Le monde sans elle Kristin Hannah Pocket 15/10/2007 375 p. 226614121X nc.
La grande avalanche Patrick Breuzé Pocket 12/10/2007 277 p. 2266163159 nc.
La plantation de Bois-Joli Alain Dubos Pocket 12/10/2007 599 p. 2266163140 nc.
Bérill ou la passion en héritage Françoise Bourdin Pocket 11/10/2007 280 p. 2266168894 6.8 €
J'habite en bas de chez-vous Brigitte Pocket 11/10/2007 248 p. 2266174738 6.37 €
Atlantis David Gibbins Pocket 10/10/2007 531 p. 2266164864 8.1 €
Eloge de la cellulite et autres disgrâces Dominique Dyens Pocket 08/10/2007 179 p. 2266167588 nc.
Amère Bertrand Runtz Pocket 04/10/2007 187 p. 2266159585 nc.
Mousson Wilbur Smith Pocket 04/10/2007 1076 p. 2266162624 nc.
Neige en avril Rosamunde Pilcher Pocket 04/10/2007 287 p. 2266177842 6.2 €
Le Gouffre de l'Absolution Alastair Reynolds Pocket 03/10/2007 1180 p. 2266169017 12.8 €
La solution intérieure - Réveillez le potentiel de guérison qui est en vous Thierry Janssen Pocket 01/10/2007 442 p. 2266164910 nc.
Le Café du Pont : Parfums d'enfance Pierre Perret Pocket 27/09/2007 343 p. 2266170880 6.84 €
Apnée Jean-Marie Gourio Pocket 24/09/2007 133 p. 2266157299 nc.
Festins secrets Pierre Jourde Pocket 24/09/2007 473 p. 226616645X nc.
La chasse amoureuse Alina Reyes Pocket 24/09/2007 233 p. 2266164228 nc.
Mourir les yeux ouverts Marie de Hennezel Pocket 24/09/2007 185 p. 2266164376 6.2 €
L'historienne et Drakula, Tome 1 : Elizabeth Kostova Pocket 21/09/2007 502 p. 2266167669 7.03 €
L'historienne et Drakula, Tome 2 : Elizabeth Kostova Pocket 21/09/2007 533 p. 2266167677 nc.
La Mallorée, Tome 3 : Le démon majeur de Karanda David Eddings Pocket 14/09/2007 411 p. 2266171747 8.4 €
Ilium Dan Simmons Pocket 13/09/2007 896 p. 2266149156 12.16 €
La création du monde Jean d'Ormesson Pocket 10/09/2007 210 p. 2266174088 6.94 €
Zéro : Ou Les cinq vies d'Aémer Denis Guedj Pocket 10/09/2007 323 p. 2266166522 nc.
Belgarath le sorcier, Tome 2 : Les années d'espoir David Eddings Leigh Eddings Pocket 09/09/2007 313 p. 2266178865 7.22 €
Grammaire anglaise Jean-Pierre Bermann Pocket 08/09/2007 95 p. 2266164430 1.55 €
Du sang sur le green Harlan Coben Pocket 07/09/2007 409 p. 2266166689 nc.
Tara Duncan, Tome 1 : Les sortceliers Sophie Audouin-Mamikonian Pocket 07/09/2007 559 p. 2266201573 7.7 €
Tara Duncan, Tome 2 : Le livre interdit Sophie Audouin-Mamikonian Pocket 07/09/2007 559 p. 2266176552 7.7 €
L'orchidée sauvage Michelle Paver Pocket 05/09/2007 600 p. 2266159615 nc.
Rêve de neige Rosalind Laker Pocket 05/09/2007 406 p. 2266166298 nc.
La Mallorée, Tome 4 : La sorcière de Darshiva David Eddings Pocket 03/09/2007 508 p. 2266171755 7.22 €
Le nègre du gouverneur : Suivi de Guyane pour tout dire et Le mal du pays Serge Patient Pocket 03/09/2007 166 p. 2266162608 nc.
Lunar park Bret Easton Ellis Pocket 03/09/2007 472 p. 2266164333 nc.
La menace de l'Axe Joe Buff Pocket 31/08/2007 612 p. 2266166735 nc.
La première empreinte Xavier-Marie Bonnot Pocket 31/08/2007 472 p. 2266168274 nc.
Le dernier magicien Megan Lindholm Pocket 31/08/2007 349 p. 2266151797 8.45 €
Un monde impitoyable Martha Grimes Pocket 28/08/2007 439 p. 2266171216 7.22 €
J'ai commencé par un joint Helene Marie-Thérèse Cuny Pocket 27/08/2007 187 p. 2266168088 6.2 €
Journal d'une écolière soviétique Nina Lougovskaïa Pocket 27/08/2007 347 p. 2266165577 7.7 €
Beau gosse Hubert Ben Kemoun Pocket 24/08/2007 120 p. 2266161830 nc.
Pulsions de femmes Corine Allouch Clara Basteh Mercedes Belange Pocket 24/08/2007 245 p. 2266162101 nc.
Un minuscule inventaire Jean-Philippe Blondel Pocket 24/08/2007 272 p. 2266164252 nc.
La tentation de l'oubli Belva Plain Pocket 22/08/2007 499 p. 2266178822 7.32 €
La méthode simple pour maîtriser sa consommation d'alcool Allen Carr Pocket 21/08/2007 319 p. 2266178415 6.2 €
L'esprit d'amour : La pratique du regard profond dans la tradition bouddhiste mahayana Thich Nhat Hanh Pocket 18/08/2007 171 p. 2266179411 4.56 €
Les dix gros Blancs Emmanuel Pierrat Pocket 16/08/2007 206 p. 226615964X nc.
Roméo et Juliette William Shakespeare Sylvie Barès Catherine Bouttier-Couqueberg Pocket 14/08/2007 374 p. 2266176048 nc.
Supplément au voyage de Bougainville Denis Diderot Pocket 10/08/2007 103 p. 2266178466 1.47 €
L'enfant noir Camara Laye Pocket 07/08/2007 221 p. 9782266178945 4.2 €
Se libérer des dépendances Frédérique de Gravelaine Pascale Senk Pocket 02/08/2007 251 p. 2266177508 6.27 €
Les voyages d'Endymion : L'éveil d'Endymion 2 Dan Simmons Pocket 01/08/2007 4081 p. 2266177486 8.4 €
Célestin : J'ai besoin de bien dormir Véronique Briant Philip Glineur Pocket 30/07/2007 27 p. 2266159496 nc.
Les Annales du Disque-Monde, Tome 18 : Masquarade Terry Pratchett Pocket 30/07/2007 377 p. 2266148044 nc.
A l'aube l'espoir se lève aussi Belva Plain Pocket 19/07/2007 479 p. 226617813X nc.
La Mallorée, Tome 5 : La Sibylle de Kell David Eddings Pocket 17/07/2007 445 p. 2266171763 7.22 €
Femme havane Jean-Yves Martinez Pocket 05/07/2007 - 2266153277 nc.
Jouir d'aimer Cléa Carmin Pocket 25/06/2007 212 p. 2266165674 nc.
Le chanteur de sérénades Jean-Michel Thibaux Pocket 22/06/2007 204 p. 2266156489 nc.
Cycle de Gui de Clairbois, Tome 8 : Le secret sous les armes Pierre Naudin Pocket 21/06/2007 611 p. 2266174479 nc.
Filigrane Isabelle Alonso Pocket 21/06/2007 247 p. 2266164325 nc.
Pour être des parents acceptables Bruno Bettelheim Pocket 21/06/2007 600 p. 2266175351 7.79 €
Six filles dans le vent Laura Shaine Cunningham Pocket 21/06/2007 370 p. 2266154966 6.84 €
Double dames contre la mort Yvonne Besson Pocket 20/06/2007 370 p. 2266157094 nc.
Le gardénia blanc Belinda Alexandra Pocket 20/06/2007 486 p. 2266166301 nc.
Tout l'or du ciel Susan Madison Pocket 20/06/2007 497 p. 2266155350 nc.
Joyaux Steel Danielle Pocket 17/06/2007 448 p. 2266176641 nc.
Zadig : Suivi de Micromégas Voltaire Pocket 15/06/2007 132 p. 2266177680 1.55 €
Les annales du Disque-Monde, Tome 22 : Le dernier continent Terry Pratchett Pocket 14/06/2007 397 p. 2266174150 nc.
Belgarath le sorcier, Tome 1 : Les années noires David Eddings Leigh Eddings Pocket 08/06/2007 443 p. 2266177494 7.7 €
Les brûlures de l'été Jean-Pierre Leclerc Pocket 08/06/2007 213 p. 2266158279 nc.
Reine de Palmyre, Tome 1 : La danse des Dieux Antoine-B Daniel Pocket 08/06/2007 374 p. 2266163167 nc.
Ces gestes qui manipulent, ces mots qui influencent : Décodez les gestes et les mots de la manipulation Joseph Messinger Pocket 07/06/2007 507 p. 2266161962 9.1 €
Reine de Palmyre, Tome 2 : Les chaînes d'or Antoine-B Daniel Pocket 07/06/2007 416 p. 2266163175 nc.
Seconde chance Danielle Steel Pocket 06/06/2007 248 p. 2266172905 nc.
Flambant neuf Janet Evanovich Pocket 04/06/2007 340 p. 2266169572 6.8 €
Le dernier juré John Grisham Pocket 04/06/2007 466 p. 2266160168 nc.
Quatre souris vertes James Patterson Pocket 01/06/2007 405 p. 2266159623 7.3 €
Bienvenue sur la voie Arnaud Desjardins Pocket 25/05/2007 179 p. 2266171615 5.89 €
Envies de fraises Jennifer Weiner Pocket 25/05/2007 467 p. 2266162616 nc.
Histoires en rouge et noir Honoré de Balzac Dominique Brunet Annie Collognat-Barès Pocket 25/05/2007 279 p. 2266148818 nc.
Le Goût du bonheur, Tome 3 : Florent Marie Laberge Pocket 25/05/2007 1103 p. 2266167626 11.2 €
Le coeur à deux places Françoise Dorin Pocket 25/05/2007 263 p. 9782266166379 6.8 €
Le gardien de son coeur Nicolas Sparks Pocket 25/05/2007 471 p. 2266169505 7.7 €
Le secret du temple Paul Sussman Pocket 25/05/2007 599 p. 2266162071 nc.
Mes amis Mes amours Marc Levy Pocket 15/05/2007 337 p. 2266168983 nc.
Avec vue sur la mer Didier Decoin Pocket 04/05/2007 213 p. 2266165798 nc.
Le Monde de Recluce, Tome 1 : Le banni de Recluce L. E. (Leland Exton) Modesitt Pocket 03/05/2007 731 p. 226615088X 10.64 €
Seras-Tu la ? Musso Guillaume Pocket 03/05/2007 336 p. 2266169548 nc.
Les Césarines : La tradition Albarède Jean-Paul Malaval Pocket 02/05/2007 507 p. 2266156470 nc.
Mesopotamia, Tome 2 : Le secret de Razin Armand Herscovici Pocket 02/05/2007 405 p. 2266158716 nc.
La voie de l'amoureux : Savoir aimer plutôt que rêver d'amour Arouna Lipschitz Pocket 30/04/2007 273 p. 2266166611 nc.
People or not People Lauren Weisberger Pocket 30/04/2007 493 p. 9782266166768 7.7 €
Les Martiens Kim Stanley Robinson Pocket 27/04/2007 538 p. 2266160923 nc.
L'âge de Régis Hastur, Tome 2 : Marion Zimmer Bradley Pocket 26/04/2007 1192 p. 2266172921 12.16 €
La légende de Hawkmoon, Tome 3 : L'épée de l'aurore Michael Moorcock Bernard Ferry Pocket 26/04/2007 249 p. 2266172964 6.2 €
La légende de Hawkmoon, Tome 4 : Le secret des runes Michael Moorcock Pocket 26/04/2007 251 p. 2266172972 6.8 €
La trilogie de la quête d'Erekosë Michael Moorcock Pocket 26/04/2007 854 p. 2266172948 11.2 €
Le cercle de sang Jérôme Delafosse Pocket 26/04/2007 441 p. 2266165801 6.84 €
Les Rêveurs, Tome 1 : Le réveil des anciens dieux David Eddings Leigh Eddings Pocket 26/04/2007 420 p. 2266155083 8.1 €
Les amants de la petite reine Annie Degroote Pocket 26/04/2007 350 p. 2266163132 nc.
Le grand secret René Barjavel Pocket 23/04/2007 384 p. 2266175947 nc.
Bien-être et incertitude : Cent huit enseignements Pema Chödrön Pocket 19/04/2007 243 p. 226616810X nc.
Carnets intimes d'une jeune fille pas rangée Maïna Lecherbonnier Pocket 19/04/2007 154 p. 2266167049 nc.
La dame au sari bleu Katherine Scholes Pocket 19/04/2007 484 p. 2266160915 8.1 €
Mes amies, mes amours, mais encore ? Agathe Colombier Hochberg Pocket 19/04/2007 214 p. 9782266164887 5.8 €
Métaphysique : Livres A à E Aristote Pocket 19/04/2007 252 p. 2266154745 nc.
N'allez pas croire qu'ailleurs l'herbe soit plus verte... : Elle est plus loin et puis c'est tout Murielle Levraud Pocket 19/04/2007 211 p. 2266160141 nc.
Rhétorique Aristote Pocket 19/04/2007 285 p. 226615429X 7.7 €
Tokyo c'est loin Tania de Montaigne Pocket 19/04/2007 231 p. 2266166646 nc.
Le Goût du bonheur, Tome 2 : Adélaïde Marie Laberge Pocket 18/04/2007 949 p. 2266167618 10.5 €
Danse !, Tome 37 : Paparazzi story Anne-Marie Pol Pocket 17/04/2007 137 p. 2266169793 nc.
Un abri en ce monde Mary McGarry Morris Pocket 17/04/2007 502 p. 2266165682 nc.
La cause des enfants Françoise Dolto Pocket 12/04/2007 597 p. 2266176358 8.1 €
L'homme qui mentait aux femmes Carol O'Connell Pocket 05/04/2007 315 p. 2266173111 nc.
La force de l'intuition : Prendre la bonne décision en deux secondes Malcolm Gladw